[[{"header":{"parameterUnit":"m.s-1","parameterCategory":1,"la1":30.6,"la2":28.766,"lo1":-90.7593,"lo2":-88.6598,"dy":0.0162,"dx":0.0183,"nx":116,"ny":114,"refTime":"2023-11-12T06:00:00:Z","depth":0,"parameterNumber":2,"parameterNumberName":"U-component_of_WINDS"},"data":[0.0,0.0,0.0,0.0,0.0,0.0,0.0,0.0,0.0,0.0,0.0,0.0,0.0,0.0,0.0,0.0,0.0,0.0,0.0,0.0,0.0,0.0,0.0,0.0,0.0,0.0,0.0,0.0,0.0,0.0,0.0,0.0,0.0,0.0,0.0,0.0,0.0,0.0,0.0,0.0,0.0,0.0,0.0,0.0,0.0,0.0,0.0,0.0,0.0,0.0,0.0,0.0,0.0,0.0,0.0,0.0,0.0,0.0,0.0,0.0,0.0,0.0,0.0,0.0,0.0,0.0,0.0,0.0,0.0,0.0,0.0,0.0,0.0,0.0,0.0,0.0,0.0,0.0,0.0,0.0,0.0,0.0,0.0,0.0,0.0,0.0,0.0,0.0,0.0,0.0,0.0,0.0,0.0,0.0,0.0,0.0,0.0,0.0,0.0,0.0,0.0,0.0,0.0,0.0,0.0,0.0,0.0,0.0,0.0,0.0,0.0,0.0,0.0,0.0,0.0,0.0,0.0,0.0,0.0,0.0,0.0,0.0,0.0,0.0,0.0,0.0,0.0,0.0,0.0,0.0,0.0,0.0,0.0,0.0,0.0,0.0,0.0,0.0,0.0,0.0,0.0,0.0,0.0,0.0,0.0,0.0,0.0,0.0,0.0,0.0,0.0,0.0,0.0,0.0,0.0,0.0,0.0,0.0,0.0,0.0,0.0,0.0,0.0,0.0,0.0,0.0,0.0,0.0,0.0,0.0,0.0,0.0,0.0,0.0,0.0,0.0,0.0,0.0,0.0,0.0,0.0,0.0,0.0,0.0,0.0,0.0,0.0,0.0,0.0,0.0,0.0,0.0,0.0,0.0,0.0,0.0,0.0,0.0,0.0,0.0,0.0,0.0,0.0,0.0,0.0,0.0,0.0,0.0,0.0,0.0,0.0,0.0,0.0,0.0,0.0,0.0,0.0,0.0,0.0,0.0,0.0,0.0,0.0,0.0,0.0,0.0,0.0,0.0,0.0,0.0,0.0,0.0,0.0,0.0,0.0,0.0,0.0,0.0,0.0,0.0,0.0,0.0,0.0,0.0,0.0,0.0,0.0,0.0,0.0,0.0,0.0,0.0,0.0,0.0,0.0,0.0,0.0,0.0,0.0,0.0,0.0,0.0,0.0,0.0,0.0,0.0,0.0,0.0,0.0,0.0,0.0,0.0,0.0,0.0,0.0,0.0,0.0,0.0,0.0,0.0,0.0,0.0,0.0,0.0,0.0,0.0,0.0,0.0,0.0,0.0,0.0,0.0,0.0,0.0,0.0,0.0,0.0,0.0,0.0,0.0,0.0,0.0,0.0,0.0,0.0,0.0,0.0,0.0,0.0,0.0,0.0,0.0,0.0,0.0,0.0,0.0,0.0,0.0,0.0,0.0,0.0,0.0,0.0,0.0,0.0,0.0,0.0,0.0,0.0,0.0,0.0,0.0,0.0,0.0,0.0,0.0,0.0,0.0,0.0,0.0,0.0,0.0,0.0,0.0,0.0,0.0,0.0,0.0,0.0,0.0,0.0,0.0,0.0,0.0,0.0,0.0,0.0,0.0,0.0,0.0,0.0,0.0,0.0,0.0,0.0,0.0,0.0,0.0,0.0,0.0,0.0,0.0,0.0,0.0,0.0,0.0,0.0,0.0,0.0,0.0,0.0,0.0,0.0,0.0,0.0,0.0,0.0,0.0,0.0,0.0,0.0,0.0,0.0,0.0,0.0,0.0,0.0,0.0,0.0,0.0,0.0,0.0,0.0,0.0,0.0,0.0,0.0,0.0,0.0,0.0,0.0,0.0,0.0,0.0,0.0,0.0,0.0,0.0,0.0,0.0,0.0,0.0,0.0,0.0,0.0,0.0,0.0,0.0,0.0,0.0,0.0,0.0,0.0,0.0,0.0,0.0,0.0,0.0,0.0,0.0,0.0,0.0,0.0,0.0,0.0,0.0,0.0,0.0,0.0,0.0,0.0,0.0,0.0,0.0,0.0,0.0,0.0,0.0,0.0,0.0,0.0,0.0,0.0,0.0,0.0,0.0,0.0,0.0,0.0,0.0,0.0,0.0,0.0,0.0,0.0,0.0,0.0,0.0,0.0,0.0,0.0,0.0,0.0,0.0,0.0,0.0,0.0,0.0,0.0,0.0,0.0,0.0,0.0,0.0,0.0,0.0,0.0,0.0,0.0,0.0,0.0,0.0,0.0,0.0,0.0,0.0,0.0,0.0,0.0,0.0,0.0,0.0,0.0,0.0,0.0,0.0,0.0,0.0,0.0,0.0,0.0,0.0,0.0,0.0,0.0,0.0,0.0,0.0,0.0,0.0,0.0,0.0,0.0,0.0,0.0,0.0,0.0,0.0,0.0,0.0,0.0,0.0,0.0,0.0,0.0,0.0,0.0,0.0,0.0,0.0,0.0,0.0,0.0,0.0,0.0,0.0,0.0,0.0,0.0,0.0,0.0,0.0,0.0,0.0,0.0,0.0,0.0,0.0,0.0,0.0,0.0,0.0,0.0,0.0,0.0,0.0,0.0,0.0,0.0,0.0,0.0,0.0,0.0,0.0,0.0,0.0,0.0,0.0,0.0,0.0,0.0,0.0,0.0,0.0,0.0,0.0,0.0,0.0,0.0,0.0,0.0,0.0,0.0,0.0,0.0,0.0,0.0,0.0,0.0,0.0,0.0,0.0,0.0,0.0,0.0,0.0,0.0,0.0,0.0,0.0,0.0,0.0,0.0,0.0,0.0,0.0,0.0,0.0,0.0,0.0,0.0,0.0,0.0,0.0,0.0,0.0,0.0,0.0,0.0,0.0,0.0,0.0,0.0,0.0,0.0,0.0,0.0,0.0,0.0,0.0,0.0,0.0,0.0,0.0,0.0,0.0,0.0,0.0,0.0,0.0,0.0,0.0,0.0,0.0,0.0,0.0,0.0,0.0,0.0,0.0,0.0,0.0,0.0,0.0,0.0,0.0,0.0,0.0,0.0,0.0,0.0,0.0,0.0,0.0,0.0,0.0,0.0,0.0,0.0,0.0,0.0,0.0,0.0,0.0,0.0,0.0,0.0,0.0,0.0,0.0,0.0,0.0,0.0,0.0,0.0,0.0,0.0,0.0,0.0,0.0,0.0,0.0,0.0,0.0,0.0,0.0,0.0,0.0,0.0,0.0,0.0,0.0,0.0,0.0,0.0,0.0,0.0,0.0,0.0,0.0,0.0,0.0,0.0,0.0,0.0,0.0,0.0,0.0,0.0,0.0,0.0,0.0,0.0,0.0,0.0,0.0,0.0,0.0,0.0,0.0,0.0,0.0,0.0,0.0,0.0,0.0,0.0,0.0,0.0,0.0,0.0,0.0,0.0,0.0,0.0,0.0,0.0,0.0,0.0,0.0,0.0,0.0,0.0,0.0,0.0,0.0,0.0,0.0,0.0,0.0,0.0,0.0,0.0,0.0,0.0,0.0,0.0,0.0,0.0,0.0,0.0,0.0,0.0,0.0,0.0,0.0,0.0,0.0,0.0,0.0,0.0,0.0,0.0,0.0,0.0,0.0,0.0,0.0,0.0,0.0,0.0,0.0,0.0,0.0,0.0,0.0,0.0,0.0,0.0,0.0,0.0,0.0,0.0,0.0,0.0,0.0,0.0,0.0,0.0,0.0,0.0,0.0,0.0,0.0,0.0,0.0,0.0,0.0,0.0,0.0,0.0,0.0,0.0,0.0,0.0,0.0,0.0,0.0,0.0,0.0,0.0,0.0,0.0,0.0,0.0,0.0,0.0,0.0,0.0,0.0,0.0,0.0,0.0,0.0,0.0,0.0,0.0,0.0,0.0,0.0,0.0,0.0,0.0,0.0,0.0,0.0,0.0,0.0,0.0,0.0,0.0,0.0,0.0,0.0,0.0,0.0,0.0,0.0,0.0,0.0,0.0,0.0,0.0,0.0,0.0,0.0,0.0,0.0,0.0,0.0,0.0,0.0,0.0,0.0,0.0,0.0,0.0,0.0,0.0,0.0,0.0,0.0,0.0,0.0,0.0,0.0,0.0,0.0,0.0,0.0,0.0,0.0,0.0,0.0,0.0,0.0,0.0,0.0,0.0,0.0,0.0,0.0,0.0,0.0,0.0,0.0,0.0,0.0,0.0,0.0,0.0,0.0,0.0,0.0,0.0,0.0,0.0,0.0,0.0,0.0,0.0,0.0,0.0,0.0,0.0,0.0,0.0,0.0,0.0,0.0,0.0,0.0,0.0,0.0,0.0,0.0,0.0,0.0,0.0,0.0,0.0,0.0,0.0,0.0,0.0,0.0,0.0,0.0,0.0,0.0,0.0,0.0,0.0,0.0,0.0,0.0,0.0,0.0,0.0,0.0,0.0,0.0,0.0,0.0,0.0,0.0,0.0,0.0,0.0,0.0,0.0,0.0,0.0,0.0,0.0,0.0,0.0,0.0,0.0,0.0,0.0,0.0,0.0,0.0,0.0,0.0,0.0,0.0,0.0,0.0,0.0,0.0,0.0,0.0,0.0,0.0,0.0,0.0,0.0,0.0,0.0,0.0,0.0,0.0,0.0,0.0,0.0,0.0,0.0,0.0,0.0,0.0,0.0,0.0,0.0,0.0,0.0,0.0,0.0,0.0,0.0,0.0,0.0,0.0,0.0,0.0,0.0,0.0,0.0,0.0,0.0,0.0,0.0,0.0,0.0,0.0,0.0,0.0,0.0,0.0,0.0,0.0,0.0,0.0,0.0,0.0,0.0,0.0,0.0,0.0,0.0,0.0,0.0,0.0,0.0,0.0,0.0,0.0,0.0,0.0,0.0,0.0,0.0,0.0,0.0,0.0,0.0,0.0,0.0,0.0,0.0,0.0,0.0,0.0,0.0,0.0,0.0,0.0,0.0,0.0,0.0,0.0,0.0,0.0,0.0,0.0,0.0,0.0,0.0,0.0,0.0,0.0,0.0,0.0,0.0,0.0,0.0,0.0,0.0,0.0,0.0,0.0,0.0,0.0,0.0,0.0,0.0,0.0,0.0,0.0,0.0,0.0,0.0,0.0,0.0,0.0,0.0,0.0,0.0,0.0,0.0,0.0,0.0,0.0,0.0,0.0,0.0,0.0,0.0,0.0,0.0,0.0,0.0,0.0,0.0,0.0,0.0,0.0,0.0,0.0,0.0,0.0,0.0,0.0,0.0,0.0,0.0,0.0,0.0,0.0,0.0,0.0,0.0,0.0,0.0,0.0,0.0,0.0,0.0,0.0,0.0,0.0,0.0,0.0,0.0,0.0,0.0,0.0,0.0,0.0,0.0,0.0,0.0,0.0,0.0,0.0,0.0,0.0,0.0,0.0,0.0,0.0,0.0,0.0,0.0,0.0,0.0,0.0,0.0,0.0,0.0,0.0,0.0,0.0,0.0,0.0,0.0,0.0,0.0,0.0,0.0,0.0,0.0,0.0,0.0,0.0,0.0,0.0,0.0,0.0,0.0,0.0,0.0,0.0,0.0,0.0,0.0,0.0,0.0,0.0,0.0,0.0,0.0,0.0,0.0,0.0,0.0,0.0,0.0,0.0,0.0,0.0,0.0,0.0,0.0,0.0,0.0,0.0,0.0,0.0,0.0,0.0,0.0,0.0,0.0,0.0,0.0,0.0,0.0,0.0,0.0,0.0,0.0,0.0,0.0,0.0,0.0,0.0,0.0,0.0,0.0,0.0,0.0,0.0,0.0,0.0,0.0,0.0,0.0,0.0,0.0,0.0,0.0,0.0,0.0,0.0,0.0,0.0,0.0,0.0,0.0,0.0,0.0,0.0,0.0,0.0,0.0,0.0,0.0,0.0,0.0,0.0,0.0,0.0,0.0,0.0,0.0,0.0,0.0,0.0,0.0,0.0,0.0,0.0,0.0,0.0,0.0,0.0,0.0,0.0,0.0,0.0,0.0,0.0,0.0,0.0,0.0,0.0,0.0,0.0,0.0,0.0,0.0,0.0,0.0,0.0,0.0,0.0,0.0,0.0,0.0,0.0,0.0,0.0,0.0,0.0,0.0,0.0,0.0,0.0,0.0,0.0,0.0,0.0,0.0,0.0,0.0,0.0,0.0,0.0,3.309,3.309,0.0,0.0,0.0,0.0,0.0,0.0,0.0,0.0,0.0,0.0,0.0,0.0,0.0,0.0,0.0,0.0,0.0,0.0,0.0,0.0,0.0,0.0,0.0,2.3101,2.3101,2.3101,2.3101,2.3101,2.3101,2.3101,2.284,2.2252,2.223,2.1676,2.0454,2.0432,2.0133,1.9497,2.0702,2.1591,2.2164,2.2818,2.3101,2.3101,0.0,0.0,0.0,0.0,0.0,0.0,0.0,0.0,0.0,0.0,0.0,0.0,0.0,0.0,0.0,0.0,0.0,0.0,0.0,0.0,0.0,0.0,0.0,0.0,0.0,0.0,0.0,0.0,0.0,0.0,0.0,0.0,0.0,0.0,0.0,0.0,0.0,0.0,0.0,0.0,0.0,0.0,0.0,0.0,0.0,0.0,0.0,0.0,0.0,0.0,0.0,0.0,0.0,0.0,0.0,0.0,0.0,0.0,0.0,0.0,0.0,0.0,0.0,0.0,0.0,0.0,0.0,0.0,0.0,0.0,3.3617,3.347,0.0,0.0,0.0,0.0,0.0,0.0,0.0,0.0,0.0,0.0,0.0,0.0,0.0,0.0,0.0,0.0,0.0,0.0,0.0,0.0,0.0,2.2796,2.2796,2.2796,2.2796,2.2796,2.2972,2.2994,2.2796,2.2796,2.2249,2.1038,2.0989,2.0409,1.9222,1.9382,1.9291,1.8856,2.0274,2.1591,2.2796,2.2994,2.3101,2.3101,2.3101,0.0,0.0,0.0,0.0,0.0,0.0,0.0,0.0,0.0,0.0,0.0,0.0,0.0,0.0,0.0,0.0,0.0,0.0,0.0,0.0,0.0,0.0,0.0,0.0,0.0,0.0,0.0,0.0,0.0,0.0,0.0,0.0,0.0,0.0,0.0,0.0,0.0,0.0,0.0,0.0,0.0,0.0,0.0,0.0,0.0,0.0,0.0,0.0,0.0,0.0,0.0,0.0,0.0,0.0,0.0,0.0,0.0,0.0,0.0,0.0,0.0,0.0,0.0,3.3822,3.4048,3.4048,3.4502,3.4703,3.4678,3.4327,3.4123,3.4048,3.4048,0.0,0.0,0.0,0.0,0.0,0.0,0.0,0.0,0.0,0.0,0.0,0.0,0.0,0.0,0.0,0.0,0.0,0.0,0.0,2.1547,2.1547,2.1547,2.1547,2.1547,2.2492,2.2665,2.1614,2.1547,2.1011,1.9792,1.9747,1.9177,1.7963,1.8948,1.8442,1.6292,1.8603,2.0342,2.1569,2.2602,2.3101,2.3101,2.3101,2.3101,2.3101,0.0,0.0,0.0,0.0,0.0,0.0,0.0,0.0,0.0,0.0,0.0,0.0,0.0,0.0,0.0,0.0,0.0,0.0,0.0,0.0,0.0,0.0,0.0,0.0,0.0,0.0,0.0,0.0,0.0,0.0,0.0,0.0,0.0,0.0,0.0,0.0,0.0,0.0,0.0,0.0,0.0,3.309,3.309,0.0,0.0,0.0,0.0,0.0,0.0,0.0,0.0,0.0,0.0,0.0,0.0,0.0,3.4477,3.4477,3.4477,3.4477,3.4477,3.4552,3.4603,3.4603,3.4678,3.4703,3.4728,3.513,0.0,3.4603,3.4603,0.0,0.0,0.0,0.0,0.0,0.0,0.0,0.0,0.0,0.0,0.0,0.0,0.0,0.0,0.0,0.0,0.0,0.0,0.0,0.0,0.0,2.1921,2.2315,2.2315,2.2796,2.258,2.1391,2.1302,2.0454,1.8572,1.848,1.7902,1.6669,1.7147,1.7226,1.688,1.8626,1.9753,2.0296,2.0832,2.1436,2.2098,2.2098,2.247,2.3101,2.3101,0.0,0.0,0.0,0.0,0.0,0.0,0.0,0.0,0.0,0.0,0.0,0.0,0.0,0.0,0.0,0.0,0.0,0.0,0.0,0.0,0.0,0.0,0.0,0.0,0.0,0.0,0.0,0.0,0.0,0.0,0.0,0.0,0.0,0.0,0.0,0.0,0.0,0.0,0.0,3.3366,3.3442,3.314,3.3621,3.3872,0.0,0.0,0.0,0.0,0.0,0.0,0.0,0.0,0.0,3.4703,3.4703,3.4703,3.4703,3.4703,3.4703,3.4703,3.5004,3.5132,3.518,3.5504,3.5678,3.5678,3.5906,3.5855,3.5629,3.528,3.533,3.5604,0.0,0.0,0.0,0.0,3.5805,3.6006,0.0,0.0,0.0,0.0,0.0,0.0,0.0,0.0,0.0,0.0,0.0,0.0,2.0836,2.1921,2.2624,2.2624,2.2906,2.2448,2.0944,2.0836,1.9753,1.7311,1.7194,1.6763,1.5832,1.5808,1.641,1.7684,1.8596,1.9039,1.9039,1.936,1.998,2.0836,2.0836,2.1676,2.3101,2.3101,2.2906,2.258,0.0,0.0,0.0,0.0,0.0,0.0,0.0,0.0,0.0,0.0,0.0,0.0,0.0,0.0,0.0,0.0,0.0,0.0,0.0,0.0,0.0,0.0,0.0,0.0,0.0,0.0,0.0,0.0,0.0,0.0,0.0,0.0,0.0,0.0,0.0,0.0,0.0,3.3847,3.3947,3.3567,3.4223,3.4527,0.0,0.0,0.0,0.0,0.0,0.0,3.4904,3.4904,3.4979,3.5127,3.513,3.513,3.513,3.513,3.513,3.5152,3.5531,3.5732,3.5757,3.6205,3.6405,3.6405,3.6405,3.6405,3.638,3.5931,3.5981,3.638,3.5906,3.6006,3.6405,3.6405,3.6405,3.6405,0.0,0.0,0.0,0.0,0.0,0.0,0.0,0.0,0.0,0.0,0.0,1.9588,1.9588,2.0657,2.1391,2.1391,2.2448,2.2116,1.9747,1.9588,1.8488,1.5984,1.5903,1.5879,1.5808,1.5808,1.641,1.7684,1.7754,1.78,1.7824,1.8948,1.9542,1.9588,1.9588,2.0899,2.3101,2.3101,2.2448,2.148,2.2558,0.0,0.0,0.0,0.0,0.0,0.0,0.0,0.0,0.0,0.0,0.0,0.0,0.0,0.0,0.0,0.0,0.0,0.0,0.0,0.0,0.0,0.0,0.0,0.0,0.0,0.0,0.0,0.0,0.0,0.0,0.0,0.0,0.0,0.0,0.0,0.0,0.0,0.0,3.4628,3.4678,0.0,0.0,0.0,0.0,3.4703,3.4703,3.4929,3.5433,3.5458,3.5707,3.6281,3.6329,3.6329,3.6329,3.6329,3.6329,3.6329,3.6331,3.6331,3.638,3.6405,3.6405,3.6405,3.6405,3.6405,3.6405,3.638,3.638,3.6405,3.638,3.638,3.6405,3.6405,3.6405,3.6405,0.0,0.0,0.0,1.5808,1.5808,1.5808,1.5808,1.6173,1.648,1.648,1.7568,1.8642,1.9428,2.0567,2.1302,2.1302,2.168,2.1257,1.961,1.8764,1.7948,1.7068,1.6244,1.5808,1.5808,1.6598,1.6857,1.648,1.7288,1.7279,1.648,1.6913,1.7553,1.8388,1.9154,2.0404,2.1898,2.1101,2.0989,2.1279,2.0921,2.0268,0.0,0.0,0.0,0.0,0.0,0.0,0.0,0.0,0.0,0.0,0.0,0.0,0.0,0.0,0.0,0.0,0.0,0.0,0.0,0.0,0.0,0.0,0.0,0.0,0.0,0.0,0.0,0.0,0.0,0.0,0.0,0.0,0.0,0.0,0.0,0.0,0.0,3.4753,3.5353,0.0,3.5232,3.5579,3.5803,3.5803,3.5803,3.5879,3.6056,3.6081,3.618,3.6405,3.6405,3.6405,3.6405,3.6405,3.6405,3.6405,3.6405,3.6405,3.6405,3.6405,3.6405,3.6405,3.6405,3.6405,3.6405,3.6405,3.6405,3.6405,3.6405,3.6405,3.6405,3.6405,3.6405,3.6405,0.0,0.0,0.0,1.5808,1.5808,1.5808,1.5808,1.5808,1.5808,1.5808,1.6927,1.801,1.8826,1.9974,2.0679,2.0679,2.0679,2.0184,1.8971,1.8133,1.7498,1.7091,1.6244,1.5808,1.5808,1.6622,1.6645,1.5808,1.6645,1.6622,1.5808,1.5808,1.6244,1.7077,1.7902,1.8702,1.9389,1.8729,1.9527,2.1194,1.9997,1.9497,1.9474,0.0,0.0,0.0,0.0,0.0,0.0,0.0,0.0,0.0,0.0,0.0,0.0,0.0,0.0,0.0,0.0,0.0,0.0,0.0,0.0,0.0,0.0,0.0,0.0,0.0,0.0,0.0,0.0,0.0,0.0,0.0,0.0,0.0,0.0,3.5579,3.5656,3.5328,3.5954,3.623,3.5832,3.618,3.6405,3.6405,3.6405,3.6405,3.6405,3.6405,3.6405,3.6405,3.6405,3.6405,3.6405,3.6405,3.6405,3.6405,3.6405,3.6405,3.6405,3.6606,3.6658,3.6683,3.6859,3.6934,3.6934,3.6934,3.6934,3.6909,3.6733,3.6783,3.6934,3.6934,3.6934,3.6934,0.0,1.5808,1.5808,1.5808,1.5808,1.5808,1.5808,1.5808,1.5808,1.5808,1.688,1.7661,1.7684,1.8757,1.9451,1.9451,1.9451,1.8948,1.7777,1.7661,1.7091,1.5855,1.5808,1.5808,1.5808,1.5808,1.5821,1.5821,1.5821,1.5835,1.5835,1.5835,1.5835,1.5835,1.5882,1.5882,1.5919,1.6238,1.8243,2.1096,1.994,1.953,1.9735,0.0,0.0,0.0,0.0,0.0,0.0,0.0,0.0,0.0,0.0,0.0,0.0,0.0,0.0,0.0,0.0,0.0,0.0,0.0,0.0,0.0,0.0,0.0,0.0,0.0,0.0,0.0,0.0,0.0,0.0,0.0,0.0,0.0,3.6381,3.6405,3.6405,3.6405,3.6405,3.6405,3.6405,3.6405,3.6405,3.6405,3.6405,3.6405,3.6405,3.6405,3.6405,3.643,3.643,3.643,3.6455,3.6455,3.6455,3.6455,3.6455,3.6455,3.648,3.6984,3.7211,3.7188,3.769,3.7916,3.7841,3.7841,3.7866,3.7841,3.7339,3.7464,3.7941,3.7941,3.7941,3.7941,0.0,1.5808,1.5808,1.5808,1.5808,1.5808,1.5808,1.5808,1.5808,1.5808,1.6103,1.6669,1.7591,1.801,1.818,1.818,1.818,1.8056,1.7707,1.6857,1.6173,1.5832,1.5808,1.5808,1.5808,1.6046,1.6152,1.6152,1.6366,1.6435,1.6435,1.6435,1.6435,1.6484,1.7379,1.7755,1.777,1.7856,1.8437,1.9223,1.8903,1.998,2.1678,0.0,0.0,0.0,0.0,0.0,0.0,0.0,0.0,0.0,0.0,0.0,0.0,0.0,0.0,0.0,0.0,0.0,0.0,0.0,0.0,0.0,0.0,0.0,0.0,0.0,0.0,0.0,0.0,0.0,0.0,0.0,3.3774,3.5307,3.6263,3.6405,3.6405,3.6405,3.6405,3.6405,3.6405,3.6405,3.6405,3.6405,3.6405,3.6405,3.6405,3.6405,3.6581,3.6959,3.6984,3.7185,3.7563,3.7563,3.7563,3.7563,3.7563,3.7563,3.7563,3.7713,3.7221,3.6172,3.6342,3.5805,3.4829,3.4829,3.5037,3.5445,3.5984,3.6294,3.6389,3.6389,3.6389,3.6463,0.0,1.5808,1.5808,1.5808,1.5808,1.5808,1.5808,1.5808,1.5998,1.6527,1.6126,1.6292,1.7544,1.7217,1.6904,1.6904,1.6904,1.6904,1.6904,1.6197,1.5861,1.6005,1.6019,1.6072,1.6168,1.6366,1.6484,1.6484,1.662,1.67,1.67,1.67,1.67,1.6725,1.7435,1.7757,1.7757,1.79,1.8267,1.8741,1.8286,1.9243,2.0875,2.0666,2.1073,2.1901,2.2981,2.349,2.3761,2.4466,0.0,0.0,0.0,0.0,0.0,0.0,0.0,0.0,0.0,0.0,0.0,0.0,0.0,0.0,0.0,0.0,0.0,0.0,0.0,0.0,0.0,0.0,0.0,0.0,3.4204,3.5745,3.5277,3.6111,3.6808,3.7034,3.7085,3.7085,3.7085,3.7085,3.7085,3.7085,3.7085,3.7085,3.7085,3.7085,3.721,3.7513,3.7538,3.7393,3.7094,3.7069,3.6768,3.6162,3.6162,3.6162,3.6162,3.6378,3.601,3.5231,3.5488,3.5104,3.4307,3.4307,3.4513,3.4795,0.0,0.0,0.0,0.0,3.5581,3.5627,1.5808,1.5808,1.5808,1.5808,1.5808,1.5808,1.5808,1.5808,1.6244,1.7521,1.6716,1.6504,1.7754,1.6772,1.6008,1.6008,1.5879,1.5821,1.5848,1.5861,1.6005,1.6337,1.6351,1.6471,1.67,1.674,1.6754,1.6754,1.6794,1.6807,1.6807,1.6807,1.6807,1.6807,1.6807,1.6807,1.682,1.7113,1.7926,1.8934,1.7984,1.8098,1.8983,2.007,2.0605,2.1023,2.3274,2.3505,2.2946,2.4455,0.0,0.0,0.0,0.0,0.0,0.0,0.0,0.0,0.0,0.0,0.0,0.0,0.0,0.0,0.0,0.0,0.0,0.0,0.0,0.0,0.0,0.0,0.0,0.0,3.478,3.644,3.4035,3.5524,3.7121,3.7692,3.7891,3.7941,3.7767,3.7891,3.7941,3.7767,3.7742,3.7817,3.799,3.7693,0.0,0.0,0.0,3.6991,3.5763,3.574,3.5092,3.3781,3.3781,3.3781,3.383,3.428,3.4427,3.4287,3.4813,3.4958,3.4792,3.4792,3.4792,3.4748,3.4415,3.4585,3.5041,3.5041,3.5041,3.5041,1.5808,1.5808,1.5808,1.5808,1.5808,1.5808,1.5808,1.5808,1.6244,1.7521,1.7474,1.78,1.9016,1.8064,1.7334,1.7334,1.6386,1.5901,1.6203,1.6217,1.6313,1.6607,1.662,1.6647,1.67,1.6966,1.7086,1.7086,1.7327,1.7434,1.7434,1.7434,1.7434,1.7434,1.7434,1.7434,1.7422,1.7501,1.7672,1.7881,1.7687,1.8985,2.0992,2.0122,2.0487,2.1545,2.2045,2.2782,2.354,2.3852,2.4692,2.5659,2.6133,2.6269,0.0,0.0,0.0,0.0,0.0,0.0,0.0,0.0,0.0,0.0,0.0,0.0,0.0,0.0,0.0,0.0,0.0,0.0,0.0,3.1475,3.2292,3.3173,3.4111,3.4649,3.5254,3.6108,3.7269,3.7543,3.6338,3.7294,3.7518,3.6313,3.6237,3.6743,3.7941,3.573,3.5222,3.6888,3.5745,3.5184,3.5378,3.5378,3.5242,3.497,3.497,0.0,3.497,3.5082,3.4494,3.3352,3.3465,3.2843,3.1738,3.1738,3.1738,3.1854,3.2937,3.3416,3.3529,3.3529,3.3529,3.3529,0.0,1.5808,1.5808,1.5808,1.5808,1.5808,1.5808,1.5808,1.648,1.8342,1.7521,1.7451,1.9291,1.7855,1.6763,1.6763,1.631,1.6179,1.6473,1.6486,1.662,1.6939,1.6953,1.702,1.7141,1.7314,1.7394,1.7394,1.7541,1.7608,1.7608,1.7608,1.7608,1.7608,1.7608,1.7608,1.7608,1.7608,1.7608,1.7608,1.7608,1.842,1.9638,1.9602,2.0025,2.0743,2.144,2.2687,2.3996,2.3996,2.5039,2.6401,2.6641,2.6699,2.6738,0.0,0.0,0.0,0.0,0.0,0.0,0.0,0.0,0.0,0.0,0.0,0.0,0.0,0.0,2.9911,2.9911,0.0,3.1337,3.1252,3.2496,3.3249,3.2728,3.3916,3.5007,3.5504,3.6848,3.7468,3.6718,3.7313,3.7442,3.6718,3.5984,3.5878,3.6614,3.5245,3.493,3.596,3.5233,3.4637,3.4208,3.4208,3.3838,3.3098,3.3098,3.3098,3.3098,3.3098,3.2721,3.2006,3.2006,3.1565,3.0898,3.0898,3.0898,3.0966,3.171,3.2006,3.2006,3.2006,3.2006,3.2006,0.0,1.5808,1.5808,1.5808,1.5808,1.5808,1.5808,1.5808,1.6608,1.8856,1.7413,1.703,1.9268,1.7565,1.6164,1.5992,1.6219,1.6498,1.6767,1.6794,1.6953,1.7273,1.7286,1.7367,1.7608,1.7608,1.7608,1.7608,1.7608,1.7608,1.7608,1.7608,1.7608,1.7608,1.7608,1.7608,1.7608,1.7608,1.7622,1.7675,1.7675,1.7702,1.7889,1.8972,1.9348,1.9446,2.0571,2.2092,2.3573,2.3573,2.4886,2.6602,2.6654,2.6898,2.7148,2.7246,2.7519,0.0,0.0,0.0,0.0,0.0,0.0,0.0,0.0,2.9375,2.9715,2.9715,3.0067,3.0332,3.0332,3.162,3.2293,3.1083,3.29,3.3614,3.1228,3.2957,3.4453,3.4453,3.5999,3.6945,3.6676,3.6892,3.6945,3.6676,3.5563,3.4985,3.5288,3.4764,3.4592,3.4847,3.4598,3.3866,3.2701,3.2672,3.2064,3.0898,3.0898,3.0898,3.0898,3.0898,3.0898,3.0898,3.0898,3.0898,3.0898,3.0898,3.0898,3.0898,3.0898,3.0898,3.0898,3.0898,3.0898,3.0898,0.0,1.5808,1.5808,1.5808,1.5808,1.5808,1.5808,1.5808,1.6315,1.7731,1.7661,1.801,1.936,1.8512,1.7514,1.6654,1.6633,1.678,1.7125,1.7152,1.7286,1.7541,1.7568,1.7582,1.7608,1.7608,1.7608,1.7608,1.7608,1.7608,1.7608,1.7608,1.7608,1.7608,1.7608,1.7608,1.7608,1.7608,1.7742,1.7969,1.7969,1.8129,1.8411,1.8576,1.8442,1.8198,1.8359,1.9496,2.0917,2.0917,2.2752,2.511,2.5455,2.6518,2.7702,2.8047,2.8184,2.8223,2.8223,2.8535,2.882,2.882,2.918,2.952,0.0,2.9852,3.0137,3.0137,3.0488,3.082,3.082,3.0985,3.1083,3.0928,3.117,3.1286,3.0957,3.117,3.1383,3.1383,3.3838,3.5041,3.3705,3.4792,3.5013,3.3677,3.3424,3.3901,3.5233,3.2815,3.1998,3.3304,3.2084,3.1315,3.1141,3.1141,3.1054,3.0898,3.0898,3.0898,3.0898,3.0898,3.0898,3.0898,3.0898,3.0898,3.0898,3.0898,3.0898,3.0898,3.0898,3.0898,3.0898,3.0898,3.0898,3.0898,0.0,0.0,1.6032,1.6786,1.6292,1.6055,1.6786,1.6927,1.7358,1.8596,1.8255,1.8134,1.8636,1.7843,1.7205,1.7017,1.6993,1.7113,1.7408,1.7421,1.7488,1.7608,1.7608,1.7608,1.7608,1.7608,1.7608,1.7608,1.7608,1.7608,1.7608,1.7608,1.7675,1.7822,1.7822,1.7956,1.8103,1.8103,1.8183,1.8276,1.8276,1.8384,1.849,1.849,1.8517,1.8503,1.8343,1.9387,0.0,2.1896,2.3682,2.5755,2.6769,2.753,2.8093,2.8242,2.8301,2.834,2.8594,2.8965,2.9297,2.9297,2.9609,2.997,2.997,3.0273,3.0605,3.0605,3.0762,3.0898,3.0898,3.0898,3.0898,3.0898,3.0898,3.0898,3.0898,3.0898,3.0898,3.0898,3.1998,3.2843,3.3077,3.3649,3.3761,3.3162,3.2322,3.2092,3.2721,3.1585,3.1199,3.1796,3.1228,3.0898,3.0898,3.0898,3.0898,3.0898,3.0898,3.0898,3.0898,3.0898,3.0898,3.0898,3.0898,3.0898,3.0898,3.0898,3.0898,3.0898,3.0898,3.0898,3.0898,3.0898,3.0898,3.0898,0.0,0.0,0.0,1.7749,1.7194,1.6947,1.8025,1.828,1.8551,1.9046,1.861,1.8173,1.7872,1.7236,1.6966,1.7274,1.7326,1.7381,1.7595,1.7608,1.7608,1.7608,1.7608,1.7608,1.7608,1.7608,1.7648,1.7716,1.7716,1.7756,1.7862,1.7862,1.7956,1.8143,1.8143,1.8263,1.849,1.849,1.8544,1.8611,1.8611,1.8664,1.8759,1.8759,1.8865,1.9011,1.8718,1.9472,2.0794,2.1924,2.3441,2.5123,2.6581,2.733,2.7772,2.831,2.8555,2.8711,2.9023,2.9414,2.9774,2.9774,3.0059,3.0391,3.0391,3.0644,3.0898,3.0898,3.0898,3.0898,3.0898,3.0898,3.0898,3.0898,3.0898,3.0898,3.0898,3.0898,3.0898,3.0898,3.0898,3.1325,3.2387,3.2501,3.2501,3.2501,3.1498,3.0898,3.0898,3.0898,3.0898,3.0898,3.0898,3.0898,3.0898,3.0898,3.0898,3.0898,3.0898,3.0898,3.0898,3.0898,3.0898,3.0898,3.0898,3.0957,3.1055,3.1055,3.1133,3.125,3.125,3.125,3.125,3.125,3.1172,3.1055,0.0,0.0,0.0,1.8395,1.865,1.8813,1.9343,1.9777,1.9563,1.8315,1.8456,1.8315,1.7343,1.7205,1.7274,1.7568,1.7595,1.7595,1.7608,1.7608,1.7608,1.7608,1.7608,1.7608,1.7608,1.7608,1.7729,1.7982,1.7982,1.8156,1.8464,1.8464,1.8464,1.8477,1.8477,1.8477,1.849,1.849,1.8651,1.8876,1.8876,1.9078,1.9374,1.9374,1.9374,1.9348,1.9011,1.9134,1.9461,1.949,2.0501,2.1996,2.3459,2.4958,2.65,2.8361,2.9199,2.9559,2.9579,2.9891,3.0176,3.0176,3.0527,3.0859,3.0859,3.0879,3.0898,3.0898,3.0898,3.0898,3.0898,3.0898,3.0898,3.0898,3.0898,3.0898,3.0898,3.0898,3.0898,3.0898,3.0898,3.0928,3.0966,3.0966,3.0966,3.0966,3.0928,3.0898,3.0898,3.0898,3.0898,3.0898,3.0898,3.0898,3.0898,3.0898,3.0898,3.0898,3.0898,3.0898,3.0898,3.0898,3.0898,3.0898,3.0898,3.1133,3.1474,3.1474,3.1758,3.2159,3.2159,3.2159,3.2159,3.2159,3.1855,3.1474,0.0,0.0,0.0,2.1033,2.1282,2.1624,2.2612,2.218,2.159,2.1141,2.0653,0.0,0.0,0.0,0.0,0.0,1.7608,1.7608,1.7608,1.7608,1.7608,1.7608,1.7608,1.7675,1.7862,1.7862,1.8009,1.8343,1.8343,1.8397,1.849,1.849,1.8597,1.8784,1.8784,1.8891,1.9107,1.9107,1.916,1.9225,1.9225,1.9308,1.9401,1.9401,1.9401,1.9388,0.0,1.9308,1.9533,2.0529,2.1305,2.213,2.3646,2.4606,2.5509,2.7199,2.8794,2.998,2.998,3.0312,3.0664,3.0664,3.0781,3.0898,3.0898,3.0898,3.0898,3.0898,3.0898,3.0898,3.0898,3.0898,3.0898,3.0898,3.0898,3.0898,3.0898,3.1133,3.1309,3.1309,3.1562,3.1768,3.1768,3.126,3.0898,3.0898,3.0898,3.0898,3.0898,3.0898,3.0898,3.0898,3.0898,3.0898,3.0898,3.0898,3.0898,3.0898,3.1172,3.1465,3.1768,3.1768,3.1768,3.1768,3.1768,3.1846,3.1953,3.1953,3.2061,3.2198,3.2198,3.2198,3.2198,3.2198,3.2276,3.2324,0.0,0.0,0.0,0.0,0.0,0.0,0.0,0.0,0.0,0.0,0.0,0.0,0.0,0.0,0.0,0.0,0.0,1.7608,1.7608,1.7689,1.7742,1.7742,1.7849,1.7996,1.8169,1.8183,1.8316,1.8651,1.8651,1.8704,1.8839,1.8839,1.8905,1.9078,1.9078,1.9185,1.9401,1.9401,1.9401,1.9401,1.9401,1.9401,1.9401,1.9401,1.9468,0.0,1.9548,1.9586,1.9829,2.0684,2.1525,2.2405,2.3367,2.4638,2.6133,2.774,2.9279,3.0449,3.0449,3.0664,3.0898,3.0898,3.0898,3.0898,3.0898,3.0898,3.0898,3.0898,3.1016,3.1113,3.1113,3.125,3.1348,3.1348,3.1348,3.1348,3.1348,3.1582,3.1758,3.1758,3.2022,3.2198,3.2198,3.169,3.1348,3.1348,3.1348,3.1348,3.1348,3.1348,3.1348,3.1348,3.1348,3.1348,3.1348,3.1348,3.1348,3.1377,3.1621,3.1894,3.2198,3.2198,3.2198,3.2198,3.2198,3.2276,3.2413,3.2413,3.2511,3.2617,3.2617,3.2617,3.2617,3.2617,3.2793,3.2969,0.0,0.0,0.0,0.0,0.0,0.0,0.0,0.0,0.0,0.0,0.0,0.0,0.0,0.0,0.0,0.0,0.0,0.0,1.7635,1.7849,1.7995,1.8009,1.8343,1.8504,1.8517,1.8517,1.8651,1.8916,1.8916,1.9092,1.9401,1.9401,1.9401,1.9401,1.9401,1.9401,1.9401,1.9401,1.9401,1.9401,1.9401,1.9401,1.9401,1.9415,1.9589,1.98,1.9813,2.0013,2.0184,1.992,2.1091,2.2706,2.2707,2.5031,2.813,2.9671,3.0489,3.0898,3.0898,3.0898,3.0898,3.0898,3.0898,3.0898,3.0898,3.0898,3.0898,3.0918,3.123,3.1523,3.1513,3.1894,3.2198,3.2198,3.2198,3.2198,3.2198,3.2218,3.2237,3.2237,3.2257,3.2257,3.2257,3.2257,3.2257,3.2257,3.2218,3.2198,3.2198,3.2198,3.2198,3.2198,3.2198,3.2198,3.2198,3.2198,3.2218,3.2237,3.2237,3.2237,3.2257,3.2257,3.2257,3.2257,3.2257,3.2492,3.2832,3.2832,3.3066,3.3386,3.3386,3.3386,3.3386,3.3386,3.3386,3.3359,0.0,0.0,0.0,0.0,0.0,0.0,0.0,0.0,0.0,0.0,0.0,0.0,0.0,0.0,0.0,0.0,0.0,0.0,1.7889,1.7955,1.8116,1.837,1.845,1.8597,1.8783,1.8811,1.8958,1.9281,1.9281,1.9321,1.9401,1.9401,1.9401,1.9401,1.9401,1.9401,1.9401,1.9401,1.9401,1.9401,1.9401,1.9401,1.9428,1.9613,1.9733,1.9826,2.001,2.0307,2.0521,2.0227,2.1385,2.3233,2.4674,2.6551,2.8323,2.8755,2.9837,3.0898,3.0898,3.0898,3.0898,3.0898,3.0898,3.0898,3.0898,3.0898,3.0976,3.1289,3.1445,3.1621,3.1983,3.212,3.2198,3.2198,3.2198,3.2198,3.2198,3.2472,3.2637,3.2637,3.291,3.3105,3.3105,3.3105,3.3105,3.3105,3.255,3.2198,3.2198,3.2198,3.2198,3.2198,3.2198,3.2198,3.2198,3.2198,3.2355,3.2637,3.2637,3.2793,3.3105,3.3105,3.3105,3.3105,3.3105,3.3164,3.3262,3.3262,3.332,3.3386,3.3386,3.3386,3.3386,3.3386,3.3386,3.3367,0.0,0.0,0.0,0.0,0.0,0.0,0.0,0.0,0.0,0.0,0.0,0.0,0.0,0.0,0.0,0.0,0.0,0.0,0.0,1.8263,1.8476,1.8677,1.8839,1.8973,1.9118,1.9118,1.9199,1.9401,1.9401,1.9401,1.9401,1.9401,1.9401,1.9401,1.9401,1.9401,1.9401,1.9401,1.9401,0.0,0.0,1.9589,1.9586,1.988,2.0504,2.1168,2.0605,2.1094,2.215,2.3399,2.405,2.4814,2.7352,2.8277,2.8545,2.9275,3.0167,3.0898,3.0898,3.0898,3.0898,3.0898,3.0898,3.0937,3.1133,3.1172,3.1289,3.1719,3.1953,3.2148,3.2402,3.2598,3.2715,3.2715,3.2715,3.2715,3.2715,3.293,3.3066,3.3066,3.325,3.3386,3.3386,3.3386,3.3386,3.3386,3.2988,3.2715,3.2715,3.2715,3.2715,3.2715,3.2715,3.2715,3.2715,3.2715,3.2832,3.3066,3.3066,3.3184,3.3386,3.3386,3.3386,3.3386,3.3386,3.3386,3.3386,3.3386,3.3386,3.3406,3.3633,3.3711,3.373,3.3926,3.3984,3.3984,0.0,0.0,0.0,0.0,0.0,0.0,0.0,0.0,0.0,0.0,2.3658,2.2667,2.385,2.2767,0.0,0.0,0.0,0.0,0.0,0.0,1.8916,1.8956,1.9225,1.9401,1.9401,1.9401,1.9401,1.9401,1.9401,1.9401,1.9401,1.9401,1.9401,1.9401,1.9401,1.9401,1.9401,1.9401,1.9415,1.9481,1.9693,1.9826,1.9923,0.0,2.1633,2.2959,2.1807,2.2626,2.4671,2.7452,2.7482,2.6862,2.9932,2.9903,2.9009,3.045,3.0898,3.0898,3.0898,3.0898,3.0898,3.0898,3.0898,3.0996,3.1426,3.1494,3.166,3.2179,3.257,3.2812,3.2871,3.3184,3.3386,3.3386,3.3386,3.3386,3.3386,3.3386,3.3386,3.3386,3.3386,3.3386,3.3386,3.3386,3.3406,3.3496,3.3484,3.3476,3.3386,3.3386,3.3386,3.3386,3.3386,3.3386,3.3386,3.3386,3.3386,3.3386,3.3386,3.3386,3.3386,3.3445,3.3484,3.3516,3.3542,3.3562,3.3562,3.3562,3.3562,3.3601,3.4004,3.4192,3.4231,3.457,3.4707,3.4707,0.0,0.0,0.0,0.0,0.0,0.0,0.0,0.0,0.0,0.0,2.5308,2.5094,2.5333,2.4146,0.0,0.0,0.0,0.0,0.0,0.0,0.0,1.9308,1.9374,1.9401,1.9401,1.9401,1.9401,1.9401,1.9401,1.9401,1.9401,1.9401,1.9401,1.9401,1.9401,1.9401,1.9401,1.9401,1.9535,1.9733,1.9773,1.9947,2.0308,2.1979,2.2823,0.0,2.4604,2.6147,2.7662,2.82,2.82,2.8337,3.0274,3.0704,3.0528,3.0791,3.0898,3.0898,3.0898,3.0898,3.0898,3.0898,3.0898,3.0996,3.1426,3.1494,3.1738,3.2519,3.2734,3.291,3.3211,3.3347,3.3386,3.3386,3.3386,3.3386,3.3386,3.3386,3.3386,3.3386,3.3386,3.3386,3.3386,3.3386,3.3574,3.3958,3.3997,3.3809,3.3406,3.3386,3.3386,3.3386,3.3386,3.3386,3.3386,3.3386,3.3386,3.3386,3.3386,3.3386,3.3406,3.3789,3.3997,3.4016,3.4316,3.4473,3.4473,3.4473,3.4473,3.4492,3.4551,3.459,3.459,3.4668,3.4707,3.4707,0.0,0.0,0.0,0.0,0.0,0.0,0.0,0.0,0.0,0.0,2.5693,2.5693,2.5693,2.5353,2.4601,0.0,0.0,0.0,0.0,0.0,0.0,2.0501,1.9809,1.9401,1.9401,1.9401,1.9401,1.9401,0.0,1.9401,1.9401,1.9401,1.9401,1.9401,1.9401,1.9481,1.9615,1.9615,1.976,2.001,2.0187,2.0838,2.1842,2.294,2.3871,0.0,2.7591,2.8486,2.8545,2.9412,2.9707,2.9844,3.0645,3.0898,3.0898,3.0898,3.0898,3.0898,3.0898,3.0898,3.0937,3.1172,3.1211,3.1387,3.2031,3.2187,3.2363,3.2988,3.3125,3.3184,3.3347,3.3613,3.375,3.375,3.375,3.3848,3.4062,3.3906,3.3848,3.4062,3.4082,3.4082,3.4082,3.4082,3.418,3.4394,3.4394,3.4316,3.4101,3.4082,3.4082,3.4082,3.4082,3.4082,3.4082,3.4082,3.4082,3.4082,3.4082,3.4082,3.4101,3.4297,3.4394,3.4414,3.4609,3.4707,3.4707,3.4707,3.4707,3.4726,3.4961,3.5059,3.5078,3.5312,3.5391,3.5391,0.0,0.0,0.0,0.0,0.0,0.0,0.0,2.5693,2.5757,2.5835,2.5854,2.5893,2.5971,2.623,0.0,0.0,0.0,0.0,0.0,0.0,0.0,0.0,2.0644,1.9866,1.9866,0.0,0.0,1.9866,1.9866,0.0,0.0,0.0,0.0,0.0,1.9401,1.9562,1.98,1.98,2.0,0.0,0.0,2.2008,2.3307,0.0,0.0,0.0,0.0,3.005,2.9128,3.045,3.0898,3.0898,3.0898,3.0898,3.0898,3.0898,3.0898,3.0898,3.0898,3.0957,3.1094,3.1416,3.1582,3.1855,3.2617,3.2793,3.291,3.3308,3.3464,3.3555,3.3555,3.3906,3.4251,3.4251,3.4251,3.4349,3.4648,3.4414,3.4368,3.4668,3.4707,3.4707,3.4707,3.4707,3.4746,3.4844,3.4922,3.4902,3.4707,3.4707,3.4707,3.4707,3.4707,3.4707,3.4707,3.4707,3.4707,3.4707,3.4707,3.4707,3.4707,3.4805,3.4844,3.4844,3.4941,3.498,3.498,3.498,3.498,3.5019,3.5391,3.5527,3.5566,3.5864,3.5982,3.5982,0.0,0.0,0.0,0.0,0.0,0.0,0.0,2.5693,2.5854,2.6269,2.6328,2.6465,2.683,2.6602,0.0,0.0,0.0,0.0,0.0,0.0,0.0,0.0,0.0,0.0,0.0,0.0,0.0,2.1387,2.1387,0.0,0.0,0.0,0.0,0.0,0.0,1.9562,1.98,1.98,0.0,0.0,0.0,0.0,0.0,0.0,0.0,0.0,0.0,3.0791,3.0704,3.085,3.0898,3.0898,3.0898,3.0898,3.0898,3.0898,3.0898,3.0898,3.0898,3.1172,3.1435,3.1474,3.1816,3.2257,3.2695,3.2793,3.291,3.3308,3.373,3.4055,3.4055,3.4355,3.4648,3.4648,3.4648,3.4648,3.4687,3.4668,3.4648,3.4687,3.4707,3.4707,3.4707,3.4707,3.4883,3.5293,3.5684,3.5547,3.4746,3.4707,3.4707,3.4707,3.4707,3.4707,3.4707,3.4707,3.4707,3.4707,3.4707,3.4707,3.4707,3.5137,3.5332,3.5351,3.5742,3.5864,3.5864,3.5864,3.5864,3.5864,3.5937,3.5923,3.5942,3.5982,3.5982,3.5982,0.0,0.0,0.0,0.0,0.0,0.0,0.0,2.6323,2.6537,2.6738,2.6758,2.6934,2.7363,2.7291,2.7079,0.0,0.0,0.0,0.0,0.0,0.0,0.0,0.0,0.0,0.0,0.0,2.2476,2.1614,2.1614,0.0,0.0,0.0,0.0,0.0,0.0,2.2615,2.2878,2.3181,0.0,0.0,0.0,0.0,0.0,0.0,0.0,0.0,0.0,0.0,3.0898,3.0898,3.0898,3.0898,3.0898,3.0898,3.0898,3.0898,3.0898,3.0937,3.1191,3.1387,3.1641,3.2148,3.2422,3.2656,3.3066,3.3164,3.3301,3.373,3.3977,3.4192,3.4394,3.4824,3.5117,3.5117,3.5117,3.5215,3.5449,3.5273,3.5215,3.5469,3.5488,3.5488,3.5488,3.5488,3.5566,3.5762,3.5918,3.5859,3.5508,3.5488,3.5488,3.5488,3.5488,3.5488,3.5488,3.5488,3.5488,3.5488,3.5488,3.5488,3.5508,3.5684,3.5762,3.5781,3.5937,3.5982,3.5982,3.5982,3.5982,3.5982,3.5982,3.5982,3.5982,3.5982,3.5982,3.5982,0.0,0.0,0.0,0.0,0.0,0.0,2.6582,2.6836,2.707,2.7187,2.7207,2.7383,2.7839,2.7878,2.7878,2.7878,0.0,0.0,0.0,0.0,0.0,0.0,0.0,0.0,0.0,0.0,2.3961,2.2927,2.2927,2.2927,0.0,0.0,2.2877,2.4031,0.0,0.0,0.0,0.0,0.0,0.0,0.0,0.0,0.0,0.0,0.0,0.0,0.0,0.0,0.0,0.0,0.0,3.0898,3.0898,3.0976,3.1055,3.0918,3.0976,3.1133,3.1416,3.1699,3.2031,3.2637,3.2891,3.3066,3.3359,3.3516,3.3691,3.4036,3.431,3.4551,3.4844,3.5273,3.5586,3.5586,3.5586,3.5684,3.5942,3.5762,3.5684,3.5996,3.5982,3.5982,3.5982,3.5982,3.5982,3.5982,3.5982,3.5982,3.5982,3.5982,3.5982,3.5982,3.5982,3.5982,3.5982,3.5982,3.5982,3.5982,3.5982,3.5982,3.5982,3.5982,3.5982,3.5982,3.5982,3.5982,3.5982,3.5982,3.5982,3.6001,3.6152,3.6211,3.623,3.6348,3.6387,3.6387,0.0,0.0,0.0,0.0,0.0,0.0,0.0,2.6986,2.7168,2.7624,2.7682,2.7839,2.8242,2.8281,2.8281,2.8281,0.0,0.0,0.0,0.0,0.0,0.0,0.0,0.0,0.0,0.0,2.6073,2.6045,2.6045,2.6045,2.6018,2.4488,2.402,2.448,0.0,0.0,0.0,0.0,0.0,0.0,0.0,0.0,3.0898,0.0,0.0,0.0,0.0,0.0,0.0,0.0,0.0,0.0,0.0,3.1172,3.1426,3.1016,3.1191,3.1474,3.1494,3.2129,3.2793,3.2793,3.3105,3.3386,3.3386,3.375,3.4095,3.4114,3.4798,3.5391,3.5391,3.5723,3.5982,3.5982,3.5982,3.6016,3.5982,3.6016,3.6016,3.5982,3.5982,3.5982,3.5982,3.5982,3.5982,3.5982,3.5982,3.5982,3.5982,3.5982,3.5982,3.5982,3.5982,3.5982,3.5982,3.5982,3.5982,3.5982,3.5982,3.5982,3.5982,3.5982,3.5982,3.5982,3.5982,3.5982,3.5982,3.5982,3.5982,3.6055,3.6484,3.6695,3.6753,3.7129,3.7285,3.7285,0.0,0.0,0.0,0.0,0.0,0.0,0.0,2.7695,2.793,2.8093,2.8112,2.8171,2.8281,2.8301,2.8301,2.8301,0.0,0.0,0.0,0.0,0.0,0.0,0.0,0.0,0.0,0.0,2.7114,2.61,2.61,2.61,2.6091,2.5608,2.6152,2.7512,2.7847,2.8275,0.0,0.0,0.0,0.0,2.9903,3.0421,3.0898,0.0,0.0,0.0,0.0,0.0,0.0,0.0,0.0,0.0,0.0,0.0,0.0,3.1749,3.1885,3.2031,3.2305,3.2578,3.2871,3.3144,3.332,3.3464,3.3809,3.3997,3.4271,3.4877,3.5195,3.5488,3.5762,3.5903,3.5982,3.5982,3.5982,3.5982,3.5982,3.5982,3.5982,3.5982,3.5982,3.5982,3.5982,3.5982,3.5982,3.5982,3.6289,3.6465,3.6465,3.6738,3.6621,3.6001,3.5982,3.5982,3.5982,3.5982,3.5982,3.5982,3.5982,3.6172,3.6465,3.6465,3.6621,3.6894,3.6894,3.6894,3.6894,3.6894,3.6894,3.6914,3.7051,3.709,3.7109,3.7246,3.7305,3.7305,0.0,0.0,0.0,0.0,0.0,0.0,0.0,2.8151,2.8301,2.8301,2.8301,2.8301,2.8301,2.8301,2.8301,2.8301,0.0,0.0,0.0,0.0,0.0,0.0,0.0,0.0,0.0,2.8301,2.7833,2.6933,2.6933,2.6925,2.6943,2.7074,2.7866,2.918,2.9609,3.0059,0.0,0.0,0.0,0.0,3.0898,3.0898,3.0898,0.0,0.0,0.0,0.0,0.0,0.0,0.0,0.0,0.0,0.0,0.0,0.0,0.0,3.2519,3.2656,3.2773,3.291,3.3105,3.3328,3.3386,3.3535,3.3997,3.4231,3.4544,3.5234,3.5527,3.5703,3.5942,3.5982,3.5982,3.5982,3.5982,3.5982,3.5982,3.5982,3.5982,3.5982,3.6172,3.6269,3.6269,3.6406,3.6504,3.6504,3.6758,3.6949,3.6949,3.7148,3.7051,3.6523,3.6504,3.6504,3.6504,3.6504,3.6504,3.6504,3.6504,3.6641,3.6949,3.6949,3.7051,3.7305,3.7305,3.7305,0.0,3.7305,3.7305,3.7324,3.748,3.7539,3.7559,3.7715,3.7773,3.7773,0.0,0.0,0.0,0.0,0.0,0.0,0.0,0.0,0.0,0.0,2.8301,2.8301,2.8301,2.8301,2.8301,0.0,0.0,0.0,0.0,0.0,0.0,0.0,0.0,0.0,0.0,2.8301,2.8301,2.8301,2.8301,2.8301,2.834,2.873,2.916,2.9657,3.0019,3.0449,0.0,0.0,0.0,0.0,3.0898,3.0898,0.0,0.0,0.0,0.0,0.0,0.0,0.0,0.0,0.0,0.0,0.0,0.0,0.0,0.0,0.0,0.0,0.0,3.3125,3.3386,3.3386,3.3406,3.3574,3.4055,3.4453,0.0,3.5351,3.5742,3.5982,3.5982,3.5982,3.5982,3.5982,3.5982,3.5982,3.5982,3.6021,3.604,3.6079,3.6465,3.6753,3.6753,3.707,3.7305,3.7305,3.7324,3.7344,3.7344,3.7363,3.7383,3.7383,3.7383,3.7363,3.7305,3.7305,3.7305,3.7305,3.7305,3.7305,3.7344,3.7344,3.7363,3.7383,3.7383,3.7383,3.7383,3.7383,3.7383,3.7422,3.7812,3.7933,3.7991,3.8418,3.8611,3.8611,0.0,0.0,0.0,0.0,0.0,0.0,0.0,0.0,0.0,0.0,0.0,2.8301,2.8301,2.8301,0.0,0.0,0.0,0.0,0.0,0.0,0.0,0.0,0.0,0.0,0.0,2.8301,2.8301,2.8301,2.8301,2.8457,2.8742,2.884,2.9316,3.0059,3.0156,3.0449,0.0,0.0,0.0,0.0,3.0898,3.0898,0.0,0.0,0.0,0.0,3.0898,3.0898,0.0,0.0,0.0,0.0,0.0,0.0,0.0,0.0,3.334,3.3367,3.3269,0.0,3.3386,3.3386,3.3672,3.4023,0.0,3.4902,3.5351,3.5781,3.5923,3.5982,3.5982,3.5982,3.5982,3.5982,3.5982,3.5982,3.5982,3.6309,3.6641,3.6953,3.709,3.7148,3.7148,3.7246,3.7305,3.7305,3.7598,3.7773,3.7773,3.8086,3.8281,3.8281,3.8281,3.7949,3.7305,3.7305,3.7305,3.7305,3.7305,3.7461,3.7773,3.7773,3.7949,3.8281,3.8281,3.8281,3.8281,3.8281,3.8281,3.8281,3.8379,3.8418,3.8437,3.8571,3.8611,3.8611,0.0,0.0,0.0,0.0,0.0,0.0,0.0,0.0,0.0,0.0,0.0,0.0,0.0,0.0,0.0,0.0,0.0,0.0,0.0,0.0,0.0,0.0,0.0,0.0,2.8301,2.8301,2.8301,2.8301,2.8476,2.8691,2.8898,2.9316,2.9746,3.0215,3.043,0.0,0.0,0.0,3.0898,3.0898,3.0898,0.0,0.0,0.0,0.0,0.0,3.0898,3.1016,0.0,3.1445,3.1777,3.2187,0.0,0.0,0.0,0.0,3.3386,3.3386,3.3386,3.3386,3.3445,3.3672,3.3887,3.4271,3.4883,3.5215,3.5508,3.5937,3.5982,3.5982,3.5982,3.5982,3.6094,3.6289,3.6309,3.6387,3.6582,3.6816,3.7051,3.7266,3.7461,3.7578,3.7578,3.7773,3.7891,3.7891,3.8086,3.8223,3.8223,3.8437,3.8611,3.8611,3.8611,3.8359,3.7891,3.7891,3.7891,3.7891,3.7891,3.8008,3.8223,3.8223,3.8359,3.8611,3.8611,3.8611,3.8611,3.8611,3.8611,3.8611,3.8611,3.8611,3.8611,3.8611,3.8611,3.8611,0.0,0.0,0.0,0.0,0.0,0.0,0.0,0.0,0.0,0.0,0.0,0.0,0.0,0.0,0.0,0.0,0.0,0.0,0.0,0.0,0.0,0.0,0.0,2.8301,2.8301,2.8301,2.832,2.8398,2.875,2.8957,2.9094,2.9863,3.0234,3.0312,3.0723,0.0,0.0,3.0898,3.0898,3.0898,3.0898,0.0,0.0,0.0,0.0,0.0,0.0,0.0,0.0,3.163,3.2187,3.2812,3.2871,0.0,0.0,0.0,0.0,0.0,3.3496,3.3516,3.3613,3.4016,3.4212,3.4505,3.5215,3.5449,3.5586,3.5937,3.5982,3.5982,3.5982,3.6074,3.623,3.6656,3.6753,3.6914,3.7324,3.7402,3.7422,3.748,3.7812,3.8027,3.8027,3.8359,3.8611,3.8611,3.8611,3.8611,3.8611,3.8611,3.8611,3.8611,3.8611,3.8611,3.8611,3.8611,3.8611,3.8611,3.8611,3.8611,3.8611,3.8611,3.8611,3.8611,3.8611,3.8611,3.8611,3.8611,3.8611,3.8611,3.8611,3.8611,3.8611,3.8611,3.8611,3.8611,0.0,0.0,0.0,0.0,0.0,0.0,0.0,0.0,0.0,0.0,0.0,0.0,0.0,0.0,0.0,0.0,0.0,0.0,0.0,0.0,0.0,0.0,2.8301,2.8301,2.8301,2.8301,2.8476,2.8828,2.8859,2.9297,3.0,3.0137,3.041,3.0781,3.0859,3.0898,3.0898,3.0898,3.0898,3.0898,3.0898,0.0,0.0,0.0,0.0,0.0,0.0,0.0,0.0,3.2363,3.2676,3.2851,3.3203,0.0,0.0,0.0,0.0,0.0,3.3867,3.3997,3.4016,3.4095,3.4629,3.5234,3.5371,3.5664,3.5937,3.5982,3.5982,3.5982,3.5982,3.6328,3.6636,3.6695,3.7007,3.7344,3.7738,3.7832,3.7969,3.834,3.8437,3.8476,3.8476,3.8571,3.8611,3.8611,3.8611,3.8611,3.8611,3.8611,3.8611,3.8611,3.8611,3.8611,3.8611,3.8611,3.8611,3.8611,3.8611,3.8611,3.8611,3.8611,3.8611,3.8611,3.8611,3.8611,3.8611,3.8611,3.8611,3.8611,3.8611,3.8611,3.8611,3.8611,3.8611,3.8611,0.0,0.0,0.0,0.0,0.0,0.0,0.0,0.0,0.0,0.0,0.0,0.0,0.0,0.0,0.0,0.0,0.0,0.0,0.0,0.0,0.0,2.8301,2.8516,2.8516,2.8301,2.8516,2.8703,2.8898,2.9375,2.9805,3.0195,3.0449,3.0684,3.0898,3.0898,3.0898,3.0898,3.0898,3.0898,3.0898,0.0,0.0,0.0,0.0,0.0,0.0,0.0,0.0,0.0,0.0,3.2949,3.3164,3.3328,0.0,0.0,0.0,0.0,0.0,3.4055,3.4446,3.4785,3.4785,3.5098,3.5449,3.5684,3.5879,3.5982,3.5982,3.5982,3.5982,3.5982,3.6367,3.6851,3.7266,3.7715,3.8066,3.8242,3.8281,3.8359,3.8591,3.8611,3.8611,3.8611,3.8611,3.8611,3.8611,3.8611,3.8611,3.8611,3.8611,3.8611,3.8611,3.8611,3.8611,3.8611,3.8611,3.8611,3.8611,3.8611,3.8611,3.8611,3.8611,3.8611,3.8611,3.8611,3.8611,3.8611,3.8611,3.8611,3.8611,3.8611,3.8611,3.865,3.8828,3.9062,3.9297,0.0,0.0,0.0,0.0,0.0,0.0,0.0,0.0,0.0,0.0,0.0,0.0,0.0,0.0,0.0,0.0,0.0,0.0,0.0,0.0,2.8437,2.8437,2.8848,2.8867,2.8437,2.8848,2.9121,2.9191,2.9883,3.0254,3.0371,3.0723,3.0898,3.0898,3.0898,3.0898,3.0898,3.0898,3.0898,3.0898,0.0,0.0,0.0,0.0,0.0,0.0,0.0,0.0,0.0,0.0,0.0,0.0,0.0,0.0,0.0,3.3574,3.3887,3.4335,3.4834,3.5192,3.551,3.6023,3.5829,3.5625,3.5937,3.5982,3.5982,3.5982,3.5982,3.6021,3.6152,3.6601,3.7207,3.7949,3.8359,3.8611,3.8611,3.8611,3.8611,3.8611,3.8611,3.8611,3.8611,3.8611,3.8611,3.8611,3.8611,3.8611,3.8611,3.8611,3.8611,3.8611,3.8611,3.865,3.873,3.873,3.8708,3.8611,3.8611,3.8611,3.8611,3.8611,3.8611,3.8611,3.8708,3.873,3.8767,3.8884,3.8887,3.8887,3.8887,3.8887,3.8926,3.9238,3.959,3.9902,0.0,0.0,0.0,0.0,0.0,0.0,0.0,0.0,0.0,0.0,0.0,0.0,0.0,0.0,0.0,0.0,0.0,0.0,0.0,0.0,2.884,2.884,2.9297,2.9316,2.8859,2.9297,2.9735,3.0098,3.0176,3.041,3.084,3.0879,3.0898,3.0898,3.0898,3.0898,3.0898,3.0898,3.0898,3.0898,3.0898,0.0,0.0,0.0,0.0,0.0,0.0,0.0,0.0,0.0,0.0,0.0,0.0,0.0,3.4055,3.4055,3.4349,3.5087,3.708,3.6532,3.587,3.7877,3.7132,3.5942,3.5982,3.5982,3.5982,3.5982,3.5982,3.6152,3.6577,3.7285,3.7988,3.8493,3.8591,3.8611,3.8611,3.8611,3.8611,3.8611,3.8611,3.8611,3.8611,3.8611,3.8611,3.8611,3.8611,3.8611,3.8611,3.8611,3.8611,3.8611,3.8611,3.8769,3.9141,3.916,3.8965,3.8611,3.8611,3.8611,3.8611,3.8611,3.8611,3.863,3.8984,3.916,3.9199,3.9629,3.9805,3.9805,3.9805,3.9805,3.9805,3.9824,3.9863,3.9902,0.0,0.0,0.0,0.0,0.0,0.0,0.0,0.0,0.0,0.0,0.0,0.0,0.0,0.0,0.0,0.0,0.0,0.0,0.0,0.0,2.9043,2.9316,2.9726,2.9883,2.9707,2.9883,3.0039,3.0195,3.0488,3.0723,3.0898,3.0898,3.0898,3.0898,3.0898,3.0898,3.0898,3.0898,3.0898,3.0918,3.1172,3.1269,0.0,0.0,0.0,0.0,0.0,0.0,0.0,0.0,3.3386,3.3445,3.375,3.3977,3.4153,3.4394,3.5531,3.6885,3.7668,3.844,3.9184,4.0007,3.8894,3.7341,3.6253,3.7675,3.8681,3.6827,3.7277,3.7867,3.7516,3.7715,3.8066,3.8496,3.8611,3.8611,3.8611,3.8611,3.8611,3.8611,3.8611,3.8611,3.8611,3.8611,3.8611,3.8611,3.8611,3.8728,3.8945,3.8965,3.9101,3.9394,3.9394,3.9473,3.9629,3.9629,3.9551,3.9394,3.9394,3.9394,3.9394,3.9394,3.9394,3.9414,3.957,3.9629,3.9648,3.9824,3.9902,3.9902,3.9902,4.0059,4.0273,4.0273,4.0449,4.0684,0.0,0.0,0.0,0.0,0.0,0.0,0.0,0.0,0.0,0.0,0.0,0.0,0.0,0.0,0.0,0.0,0.0,0.0,0.0,2.9486,2.9453,2.9794,3.0204,3.041,3.041,3.041,3.041,3.041,3.0742,3.0898,3.0898,3.0898,3.0898,3.0898,3.0898,3.0898,3.0898,3.0898,3.0957,3.1172,3.1928,3.2058,0.0,0.0,0.0,0.0,0.0,0.0,0.0,0.0,3.3516,3.3691,3.4016,3.429,3.4662,3.5473,3.6464,3.7645,3.9292,3.9628,3.9953,4.1597,4.0698,3.9146,3.814,3.9304,4.0016,3.7915,3.8199,3.8598,3.8027,3.8027,3.8223,3.8571,3.8611,3.8611,3.8611,3.8611,3.8611,3.8611,3.8611,3.8611,3.8611,3.8611,3.8669,3.8769,3.8769,3.8965,3.9394,3.9414,3.957,3.9883,3.9902,3.9961,4.0098,4.0098,4.0156,4.0293,4.0293,4.0156,3.9902,3.9902,3.9902,3.9902,4.0039,4.0098,4.0098,4.0234,4.0293,4.0293,4.0293,4.0469,4.0723,4.0723,4.0918,4.1211,0.0,0.0,0.0,0.0,0.0,0.0,0.0,0.0,0.0,0.0,0.0,0.0,0.0,0.0,0.0,0.0,0.0,0.0,3.1644,3.0794,3.0224,3.0224,3.0673,3.0908,3.0908,3.0928,3.0898,3.0898,3.0898,3.0898,3.0898,3.0898,3.0898,3.0898,3.0898,3.0898,3.0898,3.0928,3.1133,3.1623,3.3269,3.3234,3.242,0.0,0.0,0.0,0.0,0.0,0.0,0.0,3.3711,3.4114,3.4114,3.4687,3.5738,3.7405,3.7029,3.7159,4.2305,3.9986,3.7307,4.2431,4.2454,4.138,4.1938,4.0704,3.9424,3.9256,3.8546,3.793,3.7894,3.8281,3.8611,3.8611,3.8611,3.8611,3.8611,3.8611,3.8611,3.8611,3.8611,3.8611,3.8611,3.8611,3.875,3.918,3.9199,3.9414,3.9883,3.9902,3.9902,3.9902,3.9902,4.0098,4.0489,4.0489,4.0742,4.1211,4.1211,4.0761,3.9902,3.9902,3.9902,3.9922,4.0351,4.0489,4.0528,4.0996,4.1211,4.1211,4.1211,4.1211,4.1211,4.1211,4.1211,4.1211,0.0,0.0,0.0,0.0,0.0,0.0,0.0,0.0,0.0,0.0,0.0,0.0,0.0,0.0,0.0,0.0,0.0,0.0,3.073,3.1348,3.1889,3.2218,3.2362,3.2444,3.2444,3.1441,3.0898,3.0898,3.0898,3.0898,3.0898,3.0898,3.0898,3.0898,3.0898,3.0898,3.0986,3.2409,3.2437,3.1801,3.5139,3.4939,3.2821,0.0,0.0,0.0,0.0,0.0,0.0,0.0,0.0,0.0,3.4902,3.5176,3.5797,3.7798,3.8117,3.8696,4.2643,4.2557,4.2083,4.4859,4.4539,4.3859,4.5271,4.5201,4.4292,4.246,4.1135,3.9882,3.8632,3.9558,4.0085,3.8809,3.8611,3.8611,3.8611,3.8611,3.8611,3.8611,3.8611,3.8611,3.8611,3.8848,3.9062,3.9199,3.9512,3.9883,4.0312,4.0332,4.0469,4.0781,4.0801,4.0859,4.0976,4.0976,4.1035,4.1211,4.1211,4.1074,4.0801,4.0801,4.0801,4.0801,4.0918,4.0976,4.0996,4.1152,4.1211,4.1211,4.1211,4.1211,4.1211,4.1211,4.1211,4.1211,0.0,0.0,0.0,0.0,0.0,0.0,0.0,0.0,0.0,0.0,0.0,0.0,0.0,0.0,0.0,0.0,0.0,0.0,0.0,0.0,3.3064,3.3957,3.3957,3.3957,3.3957,3.253,3.1767,3.1767,3.1199,3.1199,3.1767,3.117,3.1228,3.1738,3.117,3.0976,3.127,3.3116,3.3153,3.2323,3.609,3.614,3.4185,0.0,0.0,0.0,0.0,0.0,0.0,0.0,0.0,0.0,3.6083,3.6057,3.6302,3.9639,3.966,3.9497,4.3638,4.3731,4.3341,4.5974,4.5575,4.5109,4.7284,4.7196,4.607,4.4052,4.2375,4.0992,3.989,3.9998,3.9854,3.8793,3.8611,3.8611,3.8611,3.8611,3.8611,3.8611,3.873,3.8828,3.8828,3.9219,3.9551,3.9707,3.998,4.0332,4.0762,4.0781,4.0898,4.1211,4.1211,4.1211,4.1211,4.1211,4.1211,4.1211,4.1211,4.1211,4.1211,4.1211,4.1211,4.1211,4.1211,4.1211,4.1211,4.1211,4.1211,4.1211,4.1211,4.1211,4.1211,4.1211,4.1211,4.1211,0.0,0.0,0.0,0.0,0.0,0.0,0.0,0.0,0.0,0.0,3.1173,0.0,0.0,0.0,0.0,0.0,0.0,0.0,0.0,0.0,3.4097,3.5453,3.5508,3.5508,3.5508,3.4041,3.3304,3.3304,3.1825,3.171,3.2879,3.1652,3.1845,3.3112,3.1616,3.126,3.189,3.3547,3.3779,3.3298,3.655,3.714,3.6173,3.77,0.0,0.0,0.0,0.0,0.0,0.0,0.0,0.0,3.7467,3.7261,3.7441,4.2273,4.1383,3.9921,4.4994,4.4013,4.2417,4.6205,4.6066,4.5612,4.8054,4.7417,4.5946,4.4619,4.2849,4.1503,4.1326,3.9962,3.8773,3.8647,3.8611,3.8611,3.8611,3.8611,3.863,3.8669,3.8965,3.9219,3.9258,3.9687,4.0117,4.045,4.0566,4.0762,4.1191,4.1211,4.1211,4.1211,4.1211,4.1211,4.1211,4.1211,4.1211,4.1211,4.1211,4.1211,4.1211,4.1211,4.1211,4.1211,4.1211,4.1211,4.1211,4.1211,4.1211,4.1211,4.1211,4.1211,4.1211,4.1211,4.1211,4.1211,0.0,0.0,0.0,0.0,0.0,0.0,0.0,0.0,0.0,0.0,0.0,0.0,0.0,0.0,0.0,0.0,0.0,0.0,0.0,0.0,3.6703,3.6999,3.7026,3.7026,3.7026,3.559,3.482,3.482,3.336,3.2207,3.1383,3.2236,3.303,3.366,3.2085,3.2295,3.3962,3.5969,3.5986,3.4995,3.8527,3.9049,3.779,3.8529,3.8594,0.0,0.0,0.0,0.0,0.0,0.0,0.0,3.834,3.9203,4.0569,4.2989,4.2264,4.1559,4.5767,4.54,4.4436,4.7085,4.7808,4.7774,4.7327,4.8077,4.8322,4.6599,4.4778,4.3057,4.1573,4.0992,4.0264,3.8809,3.8611,3.8611,3.8611,3.8611,3.8728,3.9023,3.9141,3.9336,3.9707,4.0137,4.043,4.0469,4.084,4.1074,4.1211,4.1211,4.1211,4.1211,4.1211,4.1211,4.1211,4.1211,4.1211,4.1211,4.1211,4.1211,4.1211,4.1211,4.1211,4.1211,4.1211,4.1211,4.1211,4.1211,4.1211,4.1211,4.1211,4.1211,4.1211,4.1211,4.1211,4.1211,0.0,0.0,0.0,0.0,0.0,0.0,0.0,0.0,0.0,0.0,0.0,0.0,0.0,0.0,0.0,0.0,0.0,0.0,0.0,0.0,0.0,3.853,3.7875,3.7822,3.8556,3.6406,3.5645,3.6352,3.5844,3.4706,0.0,3.4053,3.4686,3.4897,3.3534,3.4063,3.6019,3.6339,3.6497,3.6736,3.7851,3.8894,3.959,3.8296,3.8416,3.9358,3.9797,0.0,0.0,0.0,0.0,0.0,0.0,0.0,4.0678,4.4259,4.4143,4.3512,4.665,4.6805,4.6466,4.7939,4.8736,4.8989,4.8306,4.8191,4.7994,4.7022,4.5355,4.3784,4.2836,4.1205,3.9998,3.9926,3.9172,3.8611,3.8611,3.8787,3.8965,3.918,3.957,3.9922,4.0176,4.0586,4.084,4.084,4.1035,4.1211,4.1211,4.1211,4.1211,4.1211,4.1211,4.1211,4.1211,4.1211,4.1211,4.1211,4.1211,4.1211,4.1211,4.1211,4.1211,4.1211,4.1211,4.1211,4.1211,4.1211,4.1211,4.1211,4.1211,4.1211,4.1211,4.1211,4.1211,4.1211,0.0,0.0,0.0,0.0,0.0,0.0,0.0,0.0,0.0,0.0,0.0,0.0,0.0,0.0,0.0,0.0,0.0,0.0,0.0,0.0,0.0,3.9645,3.853,3.8321,3.931,3.7183,3.6588,3.7649,3.8344,0.0,0.0,0.0,0.0,3.6719,3.5577,3.6187,3.7998,3.6408,3.675,3.8156,3.6575,3.8174,4.1194,3.8297,3.8457,4.0315,4.072,3.9856,3.8755,4.0598,0.0,0.0,0.0,0.0,4.0605,4.5635,4.6198,4.5593,4.7508,4.8134,4.8309,4.8818,4.9264,4.959,4.959,4.8158,4.6798,4.6798,4.5355,4.4013,4.3703,4.1134,3.9442,4.0636,3.9586,3.863,3.8708,3.8984,3.9258,3.9414,4.0078,4.0508,4.0625,4.0957,4.1211,4.1211,4.1211,4.1211,4.1211,4.1211,4.1211,4.1211,4.1211,4.1211,4.1211,4.1211,4.1211,4.1211,4.1211,4.1211,4.1211,4.1211,4.1211,4.1211,4.1211,4.1211,4.1211,4.1211,4.1211,4.1211,4.1211,4.1211,4.1211,4.1211,4.1211,4.1211,0.0,0.0,0.0,0.0,0.0,0.0,0.0,0.0,0.0,0.0,0.0,0.0,0.0,0.0,0.0,0.0,0.0,0.0,3.9697,0.0,0.0,3.9697,3.9491,3.8921,3.7822,3.8661,3.8802,3.8197,0.0,0.0,0.0,0.0,0.0,3.9391,0.0,3.8306,4.0098,3.8467,3.8193,3.8661,3.7057,3.8675,0.0,0.0,0.0,4.2532,4.305,4.2149,4.0803,4.1094,4.1052,0.0,0.0,0.0,4.4231,4.6464,4.7245,4.7627,4.8479,4.9012,4.9389,4.9464,4.954,4.959,4.959,4.8158,4.6798,4.6798,4.5355,4.3599,4.1961,4.1255,4.0514,3.9188,3.8756,3.8728,3.9062,3.916,3.9492,4.0254,4.0449,4.0664,4.1093,4.1172,4.1211,4.1211,4.1211,4.1211,4.1211,4.1211,4.1211,4.1211,4.1211,4.1211,4.1211,4.1211,4.1211,4.1211,4.1211,4.1211,4.1211,4.1211,4.1211,4.1211,4.1211,4.1211,4.1211,4.1211,4.1211,4.1211,4.1211,4.1211,4.1211,4.1211,4.1211,4.1211,0.0,0.0,0.0,0.0,0.0,0.0,0.0,0.0,0.0,0.0,0.0,0.0,0.0,0.0,0.0,3.9697,3.9697,3.9697,3.9697,3.9697,3.9697,3.9697,3.8921,3.8556,3.8739,3.8849,3.9118,3.9523,0.0,0.0,0.0,4.1124,4.0832,0.0,0.0,0.0,0.0,3.8575,3.8942,4.1371,3.8208,3.9781,0.0,0.0,0.0,0.0,0.0,4.102,4.1258,4.1559,4.2317,4.3449,4.5452,0.0,0.0,0.0,4.8209,4.851,4.9088,4.9414,4.959,4.959,4.959,4.9307,4.8257,4.7386,4.6498,4.5491,4.4641,4.3875,4.3023,4.2031,4.1063,4.0228,3.946,3.8984,3.918,3.9629,4.0078,4.043,4.0742,4.0957,4.1191,4.1211,4.1211,4.1211,4.1211,4.1211,4.1211,4.1211,4.1211,4.1211,4.1211,4.1211,4.1211,4.1211,4.1211,4.1211,4.1211,4.1211,4.1211,4.1211,4.1211,4.1211,4.1211,4.1211,4.1211,4.1211,4.1211,4.1211,4.1211,4.1211,4.1211,4.1211,4.1211,4.1211,0.0,0.0,0.0,0.0,0.0,0.0,0.0,0.0,0.0,0.0,0.0,0.0,0.0,0.0,0.0,0.0,3.9697,3.9697,3.9697,3.9697,3.9697,3.9697,3.8783,3.8778,3.9872,3.9342,3.9685,0.0,0.0,0.0,4.2386,4.2398,4.1889,0.0,4.0036,4.0695,0.0,0.0,0.0,0.0,0.0,0.0,0.0,0.0,0.0,0.0,0.0,0.0,0.0,0.0,4.41,4.5182,4.7259,4.6858,0.0,0.0,0.0,4.9095,4.949,4.959,4.959,4.959,4.959,4.9242,4.7806,4.7154,4.6532,4.5683,4.4767,4.4116,4.4116,4.2591,4.1155,4.0837,3.9898,3.9277,3.9512,4.0098,4.0528,4.0684,4.0976,4.1211,4.1211,4.1211,4.1211,4.1211,4.1211,4.1211,4.1211,4.1211,4.1211,4.1211,4.1211,4.1211,4.1211,4.1211,4.1211,4.1211,4.1211,4.1211,4.1211,4.1211,4.1211,4.1211,4.1211,4.1211,4.1211,4.1211,4.1211,4.1211,4.1211,4.1211,4.1211,4.1211,4.1211,4.1211,0.0,0.0,0.0,0.0,0.0,0.0,0.0,0.0,0.0,0.0,0.0,0.0,0.0,0.0,3.9697,3.9697,3.9697,3.9697,3.9697,3.9697,3.9697,3.9697,4.0121,0.0,4.0449,4.0896,4.1474,4.2112,0.0,0.0,4.2936,4.1419,4.1743,4.3601,4.354,4.2688,4.1323,0.0,0.0,0.0,0.0,0.0,0.0,0.0,0.0,0.0,0.0,0.0,0.0,0.0,0.0,4.567,4.7358,4.7103,4.6527,0.0,0.0,0.0,4.959,4.959,4.959,4.959,4.959,4.9558,4.9493,4.8093,4.7287,4.8983,4.6546,4.4116,4.4116,4.2591,4.0852,3.9524,3.9254,3.9492,4.0332,4.045,4.0684,4.1094,4.1211,4.1211,4.1211,4.1211,4.1211,4.1211,4.1211,4.1211,4.1211,4.1211,4.1211,4.1211,4.1211,4.1211,4.1211,4.1211,4.1211,4.1211,4.1211,4.1211,4.1211,4.1211,4.1211,4.1211,4.1211,4.1211,4.1211,4.1211,4.1211,4.1211,4.1211,4.1211,4.1211,4.1211,4.1211,4.1211,0.0,0.0,0.0,0.0,0.0,0.0,0.0,0.0,0.0,0.0,0.0,0.0,0.0,3.9697,3.9697,3.9697,3.9697,3.9697,3.9697,4.0023,4.0224,4.0224,4.0725,4.1026,4.1026,4.158,4.1984,4.2213,4.2537,4.2813,4.2986,4.2776,4.2454,4.2137,4.222,4.2676,4.3335,4.2868,0.0,0.0,0.0,0.0,0.0,0.0,0.0,0.0,0.0,0.0,0.0,0.0,0.0,0.0,0.0,0.0,4.8498,4.9128,4.9439,4.959,4.959,4.959,4.959,4.959,4.8673,4.7806,4.7806,4.7287,4.6665,4.6154,4.5929,4.521,4.3122,4.2195,4.1204,3.9493,3.9687,4.0118,4.0469,4.0762,4.0996,4.1191,4.1211,4.1211,4.1211,4.1211,4.1211,4.1211,4.1211,4.1211,4.1211,4.1211,4.1211,4.1211,4.1211,4.1211,4.1211,4.1211,4.1211,4.1211,4.1211,4.1211,4.1211,4.1211,4.1211,4.1211,4.1211,4.1211,4.1211,4.1211,4.1211,4.1211,4.1211,4.1211,4.1211,4.1211,4.1211,4.1211,0.0,0.0,0.0,0.0,0.0,0.0,0.0,0.0,0.0,0.0,0.0,0.0,0.0,0.0,3.9697,3.9697,3.9873,3.9973,3.9973,4.0449,4.0775,4.0775,4.1302,4.1605,4.1605,4.1984,4.2313,4.2462,4.2838,4.309,4.3291,4.3815,4.3565,4.2665,4.2724,4.2917,0.0,0.0,0.0,4.4856,0.0,0.0,4.6572,0.0,0.0,0.0,0.0,0.0,0.0,0.0,0.0,0.0,0.0,0.0,0.0,4.959,4.959,4.959,4.959,4.959,4.959,4.959,4.864,4.774,4.774,4.774,4.7458,4.6422,4.6681,4.6315,4.3684,4.281,4.1865,3.9965,4.0137,4.0586,4.0723,4.0996,4.1211,4.1211,4.1211,4.1211,4.1211,4.1211,4.1211,4.1211,4.1211,4.1211,4.1211,4.1211,4.1211,4.1211,4.1211,4.1211,4.1211,4.1211,4.1211,4.1211,4.1211,4.1211,4.1211,4.1211,4.1211,4.1211,4.1211,4.1211,4.1211,4.1211,4.1211,4.1211,4.1211,4.1211,4.1211,4.1211,4.1211,4.1211,0.0,0.0,0.0,0.0,0.0,0.0,0.0,0.0,0.0,0.0,0.0,0.0,0.0,0.0,0.0,3.9722,4.0224,4.0524,4.0524,4.1026,4.1327,4.1327,4.1882,4.2238,4.2238,4.2263,4.2487,4.3039,4.3039,4.3288,4.384,4.4364,4.4916,4.5413,4.5497,4.3602,4.0653,0.0,4.5312,4.3917,0.0,4.6622,4.7099,0.0,0.0,0.0,4.8592,4.8793,0.0,4.9414,0.0,0.0,0.0,0.0,0.0,0.0,0.0,4.959,0.0,0.0,0.0,4.9615,4.9583,4.9551,4.964,4.9576,4.9661,5.022,4.8922,4.7286,4.5811,4.4445,4.2924,4.0871,4.0508,4.0684,4.1152,4.1211,4.1211,4.1211,4.1211,4.1211,4.1211,4.1211,4.1211,4.1211,4.1211,4.1211,4.1211,4.1211,4.1211,4.1211,4.1211,4.1211,4.1211,4.1211,4.1211,4.1211,4.1211,4.1211,4.1211,4.1211,4.1211,4.1211,4.1211,4.1211,4.1211,4.1211,4.1211,4.1211,4.1211,4.1211,4.1211,4.1211,4.1211,4.1211,0.0,0.0,0.0,0.0,0.0,0.0,0.0,0.0,0.0,0.0,0.0,0.0,0.0,0.0,0.0,4.03,4.0775,4.1076,4.1076,4.163,4.1959,4.1959,4.2487,4.2788,4.2788,4.3165,4.3413,4.3564,4.3966,4.4242,4.4389,4.497,4.4675,4.3693,4.5335,4.4823,4.2903,4.5269,0.0,4.5666,4.6515,4.6973,0.0,0.0,0.0,0.0,0.0,4.8793,4.8894,0.0,4.959,4.959,0.0,0.0,0.0,0.0,0.0,0.0,4.959,0.0,0.0,0.0,0.0,0.0,5.0431,4.8691,4.7154,4.8724,4.8553,4.7295,4.4576,4.4844,4.4473,4.1496,4.0996,4.1035,4.1191,4.1211,4.1211,4.1211,4.1211,4.1211,4.1211,4.1211,4.1211,4.1211,4.1211,4.1211,4.1211,4.1211,4.1211,4.1211,4.1211,4.1211,4.1211,4.1211,4.1211,4.1211,4.1211,4.1211,4.1211,4.1211,4.1211,4.1211,4.1211,4.1211,4.1211,4.1211,4.1211,4.1211,4.1211,4.1211,4.1211,4.1211,4.1211,4.1211,0.0,0.0,0.0,0.0,0.0,0.0,0.0,0.0,0.0,0.0,0.0,0.0,0.0,0.0,0.0,0.0,4.1354,4.1681,4.1681,4.221,4.2537,4.2537,4.3065,4.3313,4.3313,4.3639,4.3915,4.4141,4.4439,4.4715,4.4995,4.5573,4.529,4.4391,4.5953,0.0,0.0,0.0,0.0,0.0,4.7199,0.0,0.0,4.8159,4.841,0.0,0.0,0.0,4.8124,4.9239,4.959,0.0,0.0,0.0,0.0,0.0,0.0,0.0,0.0,0.0,0.0,5.0695,0.0,0.0,5.0997,4.9558,4.8349,4.9723,4.9942,4.8891,4.5567,4.5801,4.5359,4.179,4.1211,4.1211,4.1211,4.1211,4.1211,4.1211,4.1211,4.1211,4.1211,4.1211,4.1211,4.1211,4.1211,4.1211,4.1211,4.1211,4.1211,4.1211,4.1211,4.1211,4.1211,4.1211,4.1211,4.1211,4.1211,4.1211,4.1211,4.1211,4.1211,4.1211,4.1211,4.1211,4.1211,4.1211,4.1211,4.1211,4.1211,4.1211,4.1211,4.1211,4.1211,4.1211,0.0,0.0,0.0,0.0,0.0,0.0,0.0,0.0,0.0,0.0,0.0,0.0,0.0,0.0,0.0,0.0,4.1932,4.2313,4.2313,4.2788,0.0,4.309,4.3589,4.389,4.389,4.394,4.4217,4.469,4.4765,4.507,4.5598,4.6075,4.6351,4.6396,4.6873,0.0,0.0,0.0,0.0,4.7324,4.7832,4.8309,0.0,0.0,4.9163,4.959,4.959,4.851,4.7353,4.9023,4.959,0.0,0.0,0.0,0.0,0.0,5.0436,0.0,0.0,0.0,0.0,0.0,5.1406,0.0,5.1448,5.1314,5.1339,5.2067,5.2006,5.095,4.7872,4.7321,4.613,4.2427,4.1657,4.1463,4.1211,4.1211,4.1211,4.1211,4.1211,4.1211,4.1211,4.1211,4.1211,4.1211,4.1211,4.1211,4.1211,4.1211,4.1211,4.1211,4.1211,4.1211,4.1211,4.1211,4.1211,4.1211,4.1211,4.1211,4.1211,4.1211,4.1211,4.1211,4.1211,4.1211,4.1211,4.1211,4.1211,4.1211,4.1211,4.1211,4.1211,4.1211,4.1211,4.1211,0.0,0.0,0.0,0.0,0.0,0.0,0.0,0.0,0.0,0.0,0.0,0.0,0.0,0.0,0.0,0.0,0.0,0.0,0.0,0.0,4.3639,4.3639,4.4166,4.4439,4.4439,4.492,4.5221,4.5321,4.5773,4.605,4.615,4.625,4.6522,4.6948,4.7048,4.7324,4.7689,0.0,0.0,4.8492,4.8592,0.0,4.8843,4.9264,4.9515,4.959,4.959,4.9339,4.9112,4.9493,4.959,4.9665,0.0,0.0,0.0,0.0,0.0,0.0,0.0,0.0,0.0,0.0,0.0,0.0,5.2468,5.1393,5.0731,5.2419,5.1505,5.022,4.9546,4.9427,4.865,4.6241,4.4548,4.2999,4.1424,4.1211,4.1211,4.1211,4.1211,4.1211,4.1211,4.1211,4.1211,4.1211,4.1211,4.1211,4.1211,4.1211,4.1211,4.1211,4.1211,4.1211,4.1211,4.1211,4.1211,4.1211,4.1211,4.1211,4.1211,4.1211,4.1211,4.1211,4.1211,4.1211,4.1211,4.1211,4.1211,4.1211,4.1211,4.1211,4.1211,4.1211,4.1211,4.1211,0.0,0.0,0.0,0.0,0.0,0.0,0.0,0.0,0.0,0.0,0.0,0.0,0.0,0.0,0.0,0.0,0.0,0.0,0.0,0.0,4.4217,4.4217,4.4744,4.5045,4.5045,4.5623,4.5899,4.5899,4.6175,4.6451,4.6697,4.6697,4.6973,4.75,4.7832,4.8109,4.8297,4.7959,4.8335,4.9099,4.8181,0.0,4.9213,4.949,4.959,4.959,4.959,4.959,4.9461,4.851,4.9001,0.0,0.0,5.0419,5.0594,0.0,5.1473,5.1373,0.0,0.0,0.0,5.2452,0.0,0.0,0.0,5.2154,5.1712,5.2698,5.2119,5.1163,5.0198,4.9997,4.9355,4.7321,4.5388,4.3756,4.2769,4.1792,4.1211,4.1211,4.1211,4.1211,4.1211,4.1211,4.1211,4.1211,4.1211,4.1211,4.1211,4.1211,4.1211,4.1211,4.1211,4.1211,4.1211,4.1211,4.1211,4.1211,4.1211,4.1211,4.1211,4.1211,4.1211,4.1211,4.1211,4.1211,4.1211,4.1211,4.1211,4.1211,4.1211,4.1211,4.1211,4.1211,4.1211,4.1211,0.0,0.0,0.0,0.0,0.0,0.0,0.0,0.0,0.0,0.0,0.0,0.0,0.0,0.0,0.0,0.0,0.0,0.0,0.0,0.0,0.0,4.4765,4.5347,4.5648,4.5648,4.6075,4.6351,4.6446,4.6446,4.6722,4.7249,4.7249,4.7525,4.8083,4.8592,4.8868,4.8962,4.901,4.9274,4.9461,0.0,4.7929,4.959,4.959,4.959,4.959,4.959,4.9665,4.9514,4.8009,4.8861,5.0594,5.0695,5.0996,0.0,0.0,0.0,0.0,0.0,0.0,0.0,0.0,0.0,5.2895,0.0,0.0,0.0,5.2895,5.2895,5.2421,5.0857,5.0551,4.9949,4.8144,4.6367,4.5174,4.4943,4.3408,4.2023,4.1288,4.1211,4.1211,4.1211,4.1211,4.1211,4.1211,4.1211,4.1211,4.1211,4.1211,4.1211,4.1211,4.1211,4.1211,4.1211,4.1211,4.1211,4.1211,4.1211,4.1211,4.1211,4.1211,4.1211,4.1211,4.1211,4.1211,4.1211,4.1211,4.1211,4.1211,4.1211,4.1211,4.1211,4.1211,4.1211,4.1211,3.9697,3.9697,0.0,0.0,0.0,0.0,0.0,0.0,0.0,0.0,0.0,0.0,0.0,0.0,0.0,0.0,0.0,0.0,4.4589,0.0,0.0,0.0,4.5924,4.6225,4.6225,4.6276,4.6522,4.7023,4.7023,4.7274,4.7832,4.7832,4.8134,4.8718,4.8768,4.9069,4.9393,4.7781,4.8093,4.9461,4.7575,4.7929,4.959,4.959,4.959,4.959,4.959,4.9916,5.0285,0.0,5.053,5.1272,0.0,5.1624,5.1498,0.0,0.0,0.0,0.0,0.0,0.0,0.0,5.2895,0.0,0.0,0.0,5.2895,5.2895,0.0,5.2826,5.2594,0.0,0.0,5.1001,4.9985,4.8991,4.7982,4.6974,4.5052,4.1618,4.1211,4.1211,4.1211,4.1211,4.1211,4.1211,4.1211,4.1211,4.1211,4.1211,4.1211,4.1211,4.1211,4.1211,4.1211,4.1211,4.1211,4.1211,4.1211,4.1211,4.1211,4.1211,4.1211,4.1211,4.1211,4.1211,4.1211,4.1211,4.1211,4.1211,4.1211,4.1211,4.1211,4.1211,4.1211,4.1211,0.0,0.0,0.0,0.0,0.0,0.0,0.0,0.0,0.0,0.0,0.0,0.0,0.0,0.0,0.0,0.0,0.0,4.5271,0.0,0.0,0.0,0.0,0.0,0.0,4.6747,4.6747,4.7023,4.755,4.755,4.7857,4.841,4.841,4.8711,4.9238,4.9238,4.9389,4.9558,4.8763,4.8224,4.7994,4.8289,4.8224,4.8093,4.9177,4.9791,5.0067,5.0067,5.0444,5.0921,5.0921,5.1297,0.0,0.0,0.0,0.0,0.0,0.0,0.0,0.0,0.0,0.0,0.0,0.0,0.0,5.2895,0.0,5.2895,5.2895,0.0,0.0,0.0,0.0,0.0,0.0,5.0976,4.9854,4.9367,4.7977,4.6367,4.4774,4.3549,4.2445,4.1327,4.1211,4.1211,4.1211,4.1211,4.1211,4.1211,4.1211,4.1211,4.1211,4.1211,4.1211,4.1211,4.1211,4.1211,4.1211,4.1211,4.1211,4.1211,4.1211,4.1211,4.1211,4.1211,4.1211,4.1211,4.1211,4.1211,4.1211,4.1211,4.1211,4.1211,4.1211,4.1211,4.1211,0.0,0.0,0.0,0.0,0.0,0.0,0.0,0.0,0.0,0.0,0.0,0.0,4.4564,4.4769,0.0,0.0,0.0,4.5874,0.0,0.0,4.6527,0.0,0.0,0.0,0.0,4.7324,4.7575,4.8134,4.8134,4.8435,4.9019,4.9019,4.9245,4.959,4.959,4.959,4.959,4.959,4.8828,4.7674,4.9197,4.9117,4.8176,4.9353,5.0167,5.0645,5.0645,5.1021,5.1498,5.1498,5.1875,5.2327,5.2327,5.2569,5.2895,0.0,0.0,0.0,5.2895,0.0,0.0,0.0,0.0,0.0,0.0,0.0,0.0,0.0,5.2895,0.0,0.0,0.0,5.2795,5.2528,0.0,5.0666,5.0401,4.9345,4.8217,4.7139,4.5276,4.3549,4.2119,4.1502,4.1211,4.1211,4.1211,4.1211,4.1211,4.1211,4.1211,4.1211,4.1211,4.1211,4.1211,4.1211,4.1211,4.1211,4.1211,4.1211,4.1211,4.1211,4.1211,4.1211,4.1211,4.1211,4.1211,4.1211,4.1211,4.1211,4.1211,4.1211,4.1211,4.1211,4.1211,4.1211,0.0,4.1277,0.0,0.0,0.0,0.0,0.0,0.0,0.0,0.0,0.0,0.0,0.0,0.0,0.0,0.0,0.0,4.6301,4.6301,0.0,4.7074,0.0,0.0,4.7857,0.0,0.0,4.8159,4.8768,4.8768,4.9069,4.9565,4.9565,4.9565,4.959,4.959,4.959,4.959,4.959,4.9558,4.9576,5.0135,5.0687,5.1105,5.0561,5.0745,5.1247,5.1247,5.1599,5.2076,5.2076,5.2452,5.287,5.287,5.287,5.2895,0.0,0.0,0.0,5.2895,5.2895,5.2895,5.2895,5.2895,5.2895,0.0,0.0,5.2895,0.0,0.0,0.0,0.0,0.0,0.0,0.0,0.0,0.0,0.0,5.2116,5.1303,4.7467,4.5276,4.4096,4.4021,4.2311,4.1211,4.1211,4.1211,4.1211,4.1211,4.1211,4.1211,4.1211,4.1211,4.1211,4.1211,4.1211,4.1211,4.1211,4.1211,4.1211,4.1211,4.1211,4.1211,4.1211,4.1211,4.1211,4.1211,4.1211,4.1211,4.1211,4.1211,4.1211,4.1211,4.1211,4.1211,4.1211,0.0,0.0,0.0,0.0,0.0,0.0,0.0,4.3991,0.0,0.0,0.0,0.0,0.0,4.5924,4.6024,0.0,0.0,4.6446,4.6798,4.6998,0.0,0.0,0.0,4.8083,0.0,0.0,0.0,4.9314,4.9314,4.9414,4.959,4.959,4.959,4.9615,4.9967,4.9941,4.964,5.0393,4.9785,4.8379,4.8946,5.0207,5.1774,5.1197,5.1348,5.1825,5.1825,5.2176,5.2619,5.2619,5.2744,5.2895,5.2895,5.2895,5.2895,5.2895,5.2895,5.2895,5.2895,5.2895,5.2895,5.2895,5.2895,5.2895,5.2895,5.2895,0.0,0.0,0.0,0.0,0.0,0.0,0.0,0.0,0.0,0.0,0.0,5.2644,5.2396,5.1057,4.9189,4.6992,4.4339,4.3511,4.2598,4.1288,4.1211,4.1211,4.1211,4.1211,4.1211,4.1211,4.1211,4.1211,4.1211,4.1211,4.1211,4.1211,4.1211,4.1211,4.1211,4.1211,4.1211,4.1211,4.1211,4.1211,4.1211,4.1211,4.1211,4.1211,4.1211,4.1211,4.1211,4.1211,4.1211,4.1211,4.2436,0.0,0.0,0.0,0.0,0.0,0.0,0.0,0.0,0.0,4.5673,0.0,4.6276,0.0,4.6401,0.0,4.6572,4.6798,4.735,4.7606,0.0,4.8209,4.841,0.0,0.0,0.0,0.0,0.0,4.959,4.959,4.959,4.9791,4.9891,4.9916,5.0469,5.0519,5.0243,5.1004,5.0388,4.9038,4.9572,5.0841,5.2352,5.2,5.2076,5.2368,5.2368,5.2628,5.2895,5.2895,5.2895,5.2895,5.2895,5.2895,5.2895,5.2895,5.2895,5.2895,5.2895,5.2895,5.2895,5.2895,5.2895,5.2895,5.2895,5.2895,5.2895,5.2895,0.0,0.0,0.0,0.0,0.0,0.0,0.0,0.0,0.0,5.2895,5.2895,5.2895,5.1174,4.9009,4.6441,4.494,4.3587,4.235,4.1579,4.1211,4.1211,4.1211,4.1211,4.1211,4.1211,4.1211,4.1211,4.1211,4.1211,4.1211,4.1211,4.1211,4.1211,4.1211,4.1211,4.1211,4.1211,4.1211,4.1211,4.1211,4.1211,4.1211,4.1211,4.1211,4.1211,4.1211,4.1211,4.1211,4.2939,0.0,0.0,0.0,4.3539,4.4066,4.4564,4.5146,4.5522,0.0,4.5974,4.6326,4.6351,4.6351,4.6547,4.7099,4.7149,4.735,4.7908,4.846,0.0,0.0,4.9314,4.959,4.959,0.0,0.0,0.0,0.0,4.964,4.964,5.0193,5.0436,5.0494,5.1071,5.1297,5.1306,5.1381,5.1373,5.1398,5.1925,5.2452,5.2895,5.2895,5.2895,5.2895,5.2895,5.2895,5.2895,5.2895,5.2895,5.2895,5.2895,5.2895,5.2895,5.2895,5.2895,5.2895,5.2895,5.2895,5.2895,5.2895,5.2895,5.2895,5.2895,5.2895,5.2895,5.2895,5.2895,0.0,0.0,0.0,0.0,0.0,0.0,0.0,5.2895,5.2895,5.2895,5.2895,5.1268,5.0068,4.9855,4.6441,4.4172,4.3983,4.2234,4.1211,4.1211,4.1211,4.1211,4.1211,4.1211,4.1211,4.1211,4.1211,4.1211,4.1211,4.1211,4.1211,4.1211,4.1211,4.1211,4.1211,4.1211,4.1211,4.1211,4.1211,4.1211,4.1211,4.1211,4.1211,4.1211,4.1211,4.1211,4.1211,4.3489,4.4041,4.4493,4.4794,4.497,4.5095,4.5246,4.5748,4.61,0.0,4.6225,4.6446,4.6848,4.6898,4.7099,4.7657,4.7676,0.0,0.0,0.0,0.0,4.9364,4.9515,4.959,4.959,4.959,0.0,4.959,0.0,5.0193,5.0218,5.0795,5.1046,5.1071,5.1649,5.1674,5.1348,5.2151,5.2468,5.2528,5.2619,5.277,5.2895,5.2895,5.2895,5.2895,5.2895,5.2895,5.2895,5.2895,5.2895,5.2895,5.2895,5.2895,5.2895,5.2895,5.2895,5.2895,5.2895,5.2895,5.2895,5.2895,5.2895,5.2895,5.2895,5.2895,5.2895,5.2895,5.2895,5.2895,5.2895,5.2895,5.2895,0.0,0.0,0.0,0.0,5.2895,5.2895,5.2895,5.2456,5.0998,4.8072,4.6845,4.5052,4.2157,4.1463,4.1211,4.1211,4.1211,4.1211,4.1211,4.1211,4.1211,4.1211,4.1211,4.1211,4.1211,4.1211,4.1211,4.1211,4.1211,4.1211,4.1211,4.1211,4.1211,4.1211,4.1211,4.1211,4.1211,4.1211,4.1211,4.1211,4.1211,4.1211,4.1211,4.4041,4.4618,4.5171,4.5748,4.5849,4.5849,4.5849,4.6326,4.6647,4.6647,4.6848,0.0,4.74,4.745,4.7682,4.8234,4.8284,0.0,4.912,0.0,0.0,4.959,4.959,4.959,4.959,4.959,0.0,4.9967,0.0,5.0544,5.082,5.1373,5.1649,5.1674,5.2226,5.2302,5.2051,5.2619,5.2895,5.2895,5.2895,5.2895,0.0,5.2895,5.2895,5.2895,5.2895,5.2895,5.2895,5.2895,5.2895,5.2895,5.2895,5.2895,5.2895,5.2895,5.2895,5.2895,5.2895,5.2895,5.2895,5.2895,5.2895,5.2895,5.2895,5.2895,5.2895,5.2895,5.2895,5.2895,5.2895,5.2895,5.2895,0.0,0.0,0.0,0.0,0.0,5.2895,5.2895,5.2895,5.1677,4.8614,4.8325,4.7029,4.3966,4.2943,4.208,4.125,4.1211,4.1211,4.1211,4.1211,4.1211,4.1211,4.1211,4.1211,4.1211,4.1211,4.1211,4.1211,4.1211,4.1211,4.1211,4.1211,4.1211,4.1211,4.1211,4.1211,4.1211,4.1211,4.1211,4.1211,4.1211,4.1211,4.1211,4.4589,4.5196,4.5773,4.6326,4.6396,4.6451,4.6502,4.6848,4.7099,4.7099,4.755,4.7933,4.8008,4.8033,4.8259,4.8868,0.0,4.912,4.9565,4.959,4.959,4.959,4.959,4.9615,4.969,4.969,0.0,0.0,5.0594,5.0896,5.1398,5.195,5.2201,5.2226,5.2669,5.2895,5.2895,5.2895,5.2895,5.2895,5.2895,5.2895,5.2895,5.2895,5.2895,5.2895,5.2895,5.2895,5.2895,5.2895,5.2895,5.2895,5.2895,5.2895,5.2895,5.2895,5.2895,5.2895,5.2895,5.2895,5.2895,5.2895,5.2895,5.2895,5.2895,5.2895,5.2895,5.2895,5.2895,5.2895,5.2895,5.2895,5.2895,0.0,0.0,0.0,0.0,0.0,0.0,5.2895,5.2895,0.0,5.0551,4.989,4.8758,4.6772,4.4827,4.2961,4.1288,4.1211,4.1211,4.1211,4.1211,4.1211,4.1211,4.1211,4.1211,4.1211,4.1211,4.1211,4.1211,4.1211,4.1211,4.1211,4.1211,4.1211,4.1211,4.1211,4.1211,4.1211,4.1211,4.1211,4.1211,4.1211,4.1211,4.1211,4.5221,4.5773,0.0,4.6873,4.6948,4.7099,4.7556,4.7299,4.7099,4.7099,4.755,4.8083,4.8592,4.8642,4.8868,4.9414,4.9439,0.0,0.0,0.0,0.0,4.959,4.959,4.9816,5.0268,5.0268,5.0544,0.0,5.1599,5.1875,5.1975,5.2528,5.2744,5.2744,5.2845,5.2895,5.2895,5.2895,5.2895,5.2895,5.2895,5.2895,5.2895,5.2895,5.2895,5.2895,5.2895,5.2895,5.2895,5.2895,5.2895,5.2895,5.2895,5.2895,5.2895,5.2895,5.2895,5.2895,5.2895,5.2895,5.2895,5.2895,5.2895,5.2895,5.2895,5.2895,5.2895,5.2895,5.2895,5.2895,5.2895,5.2895,5.2895,5.2895,5.2895,5.2895,0.0,0.0,0.0,0.0,5.2895,5.2792,5.2421,4.9427,4.6698,4.4752,4.2828,4.1579,4.1211,4.1211,4.1211,4.1211,4.1211,4.1211,4.1211,4.1211,4.1211,4.1211,4.1211,4.1211,4.1211,4.1211,4.1211,4.1211,4.1211,4.1211,4.1211,4.1211,4.1211,4.1211,4.1211,4.1211,4.1211,4.1211,4.1211,4.1211,4.5874,4.6351,0.0,4.7048,4.7324,4.7575,4.7883,4.7958,4.7983,4.7983,4.846,4.8887,4.9163,4.9188,4.9314,4.9565,4.959,4.959,4.959,4.9866,5.0017,5.0017,5.0318,5.0594,5.087,5.087,5.1147,5.1699,5.1975,5.2251,5.2494,5.277,5.2895,5.2895,5.2895,5.2895,5.2895,5.2895,5.2895,5.2895,5.2895,5.2895,5.2895,5.2895,5.2895,5.2895,5.2895,5.2895,5.2895,5.2895,5.2895,5.2895,5.2895,5.2895,5.2895,5.2895,5.2895,5.2895,5.2895,5.2895,5.2895,5.2895,5.2895,5.2895,5.2895,5.2895,5.2895,5.2895,5.2895,5.2895,5.2895,5.2895,5.2895,5.2895,5.2895,5.2895,5.2895,0.0,5.2895,0.0,0.0,0.0,5.1478,4.9677,4.7722,4.5738,4.3815,4.2273,4.125,4.1211,4.1211,4.1211,4.1211,4.1211,4.1211,4.1211,4.1211,4.1211,4.1211,4.1211,4.1211,4.1211,4.1211,4.1211,4.1211,4.1211,4.1211,4.1211,4.1211,4.1211,4.1211,4.1211,4.1211,4.1211,4.1211,4.1211,4.6451,4.6798,4.7174,4.74,4.7832,4.8134,4.8234,4.8661,4.8944,4.8818,4.9296,4.959,4.959,4.959,4.959,4.959,4.969,4.9766,4.9766,5.0293,5.0594,5.0594,5.1046,5.1348,5.1448,5.1448,5.1724,5.2277,5.2277,5.2503,5.2895,5.2895,5.2895,5.2895,5.2895,5.2895,5.2895,5.2895,5.2895,5.2895,5.2895,5.2895,5.2895,5.2895,5.2895,5.2895,5.2895,5.2895,5.2895,5.2895,5.2895,5.2895,5.2895,5.2895,5.2895,5.2895,5.2895,5.2895,5.2895,5.2895,5.2895,5.2895,5.2895,5.2895,5.2895,5.2895,5.2895,5.2895,5.2895,5.2895,5.2895,5.2895,5.2895,5.2895,5.2895,5.2895,5.2895,5.2895,5.2895,0.0,0.0,0.0,5.0752,4.9855,4.8722,4.7102,4.5201,4.3245,4.1288,4.1211,4.1211,4.1211,4.1211,4.1211,4.1211,4.1211,4.1211,4.1211,4.1211,4.1211,4.1211,4.1211,4.1211,4.1211,4.1211,4.1211,4.1211,4.1211,4.1211,4.1211,4.1211,4.1211,4.1211,4.1211,4.1211,4.1211,4.6923,4.7074,4.7425,4.8466,4.8693,4.8894,4.9364,4.949,4.9339,4.8868,4.9296,4.959,4.959,4.959,4.959,4.959,5.0042,5.0343,5.0343,5.087,5.1197,5.1197,5.1247,5.1523,5.2026,5.2026,5.2302,5.282,5.282,5.2845,5.2895,5.2895,5.2895,5.2895,5.2895,5.2895,5.2895,5.2895,5.2895,5.2895,5.2895,5.2895,5.2895,5.2895,5.2895,5.2895,5.2895,5.2895,5.2895,5.2895,5.2895,5.2895,5.2895,5.2895,5.2895,5.2895,5.2895,5.2895,5.2895,5.2895,5.2895,5.2895,5.2895,5.2895,5.2895,5.2895,5.2895,5.2895,5.2895,5.2895,5.2895,5.2895,5.2895,5.2895,5.2895,5.2895,5.2895,5.2895,5.2895,5.2895,0.0,0.0,5.2629,4.9391,4.7175,4.6992,4.5201,4.3245,4.1288,4.1211,4.1211,4.1211,4.1211,4.1211,4.1211,4.1211,4.1211,4.1211,4.1211,4.1211,4.1211,4.1211,4.1211,4.1211,4.1211,4.1211,4.1211,4.1211,4.1211,4.1211,4.1211,4.1211,4.1211,4.1211,4.1211,4.1211,4.745,4.7883,4.8259,4.8718,4.9069,4.9339,4.9565,4.959,4.9515,4.9289,4.9464,4.959,4.959,4.9891,5.0092,5.0092,5.0619,5.0946,5.0946,5.1473,5.1774,5.1774,5.2101,5.2377,5.2603,5.2569,5.2669,5.2895,5.2895,5.2895,5.2895,5.2895,5.2895,5.2895,5.2895,5.2895,5.2895,5.2895,5.2895,5.2895,5.2895,5.2895,5.2895,5.2895,5.2895,5.2895,5.2895,5.2895,5.2895,5.2895,5.2895,5.2895,5.2895,5.2895,5.2895,5.2895,5.2895,5.2895,5.2895,5.2895,5.2895,5.2895,5.2895,5.2895,5.2895,5.2895,5.2895,5.2895,5.2895,5.2895,5.2895,5.2895,5.2895,5.2895,5.2895,5.2895,5.2895,5.2895,5.2895,5.2895,0.0,5.2456,5.1268,5.0787,4.9045,4.5537,4.3435,4.2023,4.125,4.1211,4.1211,4.1211,4.1211,4.1211,4.1211,4.1211,4.1211,4.1211,4.1211,4.1211,4.1211,4.1211,4.1211,4.1211,4.1211,4.1211,4.1211,4.1211,4.1211,4.1211,4.1211,4.1211,4.1211,4.1211,4.1211,4.1211,4.8058,4.8485,4.8843,4.9019,4.9339,4.959,4.959,4.959,4.9665,4.9816,4.9841,4.9841,4.9841,5.0193,5.0494,5.067,5.1197,5.1523,5.1523,5.2051,5.2352,5.2352,5.2694,5.2895,5.2895,5.2895,5.2895,5.2895,5.2895,5.2895,5.2895,5.2895,5.2895,5.2895,5.2895,5.2895,5.2895,5.2895,5.2895,5.2895,5.2895,5.2895,5.2895,5.2895,5.2895,5.2895,5.2895,5.2895,5.2895,5.2895,5.2895,5.2895,5.2895,5.2895,5.2895,5.2895,5.2895,5.2895,5.2895,5.2895,5.2895,5.2895,5.2895,5.2895,5.2895,5.2895,5.2895,5.2895,5.2895,5.2895,5.2895,5.2895,5.2895,5.2895,5.2895,5.2895,5.2895,5.2895,5.2895,5.2895,5.2895,5.2362,5.0998,5.1583,5.0091,4.5313,4.3151,4.1792,4.1211,4.1211,4.1211,4.1211,4.1211,4.1211,4.1211,4.1211,4.1211,4.1211,4.1211,4.1211,4.1211,4.1211,4.1211,4.1211,4.1211,4.1211,4.1211,4.1211,4.1211,4.1211,4.1211,4.1211,4.1211,4.1211,4.1211,4.1211,4.8693,4.8793,4.8969,4.949,4.959,4.959,4.959,4.959,4.9791,5.0343,5.0386,5.0386,5.0386,5.0386,5.0645,5.1255,5.1774,5.2101,5.2101,5.2569,5.2895,5.2895,5.2895,5.2895,5.2895,5.2895,5.2895,5.2895,5.2895,5.2895,5.2895,5.2895,5.2895,5.2895,5.2895,5.2895,5.2895,5.2895,5.2895,5.2895,5.2895,5.2895,5.2895,5.2895,5.2895,5.2895,5.2895,5.2895,5.2895,5.2895,5.2895,5.2895,5.2895,5.2895,5.2895,5.2895,5.2895,5.2895,5.2895,5.2895,5.2895,5.2895,5.2895,5.2895,5.2895,5.2895,5.2895,5.2895,5.2895,5.2895,5.2895,5.2895,5.2895,5.2895,5.2895,5.2895,5.2895,5.2895,5.2895,5.2895,5.2895,5.2895,5.2861,5.1163,4.9189,4.7102,4.5164,4.3207,4.1288,4.1211,4.1211,4.1211,4.1211,4.1211,4.1211,4.1211,4.1211,4.1211,4.1211,4.1211,4.1211,4.1211,4.1211,4.1211,4.1211,4.1211,4.1211,4.1211,4.1211,4.1211,4.1211,4.1211,4.1211,4.1211,4.1211,4.1211,4.9213,4.9371,4.9389,4.9565,4.959,4.959,4.959,4.9916,5.0218,5.0393,5.077,5.1147,5.1523,5.1574,5.1649,5.1825,5.2352,5.2678,5.2678,5.2795,5.2895,5.2895,5.2895,5.2895,5.2895,5.2895,5.2895,5.2895,5.2895,5.2895,5.2895,5.2895,5.2895,5.2895,5.2895,5.2895,5.2895,5.2895,5.2895,5.2895,5.2895,5.2895,5.2895,5.2895,5.2895,5.2895,5.2895,5.2895,5.2895,5.2895,5.2895,5.2895,5.2895,5.2895,5.2895,5.2895,5.2895,5.2895,5.2895,5.2895,5.2895,5.2895,5.2895,5.2895,5.2895,5.2895,5.2895,5.2895,5.2895,5.2895,5.2895,5.2895,5.2895,5.2895,5.2895,5.2895,5.2895,5.2895,5.2895,5.2895,5.2895,5.2895,5.2895,5.2327,5.0611,4.7248,4.6404,4.4661,4.1366,4.1211,4.1211,4.1211,4.1211,4.1211,4.1211,4.1211,4.1211,4.1211,4.1211,4.1211,4.1211,4.1211,4.1211,4.1211,4.1211,4.1211,4.1211,4.1211,4.1211,4.1211,4.1211,4.1211,4.1211,4.1211,4.1211,4.1211,4.9515,4.959,4.959,4.959,4.9766,4.9916,4.9916,5.0368,5.082,5.1021,5.1373,5.18,5.2352,5.2427,5.2427,5.2427,5.2694,5.2895,5.2895,5.2895,5.2895,5.2895,5.2895,5.2895,5.2895,5.2895,5.2895,5.2895,5.2895,5.2895,5.2895,5.2895,5.2895,5.2895,5.2895,5.2895,5.2895,5.2895,5.2895,5.2895,5.2895,5.2895,5.2895,5.2895,5.2895,5.2895,5.2895,5.2895,5.2895,5.2895,5.2895,5.2895,5.2895,5.2895,5.2895,5.2895,5.2895,5.2895,5.2895,5.2895,5.2895,5.2895,5.2895,5.2895,5.2895,5.2895,5.2895,5.2895,5.2895,5.2895,5.2895,5.2895,5.2895,5.2895,5.2895,5.2895,5.2895,5.2895,5.2895,5.2895,5.2895,5.2895,5.2895,5.2223,5.0481,4.7248,4.633,4.4548,4.1366,4.1211,4.1211,4.1211,4.1211,4.1211,4.1211,4.1211,4.1211,4.1211,4.1211,4.1211,4.1211,4.1211,4.1211,4.1211,4.1211,4.1211,4.1211,4.1211,4.1211,4.1211,4.1211,4.1211,4.1211,4.1211,4.1211,4.1211,4.959,4.959,4.9615,4.964,5.0067,5.0411,5.0469,5.0971,5.1523,5.2026,5.2126,5.2352,5.2845,5.2895,5.2895,5.2895,5.2895,5.2895,5.2895,5.2895,5.2895,5.2895,5.2895,5.2895,5.2895,5.2895,5.2895,5.2895,5.2895,5.2895,5.2895,5.2895,5.2895,5.2895,5.2895,5.2895,5.2895,5.2895,5.2895,5.2895,5.2895,5.2895,5.2895,5.2895,5.2895,5.2895,5.2895,5.2895,5.2895,5.2895,5.2895,5.2895,5.2895,5.2895,5.2895,5.2895,5.2895,5.2895,5.2895,5.2895,5.2895,5.2895,5.2895,5.2895,5.2895,5.2895,5.2895,5.2895,5.2895,5.2895,5.2895,5.2895,5.2895,5.2895,5.2895,5.2895,5.2895,5.2895,5.2861,5.2698,5.2698,5.2629,5.2491,5.0857,4.8938,4.6955,4.5127,4.3245,4.1288,4.1211,4.1211,4.1211,4.1211,4.1211,4.1211,4.1211,4.1211,4.1211,4.1211,4.1211,4.1211,4.1211,4.1211,4.1211,4.1211,4.1211,4.1211,4.1211,4.1211,4.1211,4.1211,4.1211,4.1211,4.1211,4.1211,4.1211,4.959,4.959,4.9715,5.0142,5.0318,5.0569,5.1021,5.1548,5.195,5.2076,5.2477,5.2744,5.287,5.2895,5.2895,5.2895,5.2895,5.2895,5.2895,5.2895,5.2895,5.2895,5.2895,5.2895,5.2895,5.2895,5.2895,5.2895,5.2895,5.2895,5.2895,5.2895,5.2895,5.2895,5.2895,5.2895,5.2895,5.2895,5.2895,5.2895,5.2895,5.2895,5.2895,5.2895,5.2895,5.2895,5.2895,5.2895,5.2895,5.2895,5.2895,5.2895,5.2895,5.2895,5.2895,5.2895,5.2895,5.2895,5.2895,5.2895,5.2895,5.2895,5.2895,5.2895,5.2895,5.2895,5.2895,5.2895,5.2895,5.2895,5.2895,5.2895,5.2895,5.2895,5.2895,5.2895,5.2895,5.2895,5.2327,5.0857,5.0681,5.0091,4.8542,4.7999,4.6882,4.494,4.4339,4.3245,4.1288,4.1211,4.1211,4.1211,4.1211,4.1211,4.1211,4.1211,4.1211,4.1211,4.1211,4.1211,4.1211,4.1211,4.1211,4.1211,4.1211,4.1211,4.1211,4.1211,4.1211,4.1211,4.1211,4.1211,4.1211,4.1211,4.1211,4.1211,4.9916,4.9967,5.0142,5.072,5.1021,5.1297,5.1599,5.2126,5.2477,5.2477,5.2694,5.2895,5.2895,5.2895,5.2895,5.2895,5.2895,5.2895,5.2895,5.2895,5.2895,5.2895,5.2895,5.2895,5.2895,5.2895,5.2895,5.2895,5.2895,5.2895,5.2895,5.2895,5.2895,5.2895,5.2895,5.2895,5.2895,5.2895,5.2895,5.2895,5.2895,5.2895,5.2895,5.2895,5.2895,5.2895,5.2895,5.2895,5.2895,5.2895,5.2895,5.2895,5.2895,5.2895,5.2895,5.2895,5.2895,5.2895,5.2895,5.2895,5.2895,5.2895,5.2895,5.2895,5.2895,5.2895,5.2895,5.2895,5.2895,5.2895,5.2895,5.2895,5.2895,5.2895,5.2895,5.2895,5.2895,5.2895,5.2525,5.1443,5.0516,4.957,4.847,4.6735,4.5239,4.4172,4.3304,4.2311,4.125,4.1211,4.1211,4.1211,4.1211,4.1211,4.1211,4.1211,4.1211,4.1211,4.1211,4.1211,4.1211,4.1211,4.1211,4.1211,4.1211,4.1211,4.1211,4.1211,4.1211,4.1211,4.1211,4.1211,4.1211,4.1211,4.1211,4.1211,5.0444,5.0544,5.072,5.1297,5.18,5.2126,5.2226,5.2628,5.2895,5.2895,5.2895,5.2895,5.2895,5.2895,5.2895,5.2895,5.2895,5.2895,5.2895,5.2895,5.2895,5.2895,5.2895,5.2895,5.2895,5.2895,5.2895,5.2895,5.2895,5.2895,5.2895,5.2895,5.2895,5.2895,5.2895,5.2895,5.2895,5.2895,5.2895,5.2895,5.2895,5.2895,5.2895,5.2895,5.2895,5.2895,5.2895,5.2895,5.2895,5.2895,5.2895,5.2895,5.2895,5.2895,5.2895,5.2895,5.2895,5.2895,5.2895,5.2895,5.2895,5.2895,5.2895,5.2895,5.2895,5.2895,5.2895,5.2895,5.2895,5.2895,5.2895,5.2895,5.2895,5.2895,5.2895,5.2895,5.2895,5.2629,5.2327,5.205,5.0304,4.8974,4.8686,4.5648,4.3663,4.3663,4.2119,4.1211,4.1211,4.1211,4.1211,4.1211,4.1211,4.1211,4.1211,4.1211,4.1211,4.1211,4.1211,4.1211,4.1211,4.1211,4.1211,4.1211,4.1211,4.1211,4.1211,4.1211,4.1211,4.1211,4.1211,4.1211,4.1211,4.1211,4.1211,4.1211,5.1021,5.1147,5.1322,5.1875,5.2051,5.2251,5.2694,5.2845,5.2895,5.2895,5.2895,5.2895,5.2895,5.2895,5.2895,5.2895,5.2895,5.2895,5.2895,5.2895,5.2895,5.2895,5.2895,5.2895,5.2895,5.2895,5.2895,5.2895,5.2895,5.2895,5.2895,5.2895,5.2895,5.2895,5.2895,5.2895,5.2895,5.2895,5.2895,5.2895,5.2895,5.2895,5.2895,5.2895,5.2895,5.2895,5.2895,5.2895,5.2895,5.2895,5.2895,5.2895,5.2895,5.2895,5.2895,5.2895,5.2895,5.2895,5.2895,5.2895,5.2895,5.2895,5.2895,5.2895,5.2895,5.2895,5.2895,5.2895,5.2895,5.2895,5.2895,5.2895,5.2895,5.2895,5.2895,5.2895,5.2895,5.1478,4.9819,4.8144,4.6182,4.436,4.2713,4.2023,4.1657,4.1657,4.1366,4.1211,4.1211,4.1211,4.1211,4.1211,4.1211,4.1211,4.1211,4.1211,4.1211,4.1211,4.1211,4.1211,4.1211,4.1211,4.1211,4.1211,4.1211,4.1211,4.1211,4.1211,4.1211,4.1211,4.1211,4.1211,4.1211,4.1211,4.1211,4.1211,5.1624,5.1724,5.19,5.2452,5.2519,5.2594,5.2845,5.2895,5.2895,5.2895,5.2895,5.2895,5.2895,5.2895,5.2895,5.2895,5.2895,5.2895,5.2895,5.2895,5.2895,5.2895,5.2895,5.2895,5.2895,5.2895,5.2895,5.2895,5.2895,5.2895,5.2895,5.2895,5.2895,5.2895,5.2895,5.2895,5.2895,5.2895,5.2895,5.2895,5.2895,5.2895,5.2895,5.2895,5.2895,5.2895,5.2895,5.2895,5.2895,5.2895,5.2895,5.2895,5.2895,5.2895,5.2895,5.2895,5.2895,5.2895,5.2895,5.2895,5.2895,5.2895,5.2895,5.2895,5.2895,5.2895,5.2895,5.2895,5.2895,5.2895,5.2895,5.2895,5.256,5.1513,5.1338,5.0963,4.9855,4.8938,4.8035,4.7102,4.5276,4.3777,4.2846,4.1792,4.1211,4.1211,4.1211,4.1211,4.1211,4.1211,4.1211,4.1211,4.1211,4.1211,4.1211,4.1211,4.1211,4.1211,4.1211,4.1211,4.1211,4.1211,4.1211,4.1211,4.1211,4.1211,4.1211,4.1211,4.1211,4.1211,4.1211,4.1211,4.1211,4.1211,4.1211,4.1211,5.2176,5.2302,5.2427,5.282,5.2895,5.2895,5.2895,5.2895,5.2895,5.2895,5.2895,5.2895,5.2895,5.2895,5.2895,5.2895,5.2895,5.2895,5.2895,5.2895,5.2895,5.2895,5.2895,5.2895,5.2895,5.2895,5.2895,5.2895,5.2895,5.2895,5.2895,5.2895,5.2895,5.2895,5.2895,5.2895,5.2895,5.2895,5.2895,5.2895,5.2895,5.2895,5.2895,5.2895,5.2895,5.2895,5.2895,5.2895,5.2895,5.2895,5.2895,5.2895,5.2895,5.2895,5.2895,5.2895,5.2895,5.2895,5.2895,5.2895,5.2895,5.2895,5.2895,5.2895,5.2895,5.2895,5.2895,5.2895,5.2895,5.2895,5.2895,5.2895,5.2421,5.0928,5.0304,4.9463,4.7904,4.6919,4.633,4.633,4.4602,4.3435,4.3435,4.21,4.1211,4.1211,4.1211,4.1211,4.1211,4.1211,4.1211,4.1211,4.1211,4.1211,4.1211,4.1211,4.1211,4.1211,4.1211,4.1211,4.1211,4.1211,4.1211,4.1211,4.1211,4.1211,4.1211,4.1211,4.1211,4.1211,4.1211,4.1211,4.1211,4.1211,4.1211,4.1211,5.2719,5.2845,5.2845,5.2895,5.2895,5.2895,5.2895,5.2895,5.2895,5.2895,5.2895,5.2895,5.2895,5.2895,5.2895,5.2895,5.2895,5.2895,5.2895,5.2895,5.2895,5.2895,5.2895,5.2895,5.2895,5.2895,5.2895,5.2895,5.2895,5.2895,5.2895,5.2895,5.2895,5.2895,5.2895,5.2895,5.2895,5.2895,5.2895,5.2895,5.2895,5.2895,5.2895,5.2895,5.2895,5.2895,5.2895,5.2895,5.2895,5.2895,5.2895,5.2895,5.2895,5.2895,5.2895,5.2895,5.2895,5.2895,5.2895,5.2895,5.2895,5.2895,5.2895,5.2895,5.2895,5.2895,5.2895,5.2895,5.2895,5.2895,5.2895,5.2895,5.2861,5.2698,5.1198,4.9926,4.9783,4.6625,4.4301,4.4301,4.2598,4.1385,4.1385,4.1288,4.1211,4.1211,4.1211,4.1211,4.1211,4.1211,4.1211,4.1211,4.1211,4.1211,4.1211,4.1211,4.1211,4.1211,4.1211,4.1211,4.1211,4.1211,4.1211,4.1211,4.1211,4.1211,4.1211,4.1211,4.1211,4.1211,4.1211,4.1211,4.1211,4.1211,4.1211,4.1211,5.2845,5.2895,5.2895,5.2895,5.2895,5.2895,5.2895,5.2895,5.2895,5.2895,5.2895,5.2895,5.2895,5.2895,5.2895,5.2895,5.2895,5.2895,5.2895,5.2895,5.2895,5.2895,5.2895,5.2895,5.2895,5.2895,5.2895,5.2895,5.2895,5.2895,5.2895,5.2895,5.2895,5.2895,5.2895,5.2895,5.2895,5.2895,5.2895,5.2895,5.2895,5.2895,5.2895,5.2895,5.2895,5.2895,5.2895,5.2895,5.2895,5.2895,5.2895,5.2895,5.2895,5.2895,5.2895,5.2895,5.2895,5.2895,5.2895,5.2895,5.2895,5.2895,5.2895,5.2895,5.2895,5.2895,5.2895,5.2895,5.2895,5.2895,5.2895,5.1921,5.0681,4.9427,4.7613,4.5923,4.4699,4.3266,4.2311,4.2311,4.1657,4.1211,4.1211,4.1211,4.1211,4.1211,4.1211,4.1211,4.1211,4.1211,4.1211,4.1211,4.1211,4.1211,4.1211,4.1211,4.1211,4.1211,4.1211,4.1211,4.1211,4.1211,4.1211,4.1211,4.1211,4.1211,4.1211,4.1211,4.1211,4.1211,4.1211,4.1211,4.1211,4.1211,4.1211,4.1211,5.2895,5.2895,5.2895,5.2895,5.2895,5.2895,5.2895,5.2895,5.2895,5.2895,5.2895,5.2895,5.2895,5.2895,5.2895,5.2895,5.2895,5.2895,5.2895,5.2895,5.2895,5.2895,5.2895,5.2895,5.2895,5.2895,5.2895,5.2895,5.2895,5.2895,5.2895,5.2895,5.2895,5.2895,5.2895,5.2895,5.2895,5.2895,5.2895,5.2895,5.2895,5.2895,5.2895,5.2895,5.2895,5.2895,5.2895,5.2895,5.2895,5.2895,5.2895,5.2895,5.2895,5.2895,5.2895,5.2895,5.2895,5.2895,5.2895,5.2895,5.2895,5.2895,5.2895,5.2895,5.2895,5.2895,5.2895,5.2895,5.2895,5.2698,5.2119,5.1408,5.0056,4.7431,4.5886,4.4323,4.2388,4.1579,4.1211,4.1211,4.1211,4.1211,4.1211,4.1211,4.1211,4.1211,4.1211,4.1211,4.1211,4.1211,4.1211,4.1211,4.1211,4.1211,4.1211,4.1211,4.1211,4.1211,4.1211,4.1211,4.1211,4.1211,4.1211,4.1211,4.1211,4.1211,4.1211,4.1211,4.1211,4.1211,4.1211,4.1211,4.1211,4.1211,4.1211,4.1211,5.2895,5.2895,5.2895,5.2895,5.2895,5.2895,5.2895,5.2895,5.2895,5.2895,5.2895,5.2895,5.2895,5.2895,5.2895,5.2895,5.2895,5.2895,5.2895,5.2895,5.2895,5.2895,5.2895,5.2895,5.2895,5.2895,5.2895,5.2895,5.2895,5.2895,5.2895,5.2895,5.2895,5.2895,5.2895,5.2895,5.2895,5.2895,5.2895,5.2895,5.2895,5.2861,5.2861,5.2861,5.2861,5.2861,5.2861,5.2861,5.2861,5.2861,5.2861,5.2861,5.2861,5.2895,5.2895,5.2895,5.2895,5.2895,5.2895,5.2895,5.2895,5.2895,5.2895,5.2895,5.2895,5.2895,5.2895,5.2895,5.2895,5.2293,5.0375,5.1607,5.1607,4.7649,4.6992,4.6293,4.4339,4.2427,4.1211,4.1211,4.1211,4.1211,4.1211,4.1211,4.1211,4.1211,4.1211,4.1211,4.1211,4.1211,4.1211,4.1211,4.1211,4.1211,4.1211,4.1211,4.1211,4.1211,4.1211,4.1211,4.1211,4.1211,4.1211,4.1211,4.1211,4.1211,4.1211,4.1211,4.1211,4.1211,4.1211,4.1211,4.1211,4.1211,4.1211,4.1211,5.2895,5.2895,5.2895,5.2895,5.2895,5.2895,5.2895,5.2895,5.2895,5.2895,5.2895,5.2895,5.2895,5.2895,5.2895,5.2895,5.2895,5.2895,5.2895,5.2895,5.2895,5.2895,5.2895,5.2895,5.2895,5.2895,5.2895,5.2895,5.2895,5.2895,5.2895,5.2895,5.2895,5.2895,5.2895,5.2895,5.2895,5.2895,5.2119,5.0857,5.0857,5.002,4.8758,4.8758,4.8758,4.8758,4.8758,4.8758,4.8758,4.8758,4.8758,4.9009,5.041,5.0857,5.1103,5.2491,5.2895,5.2895,5.2895,5.2895,5.2895,5.2895,5.2895,5.2895,5.2895,5.2895,5.2895,5.2895,5.2895,5.2698,5.2154,5.1373,5.002,4.7394,4.5849,4.4285,4.235,4.1579,4.1211,4.1211,4.1211,4.1211,4.1211,4.1211,4.1211,4.1211,4.1211,4.1211,4.1211,4.1211,4.1211,4.1211,4.1211,4.1211,4.1211,4.1211,4.1211,4.1211,4.1211,4.1211,4.1211,4.1211,4.1211,4.1211,4.1211,4.1211,4.1211,4.1211,4.1211,4.1211,4.1211,4.1211,4.1211,4.1211,4.1211,4.1211,5.2895,5.2895,5.2895,5.2895,5.2895,5.2895,5.2895,5.2895,5.2895,5.2895,5.2895,5.2895,5.2895,5.2895,5.2895,5.2895,5.2895,5.2895,5.2895,5.2895,5.2895,5.2895,5.2895,5.2895,5.2895,5.2895,5.2895,5.2895,5.2895,5.2895,5.2895,5.2895,5.2895,5.2895,5.2895,5.2895,5.2861,5.2085,5.1068,4.9926,4.9117,4.8108,4.6992,4.6992,4.6992,4.6992,4.6992,4.6992,4.6992,4.6992,4.6992,4.7212,4.8434,4.8794,4.9045,5.0233,5.0576,5.0752,5.1513,5.1747,5.1747,5.1747,5.1747,5.1747,5.1747,5.1163,5.0576,5.0576,5.0576,5.0576,5.0576,4.9605,4.8158,4.6182,4.4865,4.3435,4.1463,4.1211,4.1211,4.1211,4.1211,4.1211,4.1211,4.1211,4.1211,4.1211,4.1211,4.1211,4.1211,4.1211,4.1211,4.1211,4.1211,4.1211,4.1211,4.1211,4.1211,4.1211,4.1211,4.1211,4.1211,4.1211,4.1211,4.1211,4.1211,4.1211,4.1211,4.1211,4.1211,4.1211,4.1211,4.1211,4.1211,4.1211,4.1211,4.1211,5.2895,5.2895,5.2895,5.2895,5.2895,5.2895,5.2895,5.2895,5.2895,5.2895,5.2895,5.2895,5.2895,5.2895,5.2895,5.2895,5.2895,5.2895,5.2895,5.2895,5.2895,5.2895,5.2895,5.2895,5.2895,5.2895,5.2895,5.2895,5.2895,5.2895,5.2895,5.2895,5.2895,5.2895,5.2895,5.2895,5.2792,5.0822,4.9997,4.9819,4.7613,4.6735,4.6698,4.6551,4.65,4.65,4.65,4.65,4.65,4.65,4.65,4.6514,4.6698,4.6735,4.6772,4.6955,4.6992,4.7394,4.9224,4.9712,4.9712,4.9712,4.9605,4.9534,4.9677,4.8325,4.6992,4.6992,4.6992,4.6992,4.6992,4.6992,4.6367,4.4414,4.4096,4.3435,4.1463,4.1211,4.1211,4.1211,4.1211,4.1211,4.1211,4.1211,4.1211,4.1211,4.1211,4.1211,4.1211,4.1211,4.1211,4.1211,4.1211,4.1211,4.1211,4.1211,4.1211,4.1211,4.1211,4.1211,4.1211,4.1211,4.1211,4.1211,4.1211,4.1211,4.1211,4.1211,4.1211,4.1211,4.1211,4.1211,4.1211,4.1211,4.1211,4.1211,5.2895,5.2895,5.2895,5.2895,5.2895,5.2895,5.2895,5.2895,5.2895,5.2895,5.2895,5.2895,5.2895,5.2895,5.2895,5.2895,5.2895,5.2895,5.2895,5.2895,5.2895,5.2895,5.2895,5.2895,5.2895,5.2895,5.2895,5.2895,5.2895,5.2895,5.2895,5.2895,5.2895,5.2895,5.2895,5.2895,5.2792,5.0822,4.9997,4.9677,4.6146,4.4715,4.4565,4.3037,4.2465,4.2465,4.2465,4.2465,4.2465,4.2465,4.2465,4.2713,4.4247,4.4715,4.5014,4.6551,4.6992,4.7102,4.7504,4.7649,4.7649,4.7649,4.6514,4.5775,4.7285,4.7321,4.6992,4.6992,4.6992,4.6992,4.6992,4.6992,4.6367,4.4414,4.4096,4.3435,4.1463,4.1211,4.1211,4.1211,4.1211,4.1211,4.1211,4.1211,4.1211,4.1211,4.1211,4.1211,4.1211,4.1211,4.1211,4.1211,4.1211,4.1211,4.1211,4.1211,4.1211,4.1211,4.1211,4.1211,4.1211,4.1211,4.1211,4.1211,4.1211,4.1211,4.1211,4.1211,4.1211,4.1211,4.1211,4.1211,4.1211,4.1211,4.1211,4.1211,5.2895,5.2895,5.2895,5.2895,5.2895,5.2895,5.2895,5.2895,5.2895,5.2895,5.2895,5.2895,5.2895,5.2895,5.2895,5.2895,5.2895,5.2895,5.2895,5.2895,5.2895,5.2895,5.2895,5.2895,5.2895,5.2895,5.2895,5.2895,5.2895,5.2895,5.2895,5.2895,5.2895,5.2895,5.2895,5.2895,5.2792,5.0822,4.9463,4.8325,4.5313,4.3549,4.2598,4.1579,4.1211,4.1211,4.1211,4.1211,4.1211,4.1211,4.1211,4.1405,4.2427,4.2713,4.2922,4.3928,4.423,4.4435,4.5351,4.5627,4.5627,4.5627,4.4865,4.4398,4.5366,4.4902,4.423,4.423,4.423,4.4511,4.5462,4.4865,4.4209,4.4096,4.3321,4.235,4.1327,4.1211,4.1211,4.1211,4.1211,4.1211,4.1211,4.1211,4.1211,4.1211,4.1211,4.1211,4.1211,4.1211,4.1211,4.1211,4.1211,4.1211,4.1211,4.1211,4.1211,4.1211,4.1211,4.1211,4.1211,4.1211,4.1211,4.1211,4.1211,4.1211,4.1211,4.1211,4.1211,4.1211,4.1211,4.1211,4.1211,4.1211,4.1211,4.1211,5.2895,5.2895,5.2895,5.2895,5.2895,5.2895,5.2895,5.2895,5.2895,5.2895,5.2895,5.2895,5.2895,5.2895,5.2895,5.2895,5.2895,5.2895,5.2895,5.2895,5.2895,5.2895,5.2895,5.2895,5.2895,5.2895,5.2895,5.2895,5.2895,5.2895,5.2895,5.2895,5.2895,5.2895,5.2895,5.2895,5.2792,5.0822,4.9045,4.7321,4.5014,4.3151,4.1657,4.1327,4.1211,4.1211,4.1211,4.1211,4.1211,4.1211,4.1211,4.1211,4.1211,4.1211,4.1211,4.1211,4.1211,4.154,4.3189,4.3625,4.3625,4.3625,4.3625,4.3625,4.3625,4.235,4.1211,4.1211,4.1211,4.1676,4.3321,4.2311,4.1734,4.3321,4.2234,4.1211,4.1211,4.1211,4.1211,4.1211,4.1211,4.1211,4.1211,4.1211,4.1211,4.1211,4.1211,4.1211,4.1211,4.1211,4.1211,4.1211,4.1211,4.1211,4.1211,4.1211,4.1211,4.1211,4.1211,4.1211,4.1211,4.1211,4.1211,4.1211,4.1211,4.1211,4.1211,4.1211,4.1211,4.1211,4.1211,4.1211,4.1211,4.1211,4.1211,4.1211,5.2895,5.2895,5.2895,5.2895,5.2895,5.2895,5.2895,5.2895,5.2895,5.2895,5.2895,5.2895,5.2895,5.2895,5.2895,5.2895,5.2895,5.2895,5.2895,5.2895,5.2895,5.2895,5.2895,5.2895,5.2895,5.2895,5.2895,5.2895,5.2895,5.2895,5.2895,5.2895,5.2895,5.2895,5.2895,5.2895,5.2792,5.0822,4.9855,4.926,4.5589,4.3945,4.3511,4.183,4.1211,4.1211,4.1211,4.1211,4.1211,4.1211,4.1211,4.1211,4.1211,4.1211,4.1211,4.1211,4.1211,4.125,4.1502,4.1579,4.1579,4.1579,4.1579,4.1579,4.1579,4.1385,4.1211,4.1211,4.1211,4.1288,4.154,4.1405,4.1288,4.154,4.1366,4.1211,4.1211,4.1211,4.1211,4.1211,4.1211,4.1211,4.1211,4.1211,4.1211,4.1211,4.1211,4.1211,4.1211,4.1211,4.1211,4.1211,4.1211,4.1211,4.1211,4.1211,4.1211,4.1211,4.1211,4.1211,4.1211,4.1211,4.1211,4.1211,4.1211,4.1211,4.1211,4.1211,4.1211,4.1211,4.1211,4.1211,4.1211,4.1211,4.1211,4.1211,5.2895,5.2895,5.2895,5.2895,5.2895,5.2895,5.2895,5.2895,5.2895,5.2895,5.2895,5.2895,5.2895,5.2895,5.2895,5.2895,5.2895,5.2895,5.2895,5.2895,5.2895,5.2895,5.2895,5.2895,5.2895,5.2895,5.2895,5.2895,5.2895,5.2895,5.2895,5.2895,5.2895,5.2895,5.2895,5.2895,5.2861,5.1956,5.0339,4.818,4.6404,4.4435,4.2388,4.154,4.1211,4.1211,4.1211,4.1211,4.1211,4.1211,4.1211,4.1211,4.1211,4.1211,4.1211,4.1211,4.1211,4.1211,4.1211,4.1211,4.1211,4.1211,4.1211,4.1211,4.1211,4.1211,4.1211,4.1211,4.1211,4.1211,4.1211,4.1211,4.1211,4.1211,4.1211,4.1211,4.1211,4.1211,4.1211,4.1211,4.1211,4.1211,4.1211,4.1211,4.1211,4.1211,4.1211,4.1211,4.1211,4.1211,4.1211,4.1211,4.1211,4.1211,4.1211,4.1211,4.1211,4.1211,4.1211,4.1211,4.1211,4.1211,4.1211,4.1211,4.1211,4.1211,4.1211,4.1211,4.1211,4.1211,4.1211,4.1211,4.1211,4.1211,4.1211,4.1211]},{"header":{"parameterUnit":"m.s-1","parameterCategory":1,"la1":30.6,"la2":28.766,"lo1":-90.7593,"lo2":-88.6598,"dy":0.0162,"dx":0.0183,"nx":116,"ny":114,"refTime":"2023-11-12T06:00:00:Z","depth":0,"parameterNumber":3,"parameterNumberName":"V-component_of_WINDS"},"data":[0.0,0.0,0.0,0.0,0.0,0.0,0.0,0.0,0.0,0.0,0.0,0.0,0.0,0.0,0.0,0.0,0.0,0.0,0.0,0.0,0.0,0.0,0.0,0.0,0.0,0.0,0.0,0.0,0.0,0.0,0.0,0.0,0.0,0.0,0.0,0.0,0.0,0.0,0.0,0.0,0.0,0.0,0.0,0.0,0.0,0.0,0.0,0.0,0.0,0.0,0.0,0.0,0.0,0.0,0.0,0.0,0.0,0.0,0.0,0.0,0.0,0.0,0.0,0.0,0.0,0.0,0.0,0.0,0.0,0.0,0.0,0.0,0.0,0.0,0.0,0.0,0.0,0.0,0.0,0.0,0.0,0.0,0.0,0.0,0.0,0.0,0.0,0.0,0.0,0.0,0.0,0.0,0.0,0.0,0.0,0.0,0.0,0.0,0.0,0.0,0.0,0.0,0.0,0.0,0.0,0.0,0.0,0.0,0.0,0.0,0.0,0.0,0.0,0.0,0.0,0.0,0.0,0.0,0.0,0.0,0.0,0.0,0.0,0.0,0.0,0.0,0.0,0.0,0.0,0.0,0.0,0.0,0.0,0.0,0.0,0.0,0.0,0.0,0.0,0.0,0.0,0.0,0.0,0.0,0.0,0.0,0.0,0.0,0.0,0.0,0.0,0.0,0.0,0.0,0.0,0.0,0.0,0.0,0.0,0.0,0.0,0.0,0.0,0.0,0.0,0.0,0.0,0.0,0.0,0.0,0.0,0.0,0.0,0.0,0.0,0.0,0.0,0.0,0.0,0.0,0.0,0.0,0.0,0.0,0.0,0.0,0.0,0.0,0.0,0.0,0.0,0.0,0.0,0.0,0.0,0.0,0.0,0.0,0.0,0.0,0.0,0.0,0.0,0.0,0.0,0.0,0.0,0.0,0.0,0.0,0.0,0.0,0.0,0.0,0.0,0.0,0.0,0.0,0.0,0.0,0.0,0.0,0.0,0.0,0.0,0.0,0.0,0.0,0.0,0.0,0.0,0.0,0.0,0.0,0.0,0.0,0.0,0.0,0.0,0.0,0.0,0.0,0.0,0.0,0.0,0.0,0.0,0.0,0.0,0.0,0.0,0.0,0.0,0.0,0.0,0.0,0.0,0.0,0.0,0.0,0.0,0.0,0.0,0.0,0.0,0.0,0.0,0.0,0.0,0.0,0.0,0.0,0.0,0.0,0.0,0.0,0.0,0.0,0.0,0.0,0.0,0.0,0.0,0.0,0.0,0.0,0.0,0.0,0.0,0.0,0.0,0.0,0.0,0.0,0.0,0.0,0.0,0.0,0.0,0.0,0.0,0.0,0.0,0.0,0.0,0.0,0.0,0.0,0.0,0.0,0.0,0.0,0.0,0.0,0.0,0.0,0.0,0.0,0.0,0.0,0.0,0.0,0.0,0.0,0.0,0.0,0.0,0.0,0.0,0.0,0.0,0.0,0.0,0.0,0.0,0.0,0.0,0.0,0.0,0.0,0.0,0.0,0.0,0.0,0.0,0.0,0.0,0.0,0.0,0.0,0.0,0.0,0.0,0.0,0.0,0.0,0.0,0.0,0.0,0.0,0.0,0.0,0.0,0.0,0.0,0.0,0.0,0.0,0.0,0.0,0.0,0.0,0.0,0.0,0.0,0.0,0.0,0.0,0.0,0.0,0.0,0.0,0.0,0.0,0.0,0.0,0.0,0.0,0.0,0.0,0.0,0.0,0.0,0.0,0.0,0.0,0.0,0.0,0.0,0.0,0.0,0.0,0.0,0.0,0.0,0.0,0.0,0.0,0.0,0.0,0.0,0.0,0.0,0.0,0.0,0.0,0.0,0.0,0.0,0.0,0.0,0.0,0.0,0.0,0.0,0.0,0.0,0.0,0.0,0.0,0.0,0.0,0.0,0.0,0.0,0.0,0.0,0.0,0.0,0.0,0.0,0.0,0.0,0.0,0.0,0.0,0.0,0.0,0.0,0.0,0.0,0.0,0.0,0.0,0.0,0.0,0.0,0.0,0.0,0.0,0.0,0.0,0.0,0.0,0.0,0.0,0.0,0.0,0.0,0.0,0.0,0.0,0.0,0.0,0.0,0.0,0.0,0.0,0.0,0.0,0.0,0.0,0.0,0.0,0.0,0.0,0.0,0.0,0.0,0.0,0.0,0.0,0.0,0.0,0.0,0.0,0.0,0.0,0.0,0.0,0.0,0.0,0.0,0.0,0.0,0.0,0.0,0.0,0.0,0.0,0.0,0.0,0.0,0.0,0.0,0.0,0.0,0.0,0.0,0.0,0.0,0.0,0.0,0.0,0.0,0.0,0.0,0.0,0.0,0.0,0.0,0.0,0.0,0.0,0.0,0.0,0.0,0.0,0.0,0.0,0.0,0.0,0.0,0.0,0.0,0.0,0.0,0.0,0.0,0.0,0.0,0.0,0.0,0.0,0.0,0.0,0.0,0.0,0.0,0.0,0.0,0.0,0.0,0.0,0.0,0.0,0.0,0.0,0.0,0.0,0.0,0.0,0.0,0.0,0.0,0.0,0.0,0.0,0.0,0.0,0.0,0.0,0.0,0.0,0.0,0.0,0.0,0.0,0.0,0.0,0.0,0.0,0.0,0.0,0.0,0.0,0.0,0.0,0.0,0.0,0.0,0.0,0.0,0.0,0.0,0.0,0.0,0.0,0.0,0.0,0.0,0.0,0.0,0.0,0.0,0.0,0.0,0.0,0.0,0.0,0.0,0.0,0.0,0.0,0.0,0.0,0.0,0.0,0.0,0.0,0.0,0.0,0.0,0.0,0.0,0.0,0.0,0.0,0.0,0.0,0.0,0.0,0.0,0.0,0.0,0.0,0.0,0.0,0.0,0.0,0.0,0.0,0.0,0.0,0.0,0.0,0.0,0.0,0.0,0.0,0.0,0.0,0.0,0.0,0.0,0.0,0.0,0.0,0.0,0.0,0.0,0.0,0.0,0.0,0.0,0.0,0.0,0.0,0.0,0.0,0.0,0.0,0.0,0.0,0.0,0.0,0.0,0.0,0.0,0.0,0.0,0.0,0.0,0.0,0.0,0.0,0.0,0.0,0.0,0.0,0.0,0.0,0.0,0.0,0.0,0.0,0.0,0.0,0.0,0.0,0.0,0.0,0.0,0.0,0.0,0.0,0.0,0.0,0.0,0.0,0.0,0.0,0.0,0.0,0.0,0.0,0.0,0.0,0.0,0.0,0.0,0.0,0.0,0.0,0.0,0.0,0.0,0.0,0.0,0.0,0.0,0.0,0.0,0.0,0.0,0.0,0.0,0.0,0.0,0.0,0.0,0.0,0.0,0.0,0.0,0.0,0.0,0.0,0.0,0.0,0.0,0.0,0.0,0.0,0.0,0.0,0.0,0.0,0.0,0.0,0.0,0.0,0.0,0.0,0.0,0.0,0.0,0.0,0.0,0.0,0.0,0.0,0.0,0.0,0.0,0.0,0.0,0.0,0.0,0.0,0.0,0.0,0.0,0.0,0.0,0.0,0.0,0.0,0.0,0.0,0.0,0.0,0.0,0.0,0.0,0.0,0.0,0.0,0.0,0.0,0.0,0.0,0.0,0.0,0.0,0.0,0.0,0.0,0.0,0.0,0.0,0.0,0.0,0.0,0.0,0.0,0.0,0.0,0.0,0.0,0.0,0.0,0.0,0.0,0.0,0.0,0.0,0.0,0.0,0.0,0.0,0.0,0.0,0.0,0.0,0.0,0.0,0.0,0.0,0.0,0.0,0.0,0.0,0.0,0.0,0.0,0.0,0.0,0.0,0.0,0.0,0.0,0.0,0.0,0.0,0.0,0.0,0.0,0.0,0.0,0.0,0.0,0.0,0.0,0.0,0.0,0.0,0.0,0.0,0.0,0.0,0.0,0.0,0.0,0.0,0.0,0.0,0.0,0.0,0.0,0.0,0.0,0.0,0.0,0.0,0.0,0.0,0.0,0.0,0.0,0.0,0.0,0.0,0.0,0.0,0.0,0.0,0.0,0.0,0.0,0.0,0.0,0.0,0.0,0.0,0.0,0.0,0.0,0.0,0.0,0.0,0.0,0.0,0.0,0.0,0.0,0.0,0.0,0.0,0.0,0.0,0.0,0.0,0.0,0.0,0.0,0.0,0.0,0.0,0.0,0.0,0.0,0.0,0.0,0.0,0.0,0.0,0.0,0.0,0.0,0.0,0.0,0.0,0.0,0.0,0.0,0.0,0.0,0.0,0.0,0.0,0.0,0.0,0.0,0.0,0.0,0.0,0.0,0.0,0.0,0.0,0.0,0.0,0.0,0.0,0.0,0.0,0.0,0.0,0.0,0.0,0.0,0.0,0.0,0.0,0.0,0.0,0.0,0.0,0.0,0.0,0.0,0.0,0.0,0.0,0.0,0.0,0.0,0.0,0.0,0.0,0.0,0.0,0.0,0.0,0.0,0.0,0.0,0.0,0.0,0.0,0.0,0.0,0.0,0.0,0.0,0.0,0.0,0.0,0.0,0.0,0.0,0.0,0.0,0.0,0.0,0.0,0.0,0.0,0.0,0.0,0.0,0.0,0.0,0.0,0.0,0.0,0.0,0.0,0.0,0.0,0.0,0.0,0.0,0.0,0.0,0.0,0.0,0.0,0.0,0.0,0.0,0.0,0.0,0.0,0.0,0.0,0.0,0.0,0.0,0.0,0.0,0.0,0.0,0.0,0.0,0.0,0.0,0.0,0.0,0.0,0.0,0.0,0.0,0.0,0.0,0.0,0.0,0.0,0.0,0.0,0.0,0.0,0.0,0.0,0.0,0.0,0.0,0.0,0.0,0.0,0.0,0.0,0.0,0.0,0.0,0.0,0.0,0.0,0.0,0.0,0.0,0.0,0.0,0.0,0.0,0.0,0.0,0.0,0.0,0.0,0.0,0.0,0.0,0.0,0.0,0.0,0.0,0.0,0.0,0.0,0.0,0.0,0.0,0.0,0.0,0.0,0.0,0.0,0.0,0.0,0.0,0.0,0.0,0.0,0.0,0.0,0.0,0.0,0.0,0.0,0.0,0.0,0.0,0.0,0.0,0.0,0.0,0.0,0.0,0.0,0.0,0.0,0.0,0.0,0.0,0.0,0.0,0.0,0.0,0.0,0.0,0.0,0.0,0.0,0.0,0.0,0.0,0.0,0.0,0.0,0.0,0.0,0.0,0.0,0.0,0.0,0.0,0.0,0.0,0.0,0.0,0.0,0.0,0.0,0.0,0.0,0.0,0.0,0.0,0.0,0.0,0.0,0.0,0.0,0.0,0.0,0.0,0.0,0.0,0.0,0.0,0.0,0.0,0.0,0.0,0.0,0.0,0.0,0.0,0.0,0.0,0.0,0.0,0.0,0.0,0.0,0.0,0.0,0.0,0.0,0.0,0.0,0.0,0.0,0.0,0.0,0.0,0.0,0.0,0.0,0.0,0.0,0.0,0.0,0.0,0.0,0.0,0.0,0.0,0.0,0.0,0.0,0.0,0.0,0.0,0.0,0.0,0.0,0.0,0.0,0.0,0.0,0.0,0.0,0.0,0.0,0.0,0.0,0.0,0.0,0.0,0.0,0.0,0.0,0.0,0.0,0.0,0.0,0.0,0.0,0.0,0.0,0.0,0.0,0.0,0.0,0.0,0.0,0.0,0.0,0.0,0.0,0.0,0.0,0.0,0.0,0.0,0.0,0.0,0.0,0.0,0.0,0.0,0.0,0.0,0.0,0.0,0.0,0.0,0.0,0.0,0.0,0.0,0.0,0.0,0.0,0.0,0.0,0.0,0.0,0.0,0.0,0.0,0.0,0.0,0.0,0.0,0.0,0.0,0.0,0.0,0.0,0.0,0.0,0.0,0.0,0.0,0.0,0.0,0.0,0.0,0.0,0.0,0.0,0.0,0.0,0.0,0.0,0.0,0.0,0.0,0.0,0.0,0.0,0.0,0.0,0.0,0.0,0.0,0.0,0.0,0.0,0.0,0.0,0.0,0.0,0.0,0.0,0.0,0.0,0.0,0.0,0.0,0.0,0.0,0.0,0.0,0.0,0.0,0.0,0.0,0.0,0.0,0.0,0.0,0.0,0.0,0.0,0.0,3.9391,3.9391,0.0,0.0,0.0,0.0,0.0,0.0,0.0,0.0,0.0,0.0,0.0,0.0,0.0,0.0,0.0,0.0,0.0,0.0,0.0,0.0,0.0,0.0,0.0,4.0113,4.0113,4.0113,4.0113,4.0113,4.0113,4.0113,4.0217,4.0456,4.0468,4.0767,4.1307,4.1318,4.1508,4.181,4.1183,4.0768,4.0504,4.0229,4.0113,4.0113,0.0,0.0,0.0,0.0,0.0,0.0,0.0,0.0,0.0,0.0,0.0,0.0,0.0,0.0,0.0,0.0,0.0,0.0,0.0,0.0,0.0,0.0,0.0,0.0,0.0,0.0,0.0,0.0,0.0,0.0,0.0,0.0,0.0,0.0,0.0,0.0,0.0,0.0,0.0,0.0,0.0,0.0,0.0,0.0,0.0,0.0,0.0,0.0,0.0,0.0,0.0,0.0,0.0,0.0,0.0,0.0,0.0,0.0,0.0,0.0,0.0,0.0,0.0,0.0,0.0,0.0,0.0,0.0,0.0,0.0,4.0019,3.9888,0.0,0.0,0.0,0.0,0.0,0.0,0.0,0.0,0.0,0.0,0.0,0.0,0.0,0.0,0.0,0.0,0.0,0.0,0.0,0.0,0.0,4.0241,4.0241,4.0241,4.0241,4.0241,4.0142,4.0129,4.0241,4.0241,4.0502,4.1013,4.1082,4.1329,4.1937,4.1863,4.1906,4.2103,4.1396,4.0768,4.0241,4.0129,4.0113,4.0113,4.0113,0.0,0.0,0.0,0.0,0.0,0.0,0.0,0.0,0.0,0.0,0.0,0.0,0.0,0.0,0.0,0.0,0.0,0.0,0.0,0.0,0.0,0.0,0.0,0.0,0.0,0.0,0.0,0.0,0.0,0.0,0.0,0.0,0.0,0.0,0.0,0.0,0.0,0.0,0.0,0.0,0.0,0.0,0.0,0.0,0.0,0.0,0.0,0.0,0.0,0.0,0.0,0.0,0.0,0.0,0.0,0.0,0.0,0.0,0.0,0.0,0.0,0.0,0.0,4.0307,4.0576,4.0576,4.1164,4.1403,4.1373,4.0954,4.0666,4.0576,4.0576,0.0,0.0,0.0,0.0,0.0,0.0,0.0,0.0,0.0,0.0,0.0,0.0,0.0,0.0,0.0,0.0,0.0,0.0,0.0,4.0792,4.0792,4.0792,4.0792,4.0792,4.0368,4.0316,4.0756,4.0792,4.107,4.1671,4.1693,4.1958,4.2577,4.2062,4.2286,4.3286,4.2216,4.1362,4.078,4.0306,4.0113,4.0113,4.0113,4.0113,4.0113,0.0,0.0,0.0,0.0,0.0,0.0,0.0,0.0,0.0,0.0,0.0,0.0,0.0,0.0,0.0,0.0,0.0,0.0,0.0,0.0,0.0,0.0,0.0,0.0,0.0,0.0,0.0,0.0,0.0,0.0,0.0,0.0,0.0,0.0,0.0,0.0,0.0,0.0,0.0,0.0,0.0,3.9391,3.9391,0.0,0.0,0.0,0.0,0.0,0.0,0.0,0.0,0.0,0.0,0.0,0.0,0.0,4.1134,4.1134,4.1134,4.1134,4.1134,4.1224,4.1283,4.1283,4.1373,4.1403,4.1433,4.1912,0.0,4.1283,4.1283,0.0,0.0,0.0,0.0,0.0,0.0,0.0,0.0,0.0,0.0,0.0,0.0,0.0,0.0,0.0,0.0,0.0,0.0,0.0,0.0,0.0,4.0636,4.0466,4.0466,4.0241,4.0319,4.0874,4.092,4.1307,4.2272,4.2312,4.256,4.3142,4.2912,4.2838,4.3059,4.2206,4.1647,4.1385,4.1162,4.085,4.054,4.054,4.038,4.0113,4.0113,0.0,0.0,0.0,0.0,0.0,0.0,0.0,0.0,0.0,0.0,0.0,0.0,0.0,0.0,0.0,0.0,0.0,0.0,0.0,0.0,0.0,0.0,0.0,0.0,0.0,0.0,0.0,0.0,0.0,0.0,0.0,0.0,0.0,0.0,0.0,0.0,0.0,0.0,0.0,3.972,3.981,3.9451,4.0068,4.0367,0.0,0.0,0.0,0.0,0.0,0.0,0.0,0.0,0.0,4.1403,4.1403,4.1403,4.1403,4.1403,4.1403,4.1403,4.1762,4.1961,4.1972,4.2312,4.2472,4.2472,4.2791,4.2731,4.2462,4.2092,4.2152,4.2432,0.0,0.0,0.0,0.0,4.2671,4.291,0.0,0.0,0.0,0.0,0.0,0.0,0.0,0.0,0.0,0.0,0.0,0.0,4.1115,4.0636,4.0294,4.0294,4.0179,4.0392,4.1105,4.1115,4.1647,4.2846,4.2893,4.3105,4.3497,4.3506,4.3241,4.2693,4.2262,4.2021,4.2021,4.1874,4.1538,4.1115,4.1115,4.0767,4.0113,4.0113,4.0179,4.0319,0.0,0.0,0.0,0.0,0.0,0.0,0.0,0.0,0.0,0.0,0.0,0.0,0.0,0.0,0.0,0.0,0.0,0.0,0.0,0.0,0.0,0.0,0.0,0.0,0.0,0.0,0.0,0.0,0.0,0.0,0.0,0.0,0.0,0.0,0.0,0.0,0.0,4.0337,4.0457,3.996,4.0786,4.1194,0.0,0.0,0.0,0.0,0.0,0.0,4.1643,4.1643,4.1733,4.1863,4.1912,4.1912,4.1912,4.1912,4.1912,4.1893,4.2391,4.2631,4.2661,4.31,4.329,4.329,4.329,4.329,4.326,4.2821,4.288,4.326,4.2791,4.291,4.329,4.329,4.329,4.329,0.0,0.0,0.0,0.0,0.0,0.0,0.0,0.0,0.0,0.0,0.0,4.1768,4.1768,4.1206,4.0874,4.0874,4.0392,4.0575,4.1693,4.1768,4.2266,4.34,4.3471,4.348,4.3506,4.3506,4.3241,4.2693,4.2664,4.2645,4.2635,4.2062,4.1789,4.1768,4.1768,4.1127,4.0113,4.0113,4.0392,4.0827,4.0331,0.0,0.0,0.0,0.0,0.0,0.0,0.0,0.0,0.0,0.0,0.0,0.0,0.0,0.0,0.0,0.0,0.0,0.0,0.0,0.0,0.0,0.0,0.0,0.0,0.0,0.0,0.0,0.0,0.0,0.0,0.0,0.0,0.0,0.0,0.0,0.0,0.0,0.0,4.1313,4.1373,0.0,0.0,0.0,0.0,4.1403,4.1403,4.1673,4.2321,4.2351,4.2601,4.319,4.32,4.32,4.32,4.32,4.32,4.32,4.325,4.325,4.326,4.329,4.329,4.329,4.329,4.329,4.329,4.326,4.326,4.329,4.326,4.326,4.329,4.329,4.329,4.329,0.0,0.0,0.0,4.3506,4.3506,4.3506,4.3506,4.333,4.3214,4.3214,4.2741,4.2241,4.1842,4.1251,4.092,4.092,4.0721,4.0943,4.1757,4.2144,4.2541,4.2985,4.3303,4.3506,4.3506,4.3169,4.3069,4.3214,4.2855,4.2901,4.3214,4.3005,4.2705,4.2352,4.1969,4.1375,4.0648,4.1024,4.1082,4.0932,4.1116,4.1442,0.0,0.0,0.0,0.0,0.0,0.0,0.0,0.0,0.0,0.0,0.0,0.0,0.0,0.0,0.0,0.0,0.0,0.0,0.0,0.0,0.0,0.0,0.0,0.0,0.0,0.0,0.0,0.0,0.0,0.0,0.0,0.0,0.0,0.0,0.0,0.0,0.0,4.1463,4.2132,0.0,4.2081,4.2402,4.2622,4.2622,4.2622,4.2711,4.297,4.3,4.307,4.329,4.329,4.329,4.329,4.329,4.329,4.329,4.329,4.329,4.329,4.329,4.329,4.329,4.329,4.329,4.329,4.329,4.329,4.329,4.329,4.329,4.329,4.329,4.329,4.329,0.0,0.0,0.0,4.3506,4.3506,4.3506,4.3506,4.3506,4.3506,4.3506,4.3041,4.2557,4.216,4.1584,4.1195,4.1195,4.1195,4.144,4.2052,4.2462,4.277,4.2976,4.3303,4.3506,4.3506,4.316,4.3151,4.3506,4.3151,4.316,4.3506,4.3506,4.3303,4.294,4.256,4.2129,4.1817,4.2502,4.2055,4.0932,4.1573,4.181,4.1821,0.0,0.0,0.0,0.0,0.0,0.0,0.0,0.0,0.0,0.0,0.0,0.0,0.0,0.0,0.0,0.0,0.0,0.0,0.0,0.0,0.0,0.0,0.0,0.0,0.0,0.0,0.0,0.0,0.0,0.0,0.0,0.0,0.0,0.0,4.2402,4.2541,4.2102,4.2801,4.313,4.275,4.307,4.329,4.329,4.329,4.329,4.329,4.329,4.329,4.329,4.329,4.329,4.329,4.329,4.329,4.329,4.329,4.329,4.329,4.3529,4.3638,4.3668,4.3878,4.3967,4.3967,4.3967,4.3967,4.3938,4.3728,4.3788,4.3967,4.3967,4.3967,4.3967,0.0,4.3506,4.3506,4.3506,4.3506,4.3506,4.3506,4.3506,4.3506,4.3506,4.3059,4.2703,4.2693,4.219,4.1832,4.1832,4.1832,4.2062,4.2655,4.2703,4.2976,4.3489,4.3506,4.3506,4.3506,4.3506,4.3543,4.3543,4.3543,4.3579,4.3579,4.3579,4.3579,4.3579,4.3562,4.3562,4.359,4.4389,4.3306,4.1071,4.1687,4.1881,4.1785,0.0,0.0,0.0,0.0,0.0,0.0,0.0,0.0,0.0,0.0,0.0,0.0,0.0,0.0,0.0,0.0,0.0,0.0,0.0,0.0,0.0,0.0,0.0,0.0,0.0,0.0,0.0,0.0,0.0,0.0,0.0,0.0,0.0,4.3309,4.329,4.329,4.329,4.329,4.329,4.329,4.329,4.329,4.329,4.329,4.329,4.329,4.329,4.329,4.3319,4.3319,4.3319,4.3349,4.3349,4.3349,4.3349,4.3349,4.3349,4.3379,4.4027,4.4347,4.4417,4.5067,4.5387,4.5398,4.5398,4.5428,4.5348,4.4647,4.4797,4.5366,4.5366,4.5366,4.5366,0.0,4.3506,4.3506,4.3506,4.3506,4.3506,4.3506,4.3506,4.3506,4.3506,4.3356,4.3142,4.2732,4.2557,4.2442,4.2442,4.2442,4.2537,4.2684,4.3069,4.333,4.3497,4.3506,4.3506,4.3506,4.4085,4.4378,4.4378,4.4966,4.5232,4.5232,4.5232,4.5232,4.5214,4.4835,4.4646,4.4682,4.49,4.458,4.3948,4.413,4.3653,4.2834,0.0,0.0,0.0,0.0,0.0,0.0,0.0,0.0,0.0,0.0,0.0,0.0,0.0,0.0,0.0,0.0,0.0,0.0,0.0,0.0,0.0,0.0,0.0,0.0,0.0,0.0,0.0,0.0,0.0,0.0,0.0,4.5177,4.4139,4.3409,4.329,4.329,4.329,4.329,4.329,4.329,4.329,4.329,4.329,4.329,4.329,4.329,4.329,4.3499,4.3997,4.4027,4.4267,4.4766,4.4766,4.4766,4.4766,4.4766,4.4766,4.4766,4.4945,4.5455,4.6195,4.6359,4.6874,4.7555,4.7555,4.7839,4.812,4.6737,4.6298,4.6471,4.6471,4.6471,4.6513,0.0,4.3506,4.3506,4.3506,4.3506,4.3506,4.3506,4.3506,4.3437,4.3196,4.3347,4.3286,4.2751,4.2884,4.305,4.305,4.305,4.305,4.305,4.3321,4.3653,4.3975,4.4011,4.4158,4.4497,4.4966,4.5214,4.5214,4.5663,4.5883,4.5883,4.5883,4.5883,4.5874,4.5567,4.5443,4.5443,4.5807,4.5787,4.5596,4.62,4.5471,4.4011,4.4067,4.3873,4.351,4.2994,4.2762,4.2701,4.2752,0.0,0.0,0.0,0.0,0.0,0.0,0.0,0.0,0.0,0.0,0.0,0.0,0.0,0.0,0.0,0.0,0.0,0.0,0.0,0.0,0.0,0.0,0.0,0.0,4.6172,4.5089,4.5407,4.4445,4.3818,4.4087,4.4147,4.4147,4.4147,4.4147,4.4147,4.4147,4.4147,4.4147,4.4147,4.4147,4.4296,4.4706,4.4736,4.511,4.5961,4.5981,4.6172,4.6599,4.6599,4.6599,4.6599,4.6877,4.7356,4.7939,4.8234,4.8707,4.9224,4.9224,4.9462,4.9693,0.0,0.0,0.0,0.0,4.836,4.8423,4.3506,4.3506,4.3506,4.3506,4.3506,4.3506,4.3506,4.3506,4.3303,4.276,4.3124,4.3205,4.2664,4.306,4.3391,4.3391,4.348,4.3543,4.3616,4.3653,4.3975,4.481,4.4847,4.5177,4.5883,4.5993,4.603,4.603,4.614,4.6177,4.6177,4.6177,4.6177,4.6177,4.6177,4.6177,4.6214,4.6938,4.6927,4.6571,4.7782,4.707,4.5199,4.4684,4.444,4.42,4.3146,4.3066,4.3498,4.3611,0.0,0.0,0.0,0.0,0.0,0.0,0.0,0.0,0.0,0.0,0.0,0.0,0.0,0.0,0.0,0.0,0.0,0.0,0.0,0.0,0.0,0.0,0.0,0.0,4.7542,4.6432,4.827,4.64,4.5031,4.5421,4.5357,4.5366,4.546,4.5357,4.5366,4.546,4.5481,4.5419,4.5325,4.5522,0.0,0.0,0.0,4.6244,4.7298,4.7267,4.775,4.8638,4.8638,4.8638,4.8652,4.9243,4.9569,4.9713,5.03,5.0627,5.0741,5.0741,5.0741,5.0677,4.9957,5.0029,5.057,5.057,5.057,5.057,4.3506,4.3506,4.3506,4.3506,4.3506,4.3506,4.3506,4.3506,4.3303,4.276,4.278,4.2645,4.2031,4.2491,4.2836,4.2836,4.325,4.3763,4.4443,4.448,4.4819,4.5626,4.5663,4.5736,4.5883,4.6535,4.6865,4.6865,4.7526,4.7819,4.7819,4.7819,4.7819,4.7819,4.7819,4.7819,4.7865,4.8003,4.7982,4.7904,4.8184,4.7436,4.6196,4.6624,4.6422,4.5941,4.5703,4.5384,4.504,4.5096,4.4776,4.4499,4.5263,4.55,0.0,0.0,0.0,0.0,0.0,0.0,0.0,0.0,0.0,0.0,0.0,0.0,0.0,0.0,0.0,0.0,0.0,0.0,0.0,4.9885,4.9313,4.9008,4.917,4.8745,4.797,4.6739,4.5819,4.5645,4.6511,4.5799,4.5666,4.6531,4.659,4.6192,4.5366,4.6882,4.7654,4.7321,4.8141,4.8986,4.9712,4.9712,4.9809,5.0,5.0,0.0,5.0,5.016,5.0661,5.1419,5.1532,5.2116,5.2887,5.2887,5.2887,5.2818,5.1825,5.1518,5.1631,5.1631,5.1631,5.1631,0.0,4.3506,4.3506,4.3506,4.3506,4.3506,4.3506,4.3506,4.3214,4.2372,4.276,4.2789,4.1906,4.258,4.3105,4.3105,4.3696,4.4452,4.5259,4.5296,4.5663,4.6461,4.6498,4.6682,4.7095,4.7489,4.7709,4.7709,4.8113,4.8296,4.8296,4.8296,4.8296,4.8296,4.8296,4.8296,4.8296,4.8296,4.8296,4.8296,4.8296,4.7909,4.7338,4.7396,4.7176,4.6864,4.6507,4.6259,4.6035,4.6035,4.5877,4.5785,4.6143,4.6244,4.6312,0.0,0.0,0.0,0.0,0.0,0.0,0.0,0.0,0.0,0.0,0.0,0.0,0.0,0.0,5.1742,5.1742,0.0,5.1578,5.1629,5.0763,5.0413,5.131,5.058,4.9592,4.8755,4.7698,4.7262,4.7798,4.7385,4.7283,4.7798,4.8353,4.8432,4.7878,4.8846,4.9311,4.9099,4.9623,5.0279,5.1136,5.1136,5.1428,5.1954,5.1954,5.1954,5.1954,5.1954,5.2238,5.268,5.268,5.2991,5.3518,5.3518,5.3518,5.3433,5.2904,5.268,5.268,5.268,5.268,5.268,0.0,4.3506,4.3506,4.3506,4.3506,4.3506,4.3506,4.3506,4.3123,4.2103,4.2762,4.2958,4.1916,4.2869,4.3667,4.3938,4.4562,4.525,4.6067,4.614,4.6498,4.7296,4.7333,4.7636,4.8296,4.8296,4.8296,4.8296,4.8296,4.8296,4.8296,4.8296,4.8296,4.8296,4.8296,4.8296,4.8296,4.8296,4.8416,4.8563,4.8563,4.8636,4.8735,4.8239,4.7963,4.7755,4.7239,4.7108,4.7216,4.7216,4.7112,4.702,4.717,4.7121,4.7022,4.7192,4.7665,0.0,0.0,0.0,0.0,0.0,0.0,0.0,0.0,5.0879,5.1404,5.1404,5.2013,5.2536,5.2536,5.2366,5.2504,5.3365,5.208,5.1576,5.328,5.2044,5.1019,5.1019,4.9891,4.9195,4.9396,4.9235,4.9195,4.9396,5.0204,5.0608,5.0397,5.076,5.0925,5.0703,5.0873,5.141,5.2205,5.2223,5.2645,5.3518,5.3518,5.3518,5.3518,5.3518,5.3518,5.3518,5.3518,5.3518,5.3518,5.3518,5.3518,5.3518,5.3518,5.3518,5.3518,5.3518,5.3518,5.3518,0.0,4.3506,4.3506,4.3506,4.3506,4.3506,4.3506,4.3506,4.3277,4.2674,4.2703,4.2557,4.1874,4.3022,4.4321,4.5526,4.57,4.6104,4.6892,4.6966,4.7333,4.8113,4.8186,4.8223,4.8296,4.8296,4.8296,4.8296,4.8296,4.8296,4.8296,4.8296,4.8296,4.8296,4.8296,4.8296,4.8296,4.8296,4.8746,4.9454,4.9454,4.9894,5.0498,5.0438,4.9988,4.9328,4.9268,4.9334,4.9428,4.9428,4.8654,4.7789,4.8446,4.8274,4.7921,4.8578,4.8815,4.8883,4.8883,4.9424,4.9981,4.9981,5.0541,5.1066,0.0,5.1641,5.2198,5.2198,5.2807,5.3382,5.3382,5.3332,5.3365,5.3501,5.3314,5.3246,5.3484,5.3314,5.3144,5.3144,5.1428,5.057,5.1469,5.0741,5.0589,5.1488,5.1653,5.134,5.0435,5.2134,5.2731,5.1776,5.2678,5.3229,5.3331,5.3331,5.3382,5.3518,5.3518,5.3518,5.3518,5.3518,5.3518,5.3518,5.3518,5.3518,5.3518,5.3518,5.3518,5.3518,5.3518,5.3518,5.3518,5.3518,5.3518,5.3518,0.0,0.0,4.3383,4.3096,4.3286,4.3374,4.3096,4.3041,4.2827,4.2262,4.2877,4.331,4.3053,4.4232,4.5488,4.6516,4.6608,4.6938,4.7746,4.7783,4.7966,4.8296,4.8296,4.8296,4.8296,4.8296,4.8296,4.8296,4.8296,4.8296,4.8296,4.8296,4.8563,4.905,4.905,4.9334,4.9738,4.9738,4.9958,5.0298,5.0298,5.0508,5.0802,5.0802,5.0875,5.0922,5.0482,5.0341,0.0,4.9985,4.951,4.9083,4.8983,4.8783,4.8597,4.8917,4.9018,4.9086,4.9526,5.0168,5.0744,5.0744,5.1285,5.1844,5.1844,5.2435,5.301,5.301,5.3281,5.3518,5.3518,5.3518,5.3518,5.3518,5.3518,5.3518,5.3518,5.3518,5.3518,5.3518,5.2731,5.2116,5.1921,5.1506,5.1433,5.1867,5.2487,5.2627,5.2238,5.3024,5.3297,5.2852,5.328,5.3518,5.3518,5.3518,5.3518,5.3518,5.3518,5.3518,5.3518,5.3518,5.3518,5.3518,5.3518,5.3518,5.3518,5.3518,5.3518,5.3518,5.3518,5.3518,5.3518,5.3518,5.3518,5.3518,0.0,0.0,0.0,4.3385,4.365,4.3579,4.2593,4.2612,4.2665,4.2403,4.3447,4.4351,4.4725,4.5643,4.6535,4.7379,4.7443,4.7672,4.826,4.8296,4.8296,4.8296,4.8296,4.8296,4.8296,4.8296,4.8406,4.8673,4.8673,4.8783,4.8994,4.8994,4.9334,4.9931,4.9931,5.0261,5.0802,5.0802,5.0949,5.1132,5.1132,5.1279,5.1453,5.1453,5.183,5.2234,5.1426,5.1312,5.1466,5.0952,5.0703,5.0459,4.9795,4.9432,4.9275,4.9283,4.9458,4.9729,5.027,5.0947,5.1505,5.1505,5.2063,5.2638,5.2638,5.3078,5.3518,5.3518,5.3518,5.3518,5.3518,5.3518,5.3518,5.3518,5.3518,5.3518,5.3518,5.3518,5.3518,5.3518,5.3518,5.3179,5.2401,5.233,5.233,5.233,5.3076,5.3518,5.3518,5.3518,5.3518,5.3518,5.3518,5.3518,5.3518,5.3518,5.3518,5.3518,5.3518,5.3518,5.3518,5.3518,5.3518,5.3518,5.3518,5.3619,5.3788,5.3788,5.3923,5.4126,5.4126,5.4126,5.4126,5.4126,5.3991,5.3788,0.0,0.0,0.0,4.4893,4.4957,4.4253,4.214,4.2412,4.3113,4.3742,4.4488,4.5474,4.6854,4.703,4.7379,4.8186,4.826,4.826,4.8296,4.8296,4.8296,4.8296,4.8296,4.8296,4.8296,4.8296,4.871,4.9574,4.9574,4.9968,5.0729,5.0729,5.0729,5.0765,5.0765,5.0765,5.0802,5.0802,5.1242,5.195,5.195,5.2417,5.3141,5.3141,5.3141,5.3067,5.2234,5.248,5.3109,5.3098,5.2633,5.1898,5.1254,5.054,4.9971,5.0064,5.0574,5.1133,5.1167,5.1708,5.2266,5.2266,5.2875,5.345,5.345,5.3484,5.3518,5.3518,5.3518,5.3518,5.3518,5.3518,5.3518,5.3518,5.3518,5.3518,5.3518,5.3518,5.3518,5.3518,5.3518,5.3501,5.3433,5.3433,5.3433,5.3433,5.3501,5.3518,5.3518,5.3518,5.3518,5.3518,5.3518,5.3518,5.3518,5.3518,5.3518,5.3518,5.3518,5.3518,5.3518,5.3518,5.3518,5.3518,5.3518,5.3923,5.4583,5.4583,5.5006,5.5631,5.5631,5.5631,5.5631,5.5631,5.5175,5.4583,0.0,0.0,0.0,4.3849,4.3816,4.343,4.2305,4.2665,4.3185,4.3406,4.4417,0.0,0.0,0.0,0.0,0.0,4.8296,4.8296,4.8296,4.8296,4.8296,4.8296,4.8296,4.8563,4.916,4.916,4.9564,5.0398,5.0398,5.0545,5.0802,5.0802,5.1096,5.161,5.161,5.1903,5.2407,5.2407,5.2553,5.2821,5.2821,5.2957,5.3214,5.3214,5.3214,5.3177,0.0,5.2957,5.3124,5.2621,5.2649,5.2774,5.2113,5.2099,5.2228,5.1766,5.1747,5.1928,5.1928,5.2503,5.3112,5.3112,5.3315,5.3518,5.3518,5.3518,5.3518,5.3518,5.3518,5.3518,5.3518,5.3518,5.3518,5.3518,5.3518,5.3518,5.3518,5.3923,5.4228,5.4228,5.4668,5.4955,5.4955,5.4076,5.3518,5.3518,5.3518,5.3518,5.3518,5.3518,5.3518,5.3518,5.3518,5.3518,5.3518,5.3518,5.3518,5.3518,5.3991,5.4499,5.4955,5.4955,5.4955,5.4955,5.4955,5.509,5.5344,5.5344,5.5462,5.5699,5.5699,5.5699,5.5699,5.5699,5.5834,5.5987,0.0,0.0,0.0,0.0,0.0,0.0,0.0,0.0,0.0,0.0,0.0,0.0,0.0,0.0,0.0,0.0,0.0,4.8296,4.8296,4.86,4.8746,4.8746,4.904,4.9444,5.0004,5.0041,5.0408,5.1242,5.1242,5.1389,5.1673,5.1673,5.194,5.2417,5.2417,5.2711,5.3214,5.3214,5.3214,5.3214,5.3214,5.3214,5.3214,5.3214,5.3398,0.0,5.3618,5.3812,5.3931,5.319,5.3277,5.3676,5.3264,5.3291,5.3358,5.2585,5.255,5.2739,5.2739,5.3112,5.3518,5.3518,5.3518,5.3518,5.3518,5.3518,5.3518,5.3518,5.3721,5.389,5.389,5.4126,5.4296,5.4296,5.4296,5.4296,5.4296,5.4702,5.5006,5.5006,5.5395,5.5699,5.5699,5.482,5.4296,5.4296,5.4296,5.4296,5.4296,5.4296,5.4296,5.4296,5.4296,5.4296,5.4296,5.4296,5.4296,5.4279,5.4769,5.5243,5.5699,5.5699,5.5699,5.5699,5.5699,5.5834,5.6071,5.6071,5.624,5.6494,5.6494,5.6494,5.6494,5.6494,5.6799,5.7103,0.0,0.0,0.0,0.0,0.0,0.0,0.0,0.0,0.0,0.0,0.0,0.0,0.0,0.0,0.0,0.0,0.0,0.0,4.837,4.9123,4.961,4.9647,5.0398,5.0839,5.0875,5.0875,5.1242,5.206,5.206,5.2454,5.3214,5.3214,5.3214,5.3214,5.3214,5.3214,5.3214,5.3214,5.3214,5.3214,5.3214,5.3214,5.3214,5.3251,5.3728,5.4399,5.4436,5.4987,5.5548,5.473,5.4499,5.4566,5.465,5.4142,5.3395,5.2644,5.2942,5.3518,5.3518,5.3518,5.3518,5.3518,5.3518,5.3518,5.3518,5.3518,5.3518,5.3551,5.4093,5.46,5.4651,5.5243,5.5699,5.5699,5.5699,5.5699,5.5699,5.5733,5.5767,5.5767,5.58,5.58,5.58,5.58,5.58,5.58,5.5733,5.5699,5.5699,5.5699,5.5699,5.5699,5.5699,5.5699,5.5699,5.5699,5.5733,5.5767,5.5767,5.5767,5.58,5.58,5.58,5.58,5.58,5.6206,5.6867,5.6867,5.7273,5.79,5.79,5.79,5.79,5.79,5.79,5.778,0.0,0.0,0.0,0.0,0.0,0.0,0.0,0.0,0.0,0.0,0.0,0.0,0.0,0.0,0.0,0.0,0.0,0.0,4.9233,4.95,4.9858,5.0472,5.0692,5.1096,5.1693,5.1683,5.2087,5.2884,5.2884,5.2994,5.3214,5.3214,5.3214,5.3214,5.3214,5.3214,5.3214,5.3214,5.3214,5.3214,5.3214,5.3214,5.3287,5.3885,5.4216,5.4473,5.5071,5.5794,5.6381,5.5574,5.5348,5.5404,5.5419,5.4892,5.4264,5.408,5.3759,5.3518,5.3518,5.3518,5.3518,5.3518,5.3518,5.3518,5.3518,5.3518,5.3653,5.4194,5.4465,5.4769,5.5327,5.5564,5.5699,5.5699,5.5699,5.5699,5.5699,5.6172,5.6528,5.6528,5.7002,5.734,5.734,5.734,5.734,5.734,5.6308,5.5699,5.5699,5.5699,5.5699,5.5699,5.5699,5.5699,5.5699,5.5699,5.5969,5.6528,5.6528,5.6799,5.734,5.734,5.734,5.734,5.734,5.7442,5.7611,5.7611,5.7712,5.79,5.79,5.79,5.79,5.79,5.79,5.7866,0.0,0.0,0.0,0.0,0.0,0.0,0.0,0.0,0.0,0.0,0.0,0.0,0.0,0.0,0.0,0.0,0.0,0.0,0.0,5.0261,5.0849,5.1316,5.1673,5.204,5.2527,5.2527,5.2747,5.3214,5.3214,5.3214,5.3214,5.3214,5.3214,5.3214,5.3214,5.3214,5.3214,5.3214,5.3214,0.0,0.0,5.3728,5.3812,5.462,5.4931,5.5055,5.5852,5.642,5.6685,5.5546,5.5395,5.5571,5.4934,5.4684,5.4544,5.42,5.3799,5.3518,5.3518,5.3518,5.3518,5.3518,5.3518,5.3585,5.3923,5.3991,5.4194,5.4938,5.5344,5.5683,5.6122,5.6461,5.6664,5.6664,5.6664,5.6664,5.6664,5.7036,5.7273,5.7273,5.7663,5.79,5.79,5.79,5.79,5.79,5.7137,5.6664,5.6664,5.6664,5.6664,5.6664,5.6664,5.6664,5.6664,5.6664,5.6867,5.7273,5.7273,5.7476,5.79,5.79,5.79,5.79,5.79,5.79,5.79,5.79,5.79,5.7934,5.8254,5.8389,5.8423,5.8761,5.8863,5.8863,0.0,0.0,0.0,0.0,0.0,0.0,0.0,0.0,0.0,0.0,4.5507,4.5965,4.5451,4.5915,0.0,0.0,0.0,0.0,0.0,0.0,5.206,5.2171,5.2821,5.3214,5.3214,5.3214,5.3214,5.3214,5.3214,5.3214,5.3214,5.3214,5.3214,5.3214,5.3214,5.3214,5.3214,5.3214,5.3251,5.3434,5.4106,5.4473,5.4645,0.0,5.5629,5.5772,5.6441,5.6623,5.6403,5.5059,5.5044,5.5306,5.393,5.3946,5.4343,5.3684,5.3518,5.3518,5.3518,5.3518,5.3518,5.3518,5.3518,5.3687,5.4431,5.4617,5.4837,5.5665,5.6341,5.6833,5.6934,5.7476,5.79,5.79,5.79,5.79,5.79,5.79,5.79,5.79,5.79,5.79,5.79,5.79,5.7934,5.8017,5.8069,5.7983,5.79,5.79,5.79,5.79,5.79,5.79,5.79,5.79,5.79,5.79,5.79,5.79,5.79,5.8001,5.8069,5.8051,5.817,5.8204,5.8204,5.8204,5.8204,5.8272,5.8896,5.9148,5.9216,5.9877,6.0114,6.0114,0.0,0.0,0.0,0.0,0.0,0.0,0.0,0.0,0.0,0.0,4.4789,4.4865,4.4776,4.5294,0.0,0.0,0.0,0.0,0.0,0.0,0.0,5.2957,5.3141,5.3214,5.3214,5.3214,5.3214,5.3214,5.3214,5.3214,5.3214,5.3214,5.3214,5.3214,5.3214,5.3214,5.3214,5.3214,5.3581,5.4216,5.4326,5.4803,5.542,5.5619,5.5701,0.0,5.5835,5.5518,5.4954,5.468,5.468,5.4653,5.3783,5.3584,5.3685,5.3534,5.3518,5.3518,5.3518,5.3518,5.3518,5.3518,5.3518,5.3687,5.4431,5.4617,5.4972,5.6325,5.6697,5.7002,5.7595,5.7832,5.79,5.79,5.79,5.79,5.79,5.79,5.79,5.79,5.79,5.79,5.79,5.79,5.8152,5.8743,5.881,5.8558,5.7934,5.79,5.79,5.79,5.79,5.79,5.79,5.79,5.79,5.79,5.79,5.79,5.7934,5.8524,5.881,5.8844,5.9438,5.9708,5.9708,5.9708,5.9708,5.9742,5.9844,5.9911,5.9911,6.0047,6.0114,6.0114,0.0,0.0,0.0,0.0,0.0,0.0,0.0,0.0,0.0,0.0,4.4615,4.4615,4.4615,4.5213,4.6025,0.0,0.0,0.0,0.0,0.0,0.0,5.2633,5.298,5.3214,5.3214,5.3214,5.3214,5.3214,0.0,5.3214,5.3214,5.3214,5.3214,5.3214,5.3214,5.3434,5.3801,5.3801,5.4289,5.5071,5.5464,5.564,5.5715,5.6159,5.6067,0.0,5.4815,5.4575,5.4544,5.4171,5.4009,5.3979,5.3618,5.3518,5.3518,5.3518,5.3518,5.3518,5.3518,5.3518,5.3585,5.3991,5.4059,5.4363,5.548,5.575,5.6055,5.7137,5.7374,5.7476,5.7832,5.822,5.8457,5.8457,5.8457,5.8626,5.8998,5.8727,5.8626,5.8998,5.9032,5.9032,5.9032,5.9032,5.9201,5.9573,5.9573,5.9438,5.9066,5.9032,5.9032,5.9032,5.9032,5.9032,5.9032,5.9032,5.9032,5.9032,5.9032,5.9032,5.9066,5.9404,5.9573,5.9607,5.9945,6.0114,6.0114,6.0114,6.0114,6.0148,6.0554,6.0723,6.0757,6.1163,6.1298,6.1298,0.0,0.0,0.0,0.0,0.0,0.0,0.0,4.4615,4.4668,4.4804,4.4838,4.4905,4.5041,4.5432,0.0,0.0,0.0,0.0,0.0,0.0,0.0,0.0,5.2576,5.2959,5.2959,0.0,0.0,5.2959,5.2959,0.0,0.0,0.0,0.0,0.0,5.3214,5.3654,5.4399,5.4399,5.495,0.0,0.0,5.6321,5.6008,0.0,0.0,0.0,0.0,5.3864,5.428,5.3684,5.3518,5.3518,5.3518,5.3518,5.3518,5.3518,5.3518,5.3518,5.3518,5.3619,5.3856,5.4482,5.4702,5.5175,5.6494,5.6799,5.7002,5.7764,5.8035,5.8118,5.8118,5.8727,5.925,5.925,5.925,5.9419,6.0013,5.9607,5.9453,6.0047,6.0114,6.0114,6.0114,6.0114,6.0182,6.0351,6.0486,6.0452,6.0114,6.0114,6.0114,6.0114,6.0114,6.0114,6.0114,6.0114,6.0114,6.0114,6.0114,6.0114,6.0114,6.0283,6.0351,6.0351,6.052,6.0588,6.0588,6.0588,6.0588,6.0655,6.1298,6.1535,6.1603,6.2197,6.24,6.24,0.0,0.0,0.0,0.0,0.0,0.0,0.0,4.4615,4.4838,4.55,4.5602,4.5838,4.653,4.6075,0.0,0.0,0.0,0.0,0.0,0.0,0.0,0.0,0.0,0.0,0.0,0.0,0.0,5.2194,5.2194,0.0,0.0,0.0,0.0,0.0,0.0,5.3654,5.4399,5.4399,0.0,0.0,0.0,0.0,0.0,0.0,0.0,0.0,0.0,5.3534,5.3584,5.3501,5.3518,5.3518,5.3518,5.3518,5.3518,5.3518,5.3518,5.3518,5.3518,5.3991,5.4516,5.4583,5.5108,5.58,5.663,5.6799,5.7002,5.7764,5.8423,5.8912,5.8912,5.9505,6.0013,6.0013,6.0013,6.0013,6.008,6.0047,6.0013,6.008,6.0114,6.0114,6.0114,6.0114,6.0419,6.1129,6.1806,6.1569,6.0182,6.0114,6.0114,6.0114,6.0114,6.0114,6.0114,6.0114,6.0114,6.0114,6.0114,6.0114,6.0114,6.0858,6.1197,6.1231,6.1907,6.2197,6.2197,6.2197,6.2197,6.2197,6.2245,6.2299,6.2333,6.24,6.24,6.24,0.0,0.0,0.0,0.0,0.0,0.0,0.0,4.565,4.6022,4.6312,4.6346,4.665,4.7394,4.721,4.7378,0.0,0.0,0.0,0.0,0.0,0.0,0.0,0.0,0.0,0.0,0.0,5.1692,5.2101,5.2101,0.0,0.0,0.0,0.0,0.0,0.0,5.3036,5.3815,5.4281,0.0,0.0,0.0,0.0,0.0,0.0,0.0,0.0,0.0,0.0,5.3518,5.3518,5.3518,5.3518,5.3518,5.3518,5.3518,5.3518,5.3518,5.3585,5.4025,5.4363,5.4803,5.5683,5.6156,5.6562,5.7273,5.7442,5.7679,5.8423,5.8776,5.9148,5.9573,6.0317,6.0825,6.0825,6.0825,6.0994,6.14,6.1095,6.0994,6.1434,6.1467,6.1467,6.1467,6.1467,6.1603,6.1941,6.2212,6.211,6.1501,6.1467,6.1467,6.1467,6.1467,6.1467,6.1467,6.1467,6.1467,6.1467,6.1467,6.1467,6.1501,6.1806,6.1941,6.1975,6.2245,6.24,6.24,6.24,6.24,6.24,6.24,6.24,6.24,6.24,6.24,6.24,0.0,0.0,0.0,0.0,0.0,0.0,4.6041,4.6481,4.6887,4.709,4.7124,4.7428,4.8157,4.8225,4.8225,4.8225,0.0,0.0,0.0,0.0,0.0,0.0,0.0,0.0,0.0,0.0,5.1021,5.1494,5.1494,5.1494,0.0,0.0,5.1687,5.1462,0.0,0.0,0.0,0.0,0.0,0.0,0.0,0.0,0.0,0.0,0.0,0.0,0.0,0.0,0.0,0.0,0.0,5.3518,5.3518,5.3653,5.3788,5.3551,5.3653,5.3923,5.4482,5.4905,5.548,5.6528,5.6968,5.7273,5.778,5.8051,5.8355,5.8878,5.9351,5.9844,6.0351,6.1095,6.1637,6.1637,6.1637,6.1806,6.2333,6.1941,6.1806,6.2347,6.24,6.24,6.24,6.24,6.24,6.24,6.24,6.24,6.24,6.24,6.24,6.24,6.24,6.24,6.24,6.24,6.24,6.24,6.24,6.24,6.24,6.24,6.24,6.24,6.24,6.24,6.24,6.24,6.24,6.2434,6.2618,6.2719,6.2753,6.2956,6.3024,6.3024,0.0,0.0,0.0,0.0,0.0,0.0,0.0,4.68,4.7056,4.7785,4.7887,4.8157,4.8917,4.8984,4.8984,4.8984,0.0,0.0,0.0,0.0,0.0,0.0,0.0,0.0,0.0,0.0,5.0019,5.0033,5.0033,5.0033,5.0047,5.077,5.1511,5.2201,0.0,0.0,0.0,0.0,0.0,0.0,0.0,0.0,5.3518,0.0,0.0,0.0,0.0,0.0,0.0,0.0,0.0,0.0,0.0,5.3991,5.4431,5.3721,5.4025,5.4583,5.4617,5.5649,5.6799,5.6799,5.734,5.79,5.79,5.8457,5.8979,5.9013,6.0197,6.1298,6.1298,6.1873,6.24,6.24,6.24,6.2381,6.24,6.2381,6.2381,6.24,6.24,6.24,6.24,6.24,6.24,6.24,6.24,6.24,6.24,6.24,6.24,6.24,6.24,6.24,6.24,6.24,6.24,6.24,6.24,6.24,6.24,6.24,6.24,6.24,6.24,6.24,6.24,6.24,6.24,6.2448,6.3193,6.3477,6.3579,6.4309,6.458,6.458,0.0,0.0,0.0,0.0,0.0,0.0,0.0,4.797,4.8376,4.8597,4.8631,4.8732,4.8984,4.9018,4.9018,4.9018,0.0,0.0,0.0,0.0,0.0,0.0,0.0,0.0,0.0,0.0,4.9551,5.0004,5.0004,5.0004,5.0053,5.0258,5.0506,5.0802,5.1287,5.2077,0.0,0.0,0.0,0.0,5.3946,5.3701,5.3518,0.0,0.0,0.0,0.0,0.0,0.0,0.0,0.0,0.0,0.0,0.0,0.0,5.4921,5.5158,5.548,5.5953,5.6427,5.6934,5.7408,5.7712,5.8035,5.8558,5.881,5.9284,6.0332,6.096,6.1467,6.1941,6.2265,6.24,6.24,6.24,6.24,6.24,6.24,6.24,6.24,6.24,6.24,6.24,6.24,6.24,6.24,6.2854,6.3159,6.3159,6.3632,6.3429,6.2434,6.24,6.24,6.24,6.24,6.24,6.24,6.24,6.2651,6.3159,6.3159,6.3429,6.3903,6.3903,6.3903,6.3903,6.3903,6.3903,6.3937,6.4174,6.4241,6.4275,6.4512,6.4613,6.4613,0.0,0.0,0.0,0.0,0.0,0.0,0.0,4.8698,4.9018,4.9018,4.9018,4.9018,4.9018,4.9018,4.9018,4.9018,0.0,0.0,0.0,0.0,0.0,0.0,0.0,0.0,0.0,4.9018,4.9195,4.9605,4.9605,4.9654,4.9688,4.9929,5.0207,5.0541,5.1285,5.2063,0.0,0.0,0.0,0.0,5.3518,5.3518,5.3518,0.0,0.0,0.0,0.0,0.0,0.0,0.0,0.0,0.0,0.0,0.0,0.0,0.0,5.6325,5.6562,5.6765,5.7002,5.734,5.7798,5.79,5.8084,5.881,5.9216,5.9757,6.1028,6.1535,6.1839,6.2333,6.24,6.24,6.24,6.24,6.24,6.24,6.24,6.24,6.24,6.2651,6.2821,6.2821,6.3057,6.3226,6.3226,6.3666,6.3917,6.3917,6.4343,6.4174,6.326,6.3226,6.3226,6.3226,6.3226,6.3226,6.3226,6.3226,6.3463,6.3917,6.3917,6.4174,6.4613,6.4613,6.4613,0.0,6.4613,6.4613,6.4647,6.4918,6.5019,6.5053,6.5324,6.5425,6.5425,0.0,0.0,0.0,0.0,0.0,0.0,0.0,0.0,0.0,0.0,4.9018,4.9018,4.9018,4.9018,4.9018,0.0,0.0,0.0,0.0,0.0,0.0,0.0,0.0,0.0,0.0,4.9018,4.9018,4.9018,4.9018,4.9018,4.9086,4.9763,5.0507,5.1302,5.1995,5.2739,0.0,0.0,0.0,0.0,5.3518,5.3518,0.0,0.0,0.0,0.0,0.0,0.0,0.0,0.0,0.0,0.0,0.0,0.0,0.0,0.0,0.0,0.0,0.0,5.7374,5.79,5.79,5.7934,5.8152,5.8912,5.9674,0.0,6.1231,6.1907,6.24,6.24,6.24,6.24,6.24,6.24,6.24,6.24,6.2468,6.2502,6.257,6.3159,6.3579,6.3579,6.4208,6.4613,6.4613,6.4647,6.4681,6.4681,6.4715,6.4749,6.4749,6.4749,6.4715,6.4613,6.4613,6.4613,6.4613,6.4613,6.4613,6.4681,6.4681,6.4715,6.4749,6.4749,6.4749,6.4749,6.4749,6.4749,6.4816,6.5493,6.5784,6.5886,6.6542,6.6791,6.6791,0.0,0.0,0.0,0.0,0.0,0.0,0.0,0.0,0.0,0.0,0.0,4.9018,4.9018,4.9018,0.0,0.0,0.0,0.0,0.0,0.0,0.0,0.0,0.0,0.0,0.0,4.9018,4.9018,4.9018,4.9018,4.9289,4.9846,5.0015,5.0777,5.2063,5.2232,5.2739,0.0,0.0,0.0,0.0,5.3518,5.3518,0.0,0.0,0.0,0.0,5.3518,5.3518,0.0,0.0,0.0,0.0,0.0,0.0,0.0,0.0,5.7746,5.7866,5.7697,0.0,5.79,5.79,5.8321,5.893,0.0,6.0452,6.1231,6.1975,6.2299,6.24,6.24,6.24,6.24,6.24,6.24,6.24,6.24,6.2888,6.3463,6.4005,6.4241,6.4343,6.4343,6.4512,6.4613,6.4613,6.5121,6.5425,6.5425,6.5967,6.6305,6.6305,6.6305,6.573,6.4613,6.4613,6.4613,6.4613,6.4613,6.4884,6.5425,6.5425,6.573,6.6305,6.6305,6.6305,6.6305,6.6305,6.6305,6.6305,6.6474,6.6542,6.6576,6.6724,6.6791,6.6791,0.0,0.0,0.0,0.0,0.0,0.0,0.0,0.0,0.0,0.0,0.0,0.0,0.0,0.0,0.0,0.0,0.0,0.0,0.0,0.0,0.0,0.0,0.0,0.0,4.9018,4.9018,4.9018,4.9018,4.9323,4.9695,5.0117,5.0777,5.1522,5.2334,5.2706,0.0,0.0,0.0,5.3518,5.3518,5.3518,0.0,0.0,0.0,0.0,0.0,5.3518,5.3721,0.0,5.4465,5.504,5.575,0.0,0.0,0.0,0.0,5.79,5.79,5.79,5.79,5.8001,5.8321,5.8693,5.9284,6.0419,6.0994,6.1501,6.2245,6.24,6.24,6.24,6.24,6.2516,6.2854,6.2888,6.3024,6.3362,6.3768,6.4174,6.4546,6.4884,6.5087,6.5087,6.5425,6.5628,6.5628,6.5967,6.6203,6.6203,6.6576,6.6791,6.6791,6.6791,6.644,6.5628,6.5628,6.5628,6.5628,6.5628,6.5831,6.6203,6.6203,6.644,6.6791,6.6791,6.6791,6.6791,6.6791,6.6791,6.6791,6.6791,6.6791,6.6791,6.6791,6.6791,6.6791,0.0,0.0,0.0,0.0,0.0,0.0,0.0,0.0,0.0,0.0,0.0,0.0,0.0,0.0,0.0,0.0,0.0,0.0,0.0,0.0,0.0,0.0,0.0,4.9018,4.9018,4.9018,4.9052,4.9187,4.9796,5.0218,5.0455,5.1725,5.2367,5.2503,5.3213,0.0,0.0,5.3518,5.3518,5.3518,5.3518,0.0,0.0,0.0,0.0,0.0,0.0,0.0,0.0,5.4854,5.575,5.6833,5.6934,0.0,0.0,0.0,0.0,0.0,5.8017,5.8051,5.822,5.8844,5.9182,5.9689,6.0994,6.14,6.1637,6.2245,6.24,6.24,6.24,6.2482,6.2753,6.3409,6.3579,6.3937,6.4647,6.4783,6.4816,6.4918,6.5493,6.5865,6.5865,6.644,6.6791,6.6791,6.6791,6.6791,6.6791,6.6791,6.6791,6.6791,6.6791,6.6791,6.6791,6.6791,6.6791,6.6791,6.6791,6.6791,6.6791,6.6791,6.6791,6.6791,6.6791,6.6791,6.6791,6.6791,6.6791,6.6791,6.6791,6.6791,6.6791,6.6791,6.6791,6.6791,0.0,0.0,0.0,0.0,0.0,0.0,0.0,0.0,0.0,0.0,0.0,0.0,0.0,0.0,0.0,0.0,0.0,0.0,0.0,0.0,0.0,0.0,4.9018,4.9018,4.9018,4.9018,4.9323,4.9932,5.0049,5.0744,5.1961,5.2198,5.2672,5.3315,5.345,5.3518,5.3518,5.3518,5.3518,5.3518,5.3518,0.0,0.0,0.0,0.0,0.0,0.0,0.0,0.0,5.6055,5.6596,5.69,5.7509,0.0,0.0,0.0,0.0,0.0,5.866,5.881,5.8844,5.8979,5.9979,6.1028,6.1264,6.1772,6.2245,6.24,6.24,6.24,6.24,6.2922,6.3376,6.3477,6.4018,6.4681,6.5446,6.5527,6.5764,6.6406,6.6576,6.6643,6.6643,6.6724,6.6791,6.6791,6.6791,6.6791,6.6791,6.6791,6.6791,6.6791,6.6791,6.6791,6.6791,6.6791,6.6791,6.6791,6.6791,6.6791,6.6791,6.6791,6.6791,6.6791,6.6791,6.6791,6.6791,6.6791,6.6791,6.6791,6.6791,6.6791,6.6791,6.6791,6.6791,6.6791,0.0,0.0,0.0,0.0,0.0,0.0,0.0,0.0,0.0,0.0,0.0,0.0,0.0,0.0,0.0,0.0,0.0,0.0,0.0,0.0,0.0,4.9018,4.939,4.939,4.9018,4.939,4.9778,5.0117,5.0879,5.1623,5.23,5.2739,5.3145,5.3518,5.3518,5.3518,5.3518,5.3518,5.3518,5.3518,0.0,0.0,0.0,0.0,0.0,0.0,0.0,0.0,0.0,0.0,5.707,5.7442,5.7798,0.0,0.0,0.0,0.0,0.0,5.8912,5.9588,6.025,6.025,6.0791,6.14,6.1806,6.2144,6.24,6.24,6.24,6.24,6.24,6.299,6.3748,6.4546,6.5324,6.5933,6.6237,6.6305,6.644,6.6757,6.6791,6.6791,6.6791,6.6791,6.6791,6.6791,6.6791,6.6791,6.6791,6.6791,6.6791,6.6791,6.6791,6.6791,6.6791,6.6791,6.6791,6.6791,6.6791,6.6791,6.6791,6.6791,6.6791,6.6791,6.6791,6.6791,6.6791,6.6791,6.6791,6.6791,6.6791,6.6791,6.6859,6.7252,6.7658,6.8064,0.0,0.0,0.0,0.0,0.0,0.0,0.0,0.0,0.0,0.0,0.0,0.0,0.0,0.0,0.0,0.0,0.0,0.0,0.0,0.0,4.9255,4.9255,4.9965,4.9999,4.9255,4.9965,5.0439,5.0624,5.1758,5.2401,5.2604,5.3213,5.3518,5.3518,5.3518,5.3518,5.3518,5.3518,5.3518,5.3518,0.0,0.0,0.0,0.0,0.0,0.0,0.0,0.0,0.0,0.0,0.0,0.0,0.0,0.0,0.0,5.8152,5.8693,5.9246,5.9136,6.0194,6.1274,6.1155,6.136,6.1704,6.2245,6.24,6.24,6.24,6.24,6.2468,6.2618,6.3396,6.4444,6.573,6.644,6.6791,6.6791,6.6791,6.6791,6.6791,6.6791,6.6791,6.6791,6.6791,6.6791,6.6791,6.6791,6.6791,6.6791,6.6791,6.6791,6.6791,6.6791,6.6859,6.7083,6.7083,6.696,6.6791,6.6791,6.6791,6.6791,6.6791,6.6791,6.6791,6.696,6.7083,6.7062,6.7265,6.7354,6.7354,6.7354,6.7354,6.7421,6.7963,6.8571,6.9113,0.0,0.0,0.0,0.0,0.0,0.0,0.0,0.0,0.0,0.0,0.0,0.0,0.0,0.0,0.0,0.0,0.0,0.0,0.0,0.0,5.0015,5.0015,5.0744,5.0777,5.0049,5.0744,5.1438,5.2131,5.2266,5.2672,5.3416,5.3484,5.3518,5.3518,5.3518,5.3518,5.3518,5.3518,5.3518,5.3518,5.3518,0.0,0.0,0.0,0.0,0.0,0.0,0.0,0.0,0.0,0.0,0.0,0.0,0.0,5.8912,5.8912,5.9419,5.9939,5.9556,6.0351,6.12,6.0763,6.1494,6.2333,6.24,6.24,6.24,6.24,6.24,6.2618,6.3274,6.458,6.5797,6.6588,6.6757,6.6791,6.6791,6.6791,6.6791,6.6791,6.6791,6.6791,6.6791,6.6791,6.6791,6.6791,6.6791,6.6791,6.6791,6.6791,6.6791,6.6791,6.6791,6.7151,6.7793,6.7827,6.7489,6.6791,6.6791,6.6791,6.6791,6.6791,6.6791,6.6825,6.7523,6.7827,6.7895,6.8639,6.8944,6.8944,6.8944,6.8944,6.8944,6.8977,6.9045,6.9113,0.0,0.0,0.0,0.0,0.0,0.0,0.0,0.0,0.0,0.0,0.0,0.0,0.0,0.0,0.0,0.0,0.0,0.0,0.0,0.0,5.0304,5.0777,5.1488,5.1758,5.1454,5.1758,5.2029,5.23,5.2807,5.3213,5.3518,5.3518,5.3518,5.3518,5.3518,5.3518,5.3518,5.3518,5.3518,5.3551,5.3991,5.416,0.0,0.0,0.0,0.0,0.0,0.0,0.0,0.0,5.79,5.8001,5.8457,5.8776,5.9081,5.9573,5.9722,5.9678,5.9556,5.9619,5.9695,5.9523,6.0395,6.146,6.2243,6.1255,6.0717,6.2676,6.2501,6.2557,6.4491,6.5324,6.5933,6.6677,6.6791,6.6791,6.6791,6.6791,6.6791,6.6791,6.6791,6.6791,6.6791,6.6791,6.6791,6.6791,6.6791,6.6994,6.7455,6.7489,6.7726,6.8233,6.8233,6.8368,6.8639,6.8639,6.8504,6.8233,6.8233,6.8233,6.8233,6.8233,6.8233,6.8267,6.8538,6.8639,6.8673,6.8977,6.9113,6.9113,6.9113,6.9383,6.9755,6.9755,7.006,7.0466,0.0,0.0,0.0,0.0,0.0,0.0,0.0,0.0,0.0,0.0,0.0,0.0,0.0,0.0,0.0,0.0,0.0,0.0,0.0,5.0498,5.1014,5.1539,5.2249,5.2672,5.2672,5.2672,5.2672,5.2672,5.3247,5.3518,5.3518,5.3518,5.3518,5.3518,5.3518,5.3518,5.3518,5.3518,5.3619,5.3856,5.4001,5.4424,0.0,0.0,0.0,0.0,0.0,0.0,0.0,0.0,5.8051,5.8355,5.8844,5.9317,5.9734,5.9847,6.0164,6.0171,5.9014,5.9307,5.9653,5.8519,5.9147,6.0279,6.1335,6.0596,6.0315,6.2482,6.2949,6.3529,6.5369,6.5865,6.6203,6.6724,6.6791,6.6791,6.6791,6.6791,6.6791,6.6791,6.6791,6.6791,6.6791,6.6791,6.6893,6.7151,6.7151,6.7489,6.8233,6.8267,6.8538,6.9079,6.9113,6.9214,6.9451,6.9451,6.9553,6.9789,6.9789,6.9553,6.9113,6.9113,6.9113,6.9113,6.935,6.9451,6.9451,6.9688,6.9789,6.9789,6.9789,7.0094,7.0534,7.0534,7.0872,7.1289,0.0,0.0,0.0,0.0,0.0,0.0,0.0,0.0,0.0,0.0,0.0,0.0,0.0,0.0,0.0,0.0,0.0,0.0,4.9731,5.1313,5.2283,5.2283,5.3061,5.3467,5.3467,5.3501,5.3518,5.3518,5.3518,5.3518,5.3518,5.3518,5.3518,5.3518,5.3518,5.3518,5.3518,5.3501,5.3923,5.4497,5.337,5.4035,5.5661,0.0,0.0,0.0,0.0,0.0,0.0,0.0,5.8389,5.9013,5.9013,6.008,6.1051,5.986,6.0872,6.1615,5.7961,5.9631,6.148,5.7869,5.79,5.8959,5.9617,6.0702,6.1587,6.1694,6.3835,6.5696,6.5717,6.6305,6.6791,6.6791,6.6791,6.6791,6.6791,6.6791,6.6791,6.6791,6.6791,6.6791,6.6791,6.6791,6.7117,6.7861,6.7895,6.8267,6.9079,6.9113,6.9113,6.9113,6.9113,6.9451,7.0217,7.0217,7.0567,7.1289,7.1289,7.0511,6.9113,6.9113,6.9113,6.9147,6.9891,7.0217,7.0285,7.1007,7.1289,7.1289,7.1289,7.1289,7.1289,7.1289,7.1289,7.1289,0.0,0.0,0.0,0.0,0.0,0.0,0.0,0.0,0.0,0.0,0.0,0.0,0.0,0.0,0.0,0.0,0.0,0.0,5.1397,5.1343,5.1469,5.2,5.2232,5.2365,5.2365,5.311,5.3518,5.3518,5.3518,5.3518,5.3518,5.3518,5.3518,5.3518,5.3518,5.3518,5.3467,5.3212,5.3652,5.4529,5.3659,5.4579,5.6421,0.0,0.0,0.0,0.0,0.0,0.0,0.0,0.0,0.0,6.0452,6.0926,6.1152,6.049,6.0705,6.0522,5.7761,5.7776,5.8122,5.6207,5.7008,5.8072,5.7426,5.7531,5.8577,6.1349,6.3645,6.5401,6.6327,6.5916,6.5734,6.6631,6.6791,6.6791,6.6791,6.6791,6.6791,6.6791,6.6791,6.6791,6.6791,6.7286,6.7658,6.7895,6.8436,6.9079,6.9823,6.9857,7.0094,7.0635,7.0669,7.077,7.0973,7.0973,7.1075,7.1289,7.1289,7.1052,7.0669,7.0669,7.0669,7.0669,7.0872,7.0973,7.1007,7.1188,7.1289,7.1289,7.1289,7.1289,7.1289,7.1289,7.1289,7.1289,0.0,0.0,0.0,0.0,0.0,0.0,0.0,0.0,0.0,0.0,0.0,0.0,0.0,0.0,0.0,0.0,0.0,0.0,0.0,0.0,5.128,5.1303,5.1303,5.1303,5.1303,5.2312,5.287,5.287,5.3297,5.3297,5.287,5.3314,5.328,5.2887,5.3314,5.3653,5.3889,5.319,5.3902,5.5355,5.4013,5.4731,5.6475,0.0,0.0,0.0,0.0,0.0,0.0,0.0,0.0,0.0,6.0575,6.1136,6.1399,5.9675,5.9849,5.9957,5.7063,5.6991,5.7386,5.5958,5.6785,5.7802,5.7106,5.7381,5.8637,6.1758,6.3719,6.5126,6.5898,6.5833,6.592,6.6686,6.6791,6.6791,6.6791,6.6791,6.6791,6.6791,6.7083,6.7252,6.7252,6.7929,6.8504,6.8774,6.9248,6.9857,7.0601,7.0635,7.0838,7.1289,7.1289,7.1289,7.1289,7.1289,7.1289,7.1289,7.1289,7.1289,7.1289,7.1289,7.1289,7.1289,7.1289,7.1289,7.1289,7.1289,7.1289,7.1289,7.1289,7.1289,7.1289,7.1289,7.1289,7.1289,0.0,0.0,0.0,0.0,0.0,0.0,0.0,0.0,0.0,0.0,4.7944,0.0,0.0,0.0,0.0,0.0,0.0,0.0,0.0,0.0,5.1211,5.0281,5.0242,5.0242,5.0242,5.1248,5.1776,5.1776,5.2835,5.2904,5.2047,5.2939,5.2868,5.2038,5.3142,5.394,5.4477,5.3427,5.4387,5.6459,5.4316,5.4483,5.5968,5.5046,0.0,0.0,0.0,0.0,0.0,0.0,0.0,0.0,5.996,6.073,6.1399,5.7984,5.8623,5.9675,5.625,5.6971,5.8314,5.6678,5.7142,5.8053,5.8294,5.9213,6.0559,6.2409,6.3826,6.4756,6.4869,6.5855,6.6652,6.677,6.6791,6.6791,6.6791,6.6791,6.6825,6.6893,6.7489,6.7929,6.7996,6.8741,6.9485,7.015,7.0263,7.0601,7.1255,7.1289,7.1289,7.1289,7.1289,7.1289,7.1289,7.1289,7.1289,7.1289,7.1289,7.1289,7.1289,7.1289,7.1289,7.1289,7.1289,7.1289,7.1289,7.1289,7.1289,7.1289,7.1289,7.1289,7.1289,7.1289,7.1289,7.1289,0.0,0.0,0.0,0.0,0.0,0.0,0.0,0.0,0.0,0.0,0.0,0.0,0.0,0.0,0.0,0.0,0.0,0.0,0.0,0.0,4.9376,4.9155,4.9135,4.9135,4.9135,5.0184,5.0722,5.0722,5.174,5.2557,5.3144,5.254,5.2413,5.2708,5.3863,5.4283,5.4088,5.3577,5.4176,5.533,5.3703,5.3808,5.4985,5.5281,5.5568,0.0,0.0,0.0,0.0,0.0,0.0,0.0,6.0472,6.0009,5.9236,5.7504,5.8039,5.8737,5.658,5.7075,5.7976,5.7118,5.7483,5.8473,6.0034,5.9836,5.9739,6.1142,6.2487,6.3685,6.471,6.5126,6.5625,6.6631,6.6791,6.6791,6.6791,6.6791,6.6994,6.759,6.7793,6.8132,6.8774,6.9519,7.0026,7.0184,7.0737,7.1142,7.1289,7.1289,7.1289,7.1289,7.1289,7.1289,7.1289,7.1289,7.1289,7.1289,7.1289,7.1289,7.1289,7.1289,7.1289,7.1289,7.1289,7.1289,7.1289,7.1289,7.1289,7.1289,7.1289,7.1289,7.1289,7.1289,7.1289,7.1289,0.0,0.0,0.0,0.0,0.0,0.0,0.0,0.0,0.0,0.0,0.0,0.0,0.0,0.0,0.0,0.0,0.0,0.0,0.0,0.0,0.0,4.8115,4.8532,4.8574,4.8093,4.9595,5.0145,4.9635,5.0483,5.1272,0.0,5.1755,5.185,5.2227,5.3665,5.4117,5.3779,5.4129,5.4493,5.485,5.4562,5.4401,5.4429,5.5916,5.6355,5.6274,5.6968,0.0,0.0,0.0,0.0,0.0,0.0,0.0,5.9256,5.7225,5.7463,5.8137,5.697,5.7095,5.7573,5.7577,5.8082,5.8838,5.9852,6.0045,6.0202,6.0866,6.207,6.3188,6.3882,6.4992,6.5833,6.5877,6.6418,6.6791,6.6791,6.7096,6.7489,6.7861,6.8538,6.9147,6.9586,7.0297,7.0737,7.0737,7.1075,7.1289,7.1289,7.1289,7.1289,7.1289,7.1289,7.1289,7.1289,7.1289,7.1289,7.1289,7.1289,7.1289,7.1289,7.1289,7.1289,7.1289,7.1289,7.1289,7.1289,7.1289,7.1289,7.1289,7.1289,7.1289,7.1289,7.1289,7.1289,7.1289,0.0,0.0,0.0,0.0,0.0,0.0,0.0,0.0,0.0,0.0,0.0,0.0,0.0,0.0,0.0,0.0,0.0,0.0,0.0,0.0,0.0,4.7352,4.8115,4.8231,4.7581,4.9065,4.9559,4.8955,4.9355,0.0,0.0,0.0,0.0,5.1538,5.3182,5.3713,5.3457,5.4552,5.4935,5.4874,5.5986,5.5479,5.4357,5.6577,5.7082,5.665,5.7417,5.8399,5.9322,5.8932,0.0,0.0,0.0,0.0,5.9637,5.6987,5.6986,5.7769,5.7376,5.7363,5.7573,5.8115,5.871,5.9099,5.9099,6.0071,6.0989,6.0989,6.207,6.3076,6.3292,6.5036,6.6213,6.5349,6.6127,6.6825,6.696,6.7523,6.7996,6.8267,6.9417,7.0251,7.0364,7.0939,7.1289,7.1289,7.1289,7.1289,7.1289,7.1289,7.1289,7.1289,7.1289,7.1289,7.1289,7.1289,7.1289,7.1289,7.1289,7.1289,7.1289,7.1289,7.1289,7.1289,7.1289,7.1289,7.1289,7.1289,7.1289,7.1289,7.1289,7.1289,7.1289,7.1289,7.1289,7.1289,0.0,0.0,0.0,0.0,0.0,0.0,0.0,0.0,0.0,0.0,0.0,0.0,0.0,0.0,0.0,0.0,0.0,0.0,4.7309,0.0,0.0,4.7309,4.743,4.7849,4.8574,4.8009,4.8347,4.9667,0.0,0.0,0.0,0.0,0.0,5.1802,0.0,5.3333,5.3031,5.4178,5.4991,5.5665,5.6792,5.6272,0.0,0.0,0.0,5.6186,5.6871,5.7881,5.8885,5.8825,5.8902,0.0,0.0,0.0,5.8035,5.6617,5.668,5.7329,5.7839,5.8411,5.886,5.8949,5.9039,5.9099,5.9099,6.0071,6.0989,6.0989,6.207,6.3363,6.446,6.4914,6.547,6.6363,6.6707,6.6994,6.7658,6.7827,6.8402,6.9722,7.006,7.0432,7.1086,7.1222,7.1289,7.1289,7.1289,7.1289,7.1289,7.1289,7.1289,7.1289,7.1289,7.1289,7.1289,7.1289,7.1289,7.1289,7.1289,7.1289,7.1289,7.1289,7.1289,7.1289,7.1289,7.1289,7.1289,7.1289,7.1289,7.1289,7.1289,7.1289,7.1289,7.1289,7.1289,7.1289,0.0,0.0,0.0,0.0,0.0,0.0,0.0,0.0,0.0,0.0,0.0,0.0,0.0,0.0,0.0,4.7309,4.7309,4.7309,4.7309,4.7309,4.7309,4.7309,4.7849,4.8093,4.7946,4.8459,4.8794,4.897,0.0,0.0,0.0,5.084,5.1275,0.0,0.0,0.0,0.0,5.4963,5.5229,5.3977,5.6779,5.655,0.0,0.0,0.0,0.0,0.0,5.8925,5.8854,5.9215,5.8917,5.8185,5.7333,0.0,0.0,0.0,5.7453,5.7812,5.8501,5.889,5.9099,5.9099,5.9099,5.9285,5.9992,6.0583,6.1218,6.197,6.2585,6.3172,6.3709,6.4414,6.5081,6.5646,6.6657,6.7523,6.7861,6.8639,6.9417,7.0116,7.0567,7.0939,7.1255,7.1289,7.1289,7.1289,7.1289,7.1289,7.1289,7.1289,7.1289,7.1289,7.1289,7.1289,7.1289,7.1289,7.1289,7.1289,7.1289,7.1289,7.1289,7.1289,7.1289,7.1289,7.1289,7.1289,7.1289,7.1289,7.1289,7.1289,7.1289,7.1289,7.1289,7.1289,7.1289,7.1289,0.0,0.0,0.0,0.0,0.0,0.0,0.0,0.0,0.0,0.0,0.0,0.0,0.0,0.0,0.0,0.0,4.7309,4.7309,4.7309,4.7309,4.7309,4.7309,4.8161,4.8316,4.757,4.8965,4.9391,0.0,0.0,0.0,5.0458,5.1262,5.1729,0.0,5.3371,5.3215,0.0,0.0,0.0,0.0,0.0,0.0,0.0,0.0,0.0,0.0,0.0,0.0,0.0,0.0,5.8722,5.8091,5.7329,5.8059,0.0,0.0,0.0,5.8444,5.8979,5.9099,5.9099,5.9099,5.9099,5.9339,6.0302,6.0764,6.1193,6.1878,6.2544,6.3004,6.3004,6.4045,6.5069,6.5592,6.6896,6.803,6.8436,6.9451,7.0285,7.0466,7.0973,7.1289,7.1289,7.1289,7.1289,7.1289,7.1289,7.1289,7.1289,7.1289,7.1289,7.1289,7.1289,7.1289,7.1289,7.1289,7.1289,7.1289,7.1289,7.1289,7.1289,7.1289,7.1289,7.1289,7.1289,7.1289,7.1289,7.1289,7.1289,7.1289,7.1289,7.1289,7.1289,7.1289,7.1289,7.1289,0.0,0.0,0.0,0.0,0.0,0.0,0.0,0.0,0.0,0.0,0.0,0.0,0.0,0.0,4.7309,4.7309,4.7309,4.7309,4.7309,4.7309,4.7309,4.7309,4.7973,0.0,4.8259,4.8954,4.9591,5.0076,0.0,0.0,5.1169,5.2305,5.2596,5.2192,5.2293,5.2891,5.3915,0.0,0.0,0.0,0.0,0.0,0.0,0.0,0.0,0.0,0.0,0.0,0.0,0.0,0.0,5.8652,5.745,5.8363,5.9619,0.0,0.0,0.0,5.9099,5.9099,5.9099,5.9099,5.9099,5.9126,5.918,6.0124,6.0661,5.9553,6.128,6.3004,6.3004,6.4045,6.5536,6.7435,6.7818,6.8402,6.9857,7.015,7.0466,7.1176,7.1289,7.1289,7.1289,7.1289,7.1289,7.1289,7.1289,7.1289,7.1289,7.1289,7.1289,7.1289,7.1289,7.1289,7.1289,7.1289,7.1289,7.1289,7.1289,7.1289,7.1289,7.1289,7.1289,7.1289,7.1289,7.1289,7.1289,7.1289,7.1289,7.1289,7.1289,7.1289,7.1289,7.1289,7.1289,7.1289,0.0,0.0,0.0,0.0,0.0,0.0,0.0,0.0,0.0,0.0,0.0,0.0,0.0,4.7309,4.7309,4.7309,4.7309,4.7309,4.7309,4.7698,4.7938,4.7938,4.8588,4.8947,4.8947,4.9553,4.9979,5.0196,5.0637,5.0966,5.1229,5.2064,5.2779,5.3331,5.3316,5.3352,5.3574,5.4992,0.0,0.0,0.0,0.0,0.0,0.0,0.0,0.0,0.0,0.0,0.0,0.0,0.0,0.0,0.0,0.0,5.9293,5.8874,5.8919,5.9099,5.9099,5.9099,5.9099,5.9099,5.9705,6.0302,6.0302,6.0661,6.1091,6.1527,6.1646,6.2369,6.4536,6.5286,6.61,6.7634,6.8741,6.9574,7.0094,7.0601,7.1007,7.1255,7.1289,7.1289,7.1289,7.1289,7.1289,7.1289,7.1289,7.1289,7.1289,7.1289,7.1289,7.1289,7.1289,7.1289,7.1289,7.1289,7.1289,7.1289,7.1289,7.1289,7.1289,7.1289,7.1289,7.1289,7.1289,7.1289,7.1289,7.1289,7.1289,7.1289,7.1289,7.1289,7.1289,7.1289,7.1289,7.1289,0.0,0.0,0.0,0.0,0.0,0.0,0.0,0.0,0.0,0.0,0.0,0.0,0.0,0.0,4.7309,4.7309,4.7519,4.7638,4.7638,4.8259,4.8648,4.8648,4.9277,4.9583,4.9583,4.9979,5.0315,5.0548,5.0996,5.1295,5.1535,5.2217,5.3084,5.4059,5.4013,5.4258,0.0,0.0,0.0,5.5207,0.0,0.0,5.5564,0.0,0.0,0.0,0.0,0.0,0.0,0.0,0.0,0.0,0.0,0.0,0.0,5.9099,5.9099,5.9099,5.9099,5.9099,5.9099,5.9099,5.9732,6.0354,6.0354,6.0354,6.0675,6.1814,6.1668,6.2235,6.5147,6.6237,6.7161,6.8444,6.9519,7.0297,7.0534,7.1007,7.1289,7.1289,7.1289,7.1289,7.1289,7.1289,7.1289,7.1289,7.1289,7.1289,7.1289,7.1289,7.1289,7.1289,7.1289,7.1289,7.1289,7.1289,7.1289,7.1289,7.1289,7.1289,7.1289,7.1289,7.1289,7.1289,7.1289,7.1289,7.1289,7.1289,7.1289,7.1289,7.1289,7.1289,7.1289,7.1289,7.1289,7.1289,0.0,0.0,0.0,0.0,0.0,0.0,0.0,0.0,0.0,0.0,0.0,0.0,0.0,0.0,0.0,4.7339,4.7938,4.8349,4.8349,4.8947,4.9307,4.9307,4.9912,5.0226,5.0226,5.0255,5.0578,5.1236,5.1236,5.1588,5.2247,5.2929,5.3588,5.4241,5.4221,5.5558,5.7656,0.0,5.5893,5.6848,0.0,5.5623,5.6192,0.0,0.0,0.0,5.7846,5.8085,0.0,5.889,0.0,0.0,0.0,0.0,0.0,0.0,0.0,5.9099,0.0,0.0,0.0,5.9129,5.9156,5.9183,5.9159,5.9213,5.9447,6.0049,6.1161,6.2679,6.4821,6.6753,6.8526,6.9995,7.0251,7.0466,7.1188,7.1289,7.1289,7.1289,7.1289,7.1289,7.1289,7.1289,7.1289,7.1289,7.1289,7.1289,7.1289,7.1289,7.1289,7.1289,7.1289,7.1289,7.1289,7.1289,7.1289,7.1289,7.1289,7.1289,7.1289,7.1289,7.1289,7.1289,7.1289,7.1289,7.1289,7.1289,7.1289,7.1289,7.1289,7.1289,7.1289,7.1289,7.1289,7.1289,0.0,0.0,0.0,0.0,0.0,0.0,0.0,0.0,0.0,0.0,0.0,0.0,0.0,0.0,0.0,4.8027,4.8648,4.9007,4.9007,4.9613,4.9949,4.9949,5.0578,5.0936,5.0936,5.1385,5.1738,5.1917,5.2396,5.2725,5.2959,5.3593,5.4497,5.5487,5.5118,5.5786,5.7129,5.5778,0.0,5.5706,5.5866,5.6042,0.0,0.0,0.0,0.0,0.0,5.8085,5.8205,0.0,5.9099,5.9099,0.0,0.0,0.0,0.0,0.0,0.0,5.9099,0.0,0.0,0.0,0.0,0.0,6.0636,6.2042,6.3218,6.2364,6.2496,6.3697,6.6712,6.6956,6.7671,7.0535,7.1007,7.1075,7.1255,7.1289,7.1289,7.1289,7.1289,7.1289,7.1289,7.1289,7.1289,7.1289,7.1289,7.1289,7.1289,7.1289,7.1289,7.1289,7.1289,7.1289,7.1289,7.1289,7.1289,7.1289,7.1289,7.1289,7.1289,7.1289,7.1289,7.1289,7.1289,7.1289,7.1289,7.1289,7.1289,7.1289,7.1289,7.1289,7.1289,7.1289,7.1289,7.1289,0.0,0.0,0.0,0.0,0.0,0.0,0.0,0.0,0.0,0.0,0.0,0.0,0.0,0.0,0.0,0.0,4.9284,4.9673,4.9673,5.0249,5.0637,5.0637,5.1265,5.1618,5.1618,5.2007,5.2336,5.2606,5.3019,5.3348,5.3623,5.4311,5.5003,5.5682,5.5621,0.0,0.0,0.0,0.0,0.0,5.6312,0.0,0.0,5.7393,5.7693,0.0,0.0,0.0,5.9296,5.9138,5.9099,0.0,0.0,0.0,0.0,0.0,0.0,0.0,0.0,0.0,0.0,6.0416,0.0,0.0,6.1181,6.2303,6.3295,6.2721,6.2646,6.3716,6.7081,6.711,6.7645,7.0769,7.1289,7.1289,7.1289,7.1289,7.1289,7.1289,7.1289,7.1289,7.1289,7.1289,7.1289,7.1289,7.1289,7.1289,7.1289,7.1289,7.1289,7.1289,7.1289,7.1289,7.1289,7.1289,7.1289,7.1289,7.1289,7.1289,7.1289,7.1289,7.1289,7.1289,7.1289,7.1289,7.1289,7.1289,7.1289,7.1289,7.1289,7.1289,7.1289,7.1289,7.1289,7.1289,0.0,0.0,0.0,0.0,0.0,0.0,0.0,0.0,0.0,0.0,0.0,0.0,0.0,0.0,0.0,0.0,4.9972,5.0315,5.0315,5.0936,0.0,5.1295,5.1947,5.2306,5.2306,5.2366,5.2695,5.3318,5.3408,5.3713,5.4341,5.491,5.5239,5.5354,5.5923,0.0,0.0,0.0,0.0,5.6462,5.7004,5.7573,0.0,0.0,5.859,5.9099,5.9099,5.9838,6.0609,5.9469,5.9099,0.0,0.0,0.0,0.0,0.0,6.0174,0.0,0.0,0.0,0.0,0.0,6.1196,0.0,6.1313,6.1425,6.1659,6.212,6.2323,6.334,6.6421,6.6958,6.7831,7.0436,7.0984,7.1098,7.1289,7.1289,7.1289,7.1289,7.1289,7.1289,7.1289,7.1289,7.1289,7.1289,7.1289,7.1289,7.1289,7.1289,7.1289,7.1289,7.1289,7.1289,7.1289,7.1289,7.1289,7.1289,7.1289,7.1289,7.1289,7.1289,7.1289,7.1289,7.1289,7.1289,7.1289,7.1289,7.1289,7.1289,7.1289,7.1289,7.1289,7.1289,7.1289,7.1289,0.0,0.0,0.0,0.0,0.0,0.0,0.0,0.0,0.0,0.0,0.0,0.0,0.0,0.0,0.0,0.0,0.0,0.0,0.0,0.0,5.2007,5.2007,5.2636,5.3019,5.3019,5.3533,5.3892,5.4012,5.4551,5.488,5.4999,5.5119,5.5504,5.6013,5.6132,5.6462,5.7023,0.0,0.0,5.7726,5.7846,0.0,5.8145,5.871,5.9009,5.9099,5.9099,5.9258,5.9446,5.918,5.9099,5.9189,0.0,0.0,0.0,0.0,0.0,0.0,0.0,0.0,0.0,0.0,0.0,0.0,6.2599,6.3535,6.4064,6.3098,6.3746,6.4714,6.5378,6.5517,6.6048,6.7756,6.8927,6.9996,7.112,7.1289,7.1289,7.1289,7.1289,7.1289,7.1289,7.1289,7.1289,7.1289,7.1289,7.1289,7.1289,7.1289,7.1289,7.1289,7.1289,7.1289,7.1289,7.1289,7.1289,7.1289,7.1289,7.1289,7.1289,7.1289,7.1289,7.1289,7.1289,7.1289,7.1289,7.1289,7.1289,7.1289,7.1289,7.1289,7.1289,7.1289,7.1289,7.1289,0.0,0.0,0.0,0.0,0.0,0.0,0.0,0.0,0.0,0.0,0.0,0.0,0.0,0.0,0.0,0.0,0.0,0.0,0.0,0.0,5.2695,5.2695,5.3324,5.3683,5.3683,5.4371,5.47,5.47,5.5029,5.5359,5.5713,5.5713,5.6042,5.6671,5.7004,5.7334,5.7685,5.9027,5.9225,5.8644,5.93,0.0,5.865,5.8979,5.9099,5.9099,5.9099,5.9099,5.9207,5.9838,5.9841,0.0,0.0,6.0086,6.0296,0.0,6.1343,6.1224,0.0,0.0,0.0,6.251,0.0,0.0,0.0,6.362,6.393,6.3222,6.3649,6.432,6.4978,6.5083,6.5571,6.6958,6.833,6.9433,7.0136,7.086,7.1289,7.1289,7.1289,7.1289,7.1289,7.1289,7.1289,7.1289,7.1289,7.1289,7.1289,7.1289,7.1289,7.1289,7.1289,7.1289,7.1289,7.1289,7.1289,7.1289,7.1289,7.1289,7.1289,7.1289,7.1289,7.1289,7.1289,7.1289,7.1289,7.1289,7.1289,7.1289,7.1289,7.1289,7.1289,7.1289,7.1289,7.1289,0.0,0.0,0.0,0.0,0.0,0.0,0.0,0.0,0.0,0.0,0.0,0.0,0.0,0.0,0.0,0.0,0.0,0.0,0.0,0.0,0.0,5.3408,5.4042,5.4401,5.4401,5.491,5.5239,5.5414,5.5414,5.5743,5.6372,5.6372,5.6701,5.7304,5.7846,5.8175,5.8351,5.9125,5.9312,5.9207,0.0,6.0255,5.9099,5.9099,5.9099,5.9099,5.9099,5.9189,5.9468,6.049,6.0609,6.0296,6.0416,6.0775,0.0,0.0,0.0,0.0,0.0,0.0,0.0,0.0,0.0,6.3108,0.0,0.0,0.0,6.3108,6.3108,6.3451,6.4512,6.4703,6.5021,6.5886,6.7386,6.8331,6.8063,6.9467,7.0722,7.1244,7.1289,7.1289,7.1289,7.1289,7.1289,7.1289,7.1289,7.1289,7.1289,7.1289,7.1289,7.1289,7.1289,7.1289,7.1289,7.1289,7.1289,7.1289,7.1289,7.1289,7.1289,7.1289,7.1289,7.1289,7.1289,7.1289,7.1289,7.1289,7.1289,7.1289,7.1289,7.1289,7.1289,7.1289,7.1289,7.1289,4.7309,4.7309,0.0,0.0,0.0,0.0,0.0,0.0,0.0,0.0,0.0,0.0,0.0,0.0,0.0,0.0,0.0,0.0,5.3198,0.0,0.0,0.0,5.473,5.5089,5.5089,5.5149,5.5504,5.6102,5.6102,5.6402,5.7004,5.7004,5.7363,5.7995,5.8055,5.8414,5.906,6.0272,6.0124,5.9207,6.0484,6.0255,5.9099,5.9099,5.9099,5.9099,5.9099,5.9488,5.9994,0.0,6.0554,6.1104,0.0,6.1523,6.1373,0.0,0.0,0.0,0.0,0.0,0.0,0.0,6.3108,0.0,0.0,0.0,6.3108,6.3108,0.0,6.3165,6.3308,0.0,0.0,6.1939,6.3906,6.5161,6.3964,6.6007,6.8552,7.1007,7.1289,7.1289,7.1289,7.1289,7.1289,7.1289,7.1289,7.1289,7.1289,7.1289,7.1289,7.1289,7.1289,7.1289,7.1289,7.1289,7.1289,7.1289,7.1289,7.1289,7.1289,7.1289,7.1289,7.1289,7.1289,7.1289,7.1289,7.1289,7.1289,7.1289,7.1289,7.1289,7.1289,7.1289,7.1289,7.1289,0.0,0.0,0.0,0.0,0.0,0.0,0.0,0.0,0.0,0.0,0.0,0.0,0.0,0.0,0.0,0.0,0.0,5.3952,0.0,0.0,0.0,0.0,0.0,0.0,5.5773,5.5773,5.6102,5.6731,5.6731,5.7034,5.7693,5.7693,5.8052,5.868,5.868,5.886,5.9126,5.9683,6.0019,6.0202,5.9966,6.0019,6.0124,5.9392,5.9338,5.9668,5.9668,6.0116,6.0685,6.0685,6.1134,0.0,0.0,0.0,0.0,0.0,0.0,0.0,0.0,0.0,0.0,0.0,0.0,0.0,6.3108,0.0,6.3108,6.3108,0.0,0.0,0.0,0.0,0.0,0.0,6.387,6.4897,6.4336,6.5959,6.7622,6.8781,6.9609,7.0379,7.1222,7.1289,7.1289,7.1289,7.1289,7.1289,7.1289,7.1289,7.1289,7.1289,7.1289,7.1289,7.1289,7.1289,7.1289,7.1289,7.1289,7.1289,7.1289,7.1289,7.1289,7.1289,7.1289,7.1289,7.1289,7.1289,7.1289,7.1289,7.1289,7.1289,7.1289,7.1289,7.1289,7.1289,0.0,0.0,0.0,0.0,0.0,0.0,0.0,0.0,0.0,0.0,0.0,0.0,5.3169,5.3354,0.0,0.0,0.0,5.467,0.0,0.0,5.5448,0.0,0.0,0.0,0.0,5.6462,5.6761,5.7363,5.7363,5.7723,5.8354,5.8354,5.8623,5.9099,5.9099,5.9099,5.9099,5.9099,5.9629,6.0406,5.968,6.0049,6.0906,5.9804,5.9787,6.0356,6.0356,6.0805,6.1373,6.1373,6.1822,6.2361,6.2361,6.2718,6.3108,0.0,0.0,0.0,6.3108,0.0,0.0,0.0,0.0,0.0,0.0,0.0,0.0,0.0,6.3108,0.0,0.0,0.0,6.2988,6.26,0.0,6.4414,6.4077,6.5187,6.6365,6.7087,6.8405,6.9609,7.062,7.1075,7.1289,7.1289,7.1289,7.1289,7.1289,7.1289,7.1289,7.1289,7.1289,7.1289,7.1289,7.1289,7.1289,7.1289,7.1289,7.1289,7.1289,7.1289,7.1289,7.1289,7.1289,7.1289,7.1289,7.1289,7.1289,7.1289,7.1289,7.1289,7.1289,7.1289,7.1289,7.1289,0.0,4.9247,0.0,0.0,0.0,0.0,0.0,0.0,0.0,0.0,0.0,0.0,0.0,0.0,0.0,0.0,0.0,5.5179,5.5179,0.0,5.6162,0.0,0.0,5.7034,0.0,0.0,5.7393,5.8055,5.8055,5.8414,5.9069,5.9069,5.9069,5.9099,5.9099,5.9099,5.9099,5.9099,5.9126,5.9213,5.9815,6.0473,6.104,6.0324,6.0475,6.1074,6.1074,6.1493,6.2061,6.2061,6.251,6.3078,6.3078,6.3078,6.3108,0.0,0.0,0.0,6.3108,6.3108,6.3108,6.3108,6.3108,6.3108,0.0,0.0,6.3108,0.0,0.0,0.0,0.0,0.0,0.0,0.0,0.0,0.0,0.0,6.2385,6.4209,6.6855,6.8405,6.9217,6.9265,7.0505,7.1289,7.1289,7.1289,7.1289,7.1289,7.1289,7.1289,7.1289,7.1289,7.1289,7.1289,7.1289,7.1289,7.1289,7.1289,7.1289,7.1289,7.1289,7.1289,7.1289,7.1289,7.1289,7.1289,7.1289,7.1289,7.1289,7.1289,7.1289,7.1289,7.1289,7.1289,7.1289,0.0,0.0,0.0,0.0,0.0,0.0,0.0,5.2426,0.0,0.0,0.0,0.0,0.0,5.473,5.485,0.0,0.0,5.5414,5.5833,5.6072,0.0,0.0,0.0,5.7304,0.0,0.0,0.0,5.877,5.877,5.889,5.9099,5.9099,5.9099,5.9129,5.9548,5.9518,5.9159,6.0057,6.0663,6.1094,6.1741,6.1932,6.1702,6.1014,6.1194,6.1762,6.1762,6.2181,6.2778,6.2778,6.2928,6.3108,6.3108,6.3108,6.3108,6.3108,6.3108,6.3108,6.3108,6.3108,6.3108,6.3108,6.3108,6.3108,6.3108,6.3108,0.0,0.0,0.0,0.0,0.0,0.0,0.0,0.0,0.0,0.0,0.0,6.2808,6.3421,6.4404,6.5647,6.719,6.9016,6.9633,7.0286,7.1244,7.1289,7.1289,7.1289,7.1289,7.1289,7.1289,7.1289,7.1289,7.1289,7.1289,7.1289,7.1289,7.1289,7.1289,7.1289,7.1289,7.1289,7.1289,7.1289,7.1289,7.1289,7.1289,7.1289,7.1289,7.1289,7.1289,7.1289,7.1289,7.1289,7.1289,5.0518,0.0,0.0,0.0,0.0,0.0,0.0,0.0,0.0,0.0,5.4431,0.0,5.5149,0.0,5.5299,0.0,5.5564,5.5833,5.6492,5.6735,0.0,5.7453,5.7693,0.0,0.0,0.0,0.0,0.0,5.9099,5.9099,5.9099,5.9338,5.9458,5.9488,6.0146,6.0206,5.9877,6.0717,6.133,6.1718,6.2391,6.2574,6.2391,6.1972,6.2061,6.2479,6.2479,6.272,6.3108,6.3108,6.3108,6.3108,6.3108,6.3108,6.3108,6.3108,6.3108,6.3108,6.3108,6.3108,6.3108,6.3108,6.3108,6.3108,6.3108,6.3108,6.3108,6.3108,0.0,0.0,0.0,0.0,0.0,0.0,0.0,0.0,0.0,6.3108,6.3108,6.3108,6.4262,6.5781,6.7572,6.8626,6.9585,7.0482,7.103,7.1289,7.1289,7.1289,7.1289,7.1289,7.1289,7.1289,7.1289,7.1289,7.1289,7.1289,7.1289,7.1289,7.1289,7.1289,7.1289,7.1289,7.1289,7.1289,7.1289,7.1289,7.1289,7.1289,7.1289,7.1289,7.1289,7.1289,7.1289,7.1289,5.1116,0.0,0.0,0.0,5.1887,5.2516,5.3169,5.3803,5.4251,0.0,5.479,5.5209,5.5239,5.5239,5.5534,5.6192,5.6252,5.6492,5.7094,5.7752,0.0,0.0,5.877,5.9099,5.9099,0.0,0.0,0.0,0.0,5.9159,5.9159,5.9817,6.0174,6.0176,6.0864,6.1134,6.1076,6.1166,6.1224,6.1253,6.1882,6.251,6.3108,6.3108,6.3108,6.3108,6.3108,6.3108,6.3108,6.3108,6.3108,6.3108,6.3108,6.3108,6.3108,6.3108,6.3108,6.3108,6.3108,6.3108,6.3108,6.3108,6.3108,6.3108,6.3108,6.3108,6.3108,6.3108,6.3108,0.0,0.0,0.0,0.0,0.0,0.0,0.0,6.3108,6.3108,6.3108,6.3108,6.4237,6.5029,6.5192,6.7572,6.9169,6.9289,7.0551,7.1289,7.1289,7.1289,7.1289,7.1289,7.1289,7.1289,7.1289,7.1289,7.1289,7.1289,7.1289,7.1289,7.1289,7.1289,7.1289,7.1289,7.1289,7.1289,7.1289,7.1289,7.1289,7.1289,7.1289,7.1289,7.1289,7.1289,7.1289,7.1289,5.1828,5.2486,5.3025,5.3384,5.3593,5.3743,5.3922,5.4521,5.494,0.0,5.5089,5.5414,5.5893,5.5953,5.6192,5.6795,5.6881,0.0,0.0,0.0,0.0,5.883,5.9009,5.9099,5.9099,5.9099,0.0,5.9099,0.0,5.9817,5.9847,6.0535,6.0835,6.0864,6.1553,6.1583,6.1194,6.2151,6.2599,6.26,6.2778,6.2958,6.3108,6.3108,6.3108,6.3108,6.3108,6.3108,6.3108,6.3108,6.3108,6.3108,6.3108,6.3108,6.3108,6.3108,6.3108,6.3108,6.3108,6.3108,6.3108,6.3108,6.3108,6.3108,6.3108,6.3108,6.3108,6.3108,6.3108,6.3108,6.3108,6.3108,6.3108,0.0,0.0,0.0,0.0,6.3108,6.3108,6.3108,6.3422,6.4401,6.647,6.7292,6.8552,7.0597,7.1098,7.1289,7.1289,7.1289,7.1289,7.1289,7.1289,7.1289,7.1289,7.1289,7.1289,7.1289,7.1289,7.1289,7.1289,7.1289,7.1289,7.1289,7.1289,7.1289,7.1289,7.1289,7.1289,7.1289,7.1289,7.1289,7.1289,7.1289,7.1289,7.1289,5.2486,5.3174,5.3832,5.4521,5.464,5.464,5.464,5.5209,5.5653,5.5653,5.5893,0.0,5.6551,5.6611,5.6825,5.7483,5.7543,0.0,5.8474,0.0,0.0,5.9099,5.9099,5.9099,5.9099,5.9099,0.0,5.9548,0.0,6.0236,6.0565,6.1224,6.1553,6.1583,6.2241,6.2331,6.2032,6.2778,6.3108,6.3108,6.3108,6.3108,0.0,6.3108,6.3108,6.3108,6.3108,6.3108,6.3108,6.3108,6.3108,6.3108,6.3108,6.3108,6.3108,6.3108,6.3108,6.3108,6.3108,6.3108,6.3108,6.3108,6.3108,6.3108,6.3108,6.3108,6.3108,6.3108,6.3108,6.3108,6.3108,6.3108,6.3108,0.0,0.0,0.0,0.0,0.0,6.3108,6.3108,6.3108,6.3958,6.6074,6.6286,6.7164,6.9346,7.0076,7.0643,7.1267,7.1289,7.1289,7.1289,7.1289,7.1289,7.1289,7.1289,7.1289,7.1289,7.1289,7.1289,7.1289,7.1289,7.1289,7.1289,7.1289,7.1289,7.1289,7.1289,7.1289,7.1289,7.1289,7.1289,7.1289,7.1289,7.1289,7.1289,5.3198,5.3862,5.4551,5.5209,5.5354,5.5359,5.5418,5.5893,5.6192,5.6192,5.6731,5.7124,5.7214,5.7244,5.7513,5.8175,0.0,5.8474,5.9069,5.9099,5.9099,5.9099,5.9099,5.9129,5.9219,5.9219,0.0,0.0,6.0296,6.0655,6.1253,6.1912,6.2211,6.2241,6.2838,6.3108,6.3108,6.3108,6.3108,6.3108,6.3108,6.3108,6.3108,6.3108,6.3108,6.3108,6.3108,6.3108,6.3108,6.3108,6.3108,6.3108,6.3108,6.3108,6.3108,6.3108,6.3108,6.3108,6.3108,6.3108,6.3108,6.3108,6.3108,6.3108,6.3108,6.3108,6.3108,6.3108,6.3108,6.3108,6.3108,6.3108,6.3108,0.0,0.0,0.0,0.0,0.0,0.0,6.3108,6.3108,0.0,6.4703,6.5165,6.5968,6.7343,6.8699,7.0019,7.1244,7.1289,7.1289,7.1289,7.1289,7.1289,7.1289,7.1289,7.1289,7.1289,7.1289,7.1289,7.1289,7.1289,7.1289,7.1289,7.1289,7.1289,7.1289,7.1289,7.1289,7.1289,7.1289,7.1289,7.1289,7.1289,7.1289,7.1289,5.3892,5.4551,0.0,5.5923,5.6013,5.6192,5.6675,5.6432,5.6192,5.6192,5.6731,5.7304,5.7846,5.7905,5.8175,5.889,5.8919,0.0,0.0,0.0,0.0,5.9099,5.9099,5.9368,5.9907,5.9907,6.0236,0.0,6.1493,6.1822,6.1942,6.26,6.2928,6.2928,6.3048,6.3108,6.3108,6.3108,6.3108,6.3108,6.3108,6.3108,6.3108,6.3108,6.3108,6.3108,6.3108,6.3108,6.3108,6.3108,6.3108,6.3108,6.3108,6.3108,6.3108,6.3108,6.3108,6.3108,6.3108,6.3108,6.3108,6.3108,6.3108,6.3108,6.3108,6.3108,6.3108,6.3108,6.3108,6.3108,6.3108,6.3108,6.3108,6.3108,6.3108,6.3108,0.0,0.0,0.0,0.0,6.3108,6.3194,6.3451,6.5517,6.7394,6.8748,7.0146,7.103,7.1289,7.1289,7.1289,7.1289,7.1289,7.1289,7.1289,7.1289,7.1289,7.1289,7.1289,7.1289,7.1289,7.1289,7.1289,7.1289,7.1289,7.1289,7.1289,7.1289,7.1289,7.1289,7.1289,7.1289,7.1289,7.1289,7.1289,7.1289,5.467,5.5239,0.0,5.6132,5.6462,5.6761,5.7064,5.7154,5.7184,5.7184,5.7752,5.8261,5.859,5.862,5.877,5.9069,5.9099,5.9099,5.9099,5.9428,5.9608,5.9608,5.9967,6.0296,6.0625,6.0625,6.0954,6.1613,6.1942,6.2271,6.2629,6.2958,6.3108,6.3108,6.3108,6.3108,6.3108,6.3108,6.3108,6.3108,6.3108,6.3108,6.3108,6.3108,6.3108,6.3108,6.3108,6.3108,6.3108,6.3108,6.3108,6.3108,6.3108,6.3108,6.3108,6.3108,6.3108,6.3108,6.3108,6.3108,6.3108,6.3108,6.3108,6.3108,6.3108,6.3108,6.3108,6.3108,6.3108,6.3108,6.3108,6.3108,6.3108,6.3108,6.3108,6.3108,6.3108,0.0,6.3108,0.0,0.0,0.0,6.4069,6.5328,6.6673,6.8049,6.9442,7.0528,7.1267,7.1289,7.1289,7.1289,7.1289,7.1289,7.1289,7.1289,7.1289,7.1289,7.1289,7.1289,7.1289,7.1289,7.1289,7.1289,7.1289,7.1289,7.1289,7.1289,7.1289,7.1289,7.1289,7.1289,7.1289,7.1289,7.1289,7.1289,5.5359,5.5833,5.6282,5.6551,5.7004,5.7363,5.7483,5.7992,5.8264,5.8115,5.8683,5.9099,5.9099,5.9099,5.9099,5.9099,5.9219,5.9308,5.9308,5.9937,6.0296,6.0296,6.0835,6.1194,6.1313,6.1313,6.1642,6.2301,6.2301,6.257,6.3108,6.3108,6.3108,6.3108,6.3108,6.3108,6.3108,6.3108,6.3108,6.3108,6.3108,6.3108,6.3108,6.3108,6.3108,6.3108,6.3108,6.3108,6.3108,6.3108,6.3108,6.3108,6.3108,6.3108,6.3108,6.3108,6.3108,6.3108,6.3108,6.3108,6.3108,6.3108,6.3108,6.3108,6.3108,6.3108,6.3108,6.3108,6.3108,6.3108,6.3108,6.3108,6.3108,6.3108,6.3108,6.3108,6.3108,6.3108,6.3108,0.0,0.0,0.0,6.4596,6.5192,6.5994,6.7113,6.8454,6.9798,7.1244,7.1289,7.1289,7.1289,7.1289,7.1289,7.1289,7.1289,7.1289,7.1289,7.1289,7.1289,7.1289,7.1289,7.1289,7.1289,7.1289,7.1289,7.1289,7.1289,7.1289,7.1289,7.1289,7.1289,7.1289,7.1289,7.1289,7.1289,5.5983,5.6162,5.6581,5.7696,5.7965,5.8205,5.883,5.8979,5.88,5.8175,5.8683,5.9099,5.9099,5.9099,5.9099,5.9099,5.9638,5.9997,5.9997,6.0625,6.1014,6.1014,6.1074,6.1403,6.2002,6.2002,6.2331,6.3018,6.3018,6.3048,6.3108,6.3108,6.3108,6.3108,6.3108,6.3108,6.3108,6.3108,6.3108,6.3108,6.3108,6.3108,6.3108,6.3108,6.3108,6.3108,6.3108,6.3108,6.3108,6.3108,6.3108,6.3108,6.3108,6.3108,6.3108,6.3108,6.3108,6.3108,6.3108,6.3108,6.3108,6.3108,6.3108,6.3108,6.3108,6.3108,6.3108,6.3108,6.3108,6.3108,6.3108,6.3108,6.3108,6.3108,6.3108,6.3108,6.3108,6.3108,6.3108,6.3108,0.0,0.0,6.3279,6.5544,6.7061,6.719,6.8454,6.9798,7.1244,7.1289,7.1289,7.1289,7.1289,7.1289,7.1289,7.1289,7.1289,7.1289,7.1289,7.1289,7.1289,7.1289,7.1289,7.1289,7.1289,7.1289,7.1289,7.1289,7.1289,7.1289,7.1289,7.1289,7.1289,7.1289,7.1289,7.1289,5.6611,5.7064,5.7513,5.7995,5.8414,5.88,5.9069,5.9099,5.9009,5.874,5.8949,5.9099,5.9099,5.9458,5.9697,5.9697,6.0326,6.0715,6.0715,6.1343,6.1702,6.1702,6.2091,6.2421,6.269,6.2718,6.2838,6.3108,6.3108,6.3108,6.3108,6.3108,6.3108,6.3108,6.3108,6.3108,6.3108,6.3108,6.3108,6.3108,6.3108,6.3108,6.3108,6.3108,6.3108,6.3108,6.3108,6.3108,6.3108,6.3108,6.3108,6.3108,6.3108,6.3108,6.3108,6.3108,6.3108,6.3108,6.3108,6.3108,6.3108,6.3108,6.3108,6.3108,6.3108,6.3108,6.3108,6.3108,6.3108,6.3108,6.3108,6.3108,6.3108,6.3108,6.3108,6.3108,6.3108,6.3108,6.3108,6.3108,0.0,6.3422,6.4237,6.4568,6.5754,6.8231,6.968,7.0722,7.1267,7.1289,7.1289,7.1289,7.1289,7.1289,7.1289,7.1289,7.1289,7.1289,7.1289,7.1289,7.1289,7.1289,7.1289,7.1289,7.1289,7.1289,7.1289,7.1289,7.1289,7.1289,7.1289,7.1289,7.1289,7.1289,7.1289,7.1289,5.7274,5.7782,5.8145,5.8354,5.88,5.9099,5.9099,5.9099,5.9189,5.9368,5.9398,5.9398,5.9398,5.9817,6.0176,6.0386,6.1014,6.1403,6.1403,6.2032,6.2391,6.2391,6.2868,6.3108,6.3108,6.3108,6.3108,6.3108,6.3108,6.3108,6.3108,6.3108,6.3108,6.3108,6.3108,6.3108,6.3108,6.3108,6.3108,6.3108,6.3108,6.3108,6.3108,6.3108,6.3108,6.3108,6.3108,6.3108,6.3108,6.3108,6.3108,6.3108,6.3108,6.3108,6.3108,6.3108,6.3108,6.3108,6.3108,6.3108,6.3108,6.3108,6.3108,6.3108,6.3108,6.3108,6.3108,6.3108,6.3108,6.3108,6.3108,6.3108,6.3108,6.3108,6.3108,6.3108,6.3108,6.3108,6.3108,6.3108,6.3108,6.3449,6.4401,6.3984,6.506,6.838,6.9902,7.086,7.1289,7.1289,7.1289,7.1289,7.1289,7.1289,7.1289,7.1289,7.1289,7.1289,7.1289,7.1289,7.1289,7.1289,7.1289,7.1289,7.1289,7.1289,7.1289,7.1289,7.1289,7.1289,7.1289,7.1289,7.1289,7.1289,7.1289,7.1289,5.7965,5.8085,5.8294,5.8979,5.9099,5.9099,5.9099,5.9099,5.9338,5.9997,6.0114,6.0114,6.0114,6.0114,6.0356,6.1016,6.1702,6.2091,6.2091,6.2718,6.3108,6.3108,6.3108,6.3108,6.3108,6.3108,6.3108,6.3108,6.3108,6.3108,6.3108,6.3108,6.3108,6.3108,6.3108,6.3108,6.3108,6.3108,6.3108,6.3108,6.3108,6.3108,6.3108,6.3108,6.3108,6.3108,6.3108,6.3108,6.3108,6.3108,6.3108,6.3108,6.3108,6.3108,6.3108,6.3108,6.3108,6.3108,6.3108,6.3108,6.3108,6.3108,6.3108,6.3108,6.3108,6.3108,6.3108,6.3108,6.3108,6.3108,6.3108,6.3108,6.3108,6.3108,6.3108,6.3108,6.3108,6.3108,6.3108,6.3108,6.3108,6.3108,6.3137,6.432,6.5647,6.7113,6.8479,6.9822,7.1244,7.1289,7.1289,7.1289,7.1289,7.1289,7.1289,7.1289,7.1289,7.1289,7.1289,7.1289,7.1289,7.1289,7.1289,7.1289,7.1289,7.1289,7.1289,7.1289,7.1289,7.1289,7.1289,7.1289,7.1289,7.1289,7.1289,7.1289,5.865,5.8773,5.886,5.9069,5.9099,5.9099,5.9099,5.9488,5.9847,6.0057,6.0505,6.0954,6.1403,6.1463,6.1553,6.1762,6.2391,6.278,6.278,6.2988,6.3108,6.3108,6.3108,6.3108,6.3108,6.3108,6.3108,6.3108,6.3108,6.3108,6.3108,6.3108,6.3108,6.3108,6.3108,6.3108,6.3108,6.3108,6.3108,6.3108,6.3108,6.3108,6.3108,6.3108,6.3108,6.3108,6.3108,6.3108,6.3108,6.3108,6.3108,6.3108,6.3108,6.3108,6.3108,6.3108,6.3108,6.3108,6.3108,6.3108,6.3108,6.3108,6.3108,6.3108,6.3108,6.3108,6.3108,6.3108,6.3108,6.3108,6.3108,6.3108,6.3108,6.3108,6.3108,6.3108,6.3108,6.3108,6.3108,6.3108,6.3108,6.3108,6.3108,6.3478,6.4706,6.701,6.7597,6.8854,7.1199,7.1289,7.1289,7.1289,7.1289,7.1289,7.1289,7.1289,7.1289,7.1289,7.1289,7.1289,7.1289,7.1289,7.1289,7.1289,7.1289,7.1289,7.1289,7.1289,7.1289,7.1289,7.1289,7.1289,7.1289,7.1289,7.1289,7.1289,5.9009,5.9099,5.9099,5.9099,5.9308,5.9488,5.9488,6.0027,6.0565,6.0805,6.1224,6.1732,6.2391,6.248,6.248,6.248,6.2868,6.3108,6.3108,6.3108,6.3108,6.3108,6.3108,6.3108,6.3108,6.3108,6.3108,6.3108,6.3108,6.3108,6.3108,6.3108,6.3108,6.3108,6.3108,6.3108,6.3108,6.3108,6.3108,6.3108,6.3108,6.3108,6.3108,6.3108,6.3108,6.3108,6.3108,6.3108,6.3108,6.3108,6.3108,6.3108,6.3108,6.3108,6.3108,6.3108,6.3108,6.3108,6.3108,6.3108,6.3108,6.3108,6.3108,6.3108,6.3108,6.3108,6.3108,6.3108,6.3108,6.3108,6.3108,6.3108,6.3108,6.3108,6.3108,6.3108,6.3108,6.3108,6.3108,6.3108,6.3108,6.3108,6.3108,6.3564,6.4758,6.701,6.7648,6.8927,7.1199,7.1289,7.1289,7.1289,7.1289,7.1289,7.1289,7.1289,7.1289,7.1289,7.1289,7.1289,7.1289,7.1289,7.1289,7.1289,7.1289,7.1289,7.1289,7.1289,7.1289,7.1289,7.1289,7.1289,7.1289,7.1289,7.1289,7.1289,5.9099,5.9099,5.9129,5.9159,5.9668,6.0144,6.0146,6.0745,6.1403,6.2002,6.2121,6.2391,6.3048,6.3108,6.3108,6.3108,6.3108,6.3108,6.3108,6.3108,6.3108,6.3108,6.3108,6.3108,6.3108,6.3108,6.3108,6.3108,6.3108,6.3108,6.3108,6.3108,6.3108,6.3108,6.3108,6.3108,6.3108,6.3108,6.3108,6.3108,6.3108,6.3108,6.3108,6.3108,6.3108,6.3108,6.3108,6.3108,6.3108,6.3108,6.3108,6.3108,6.3108,6.3108,6.3108,6.3108,6.3108,6.3108,6.3108,6.3108,6.3108,6.3108,6.3108,6.3108,6.3108,6.3108,6.3108,6.3108,6.3108,6.3108,6.3108,6.3108,6.3108,6.3108,6.3108,6.3108,6.3108,6.3108,6.3137,6.3222,6.3222,6.3279,6.3394,6.4512,6.5835,6.7215,6.8503,6.9798,7.1244,7.1289,7.1289,7.1289,7.1289,7.1289,7.1289,7.1289,7.1289,7.1289,7.1289,7.1289,7.1289,7.1289,7.1289,7.1289,7.1289,7.1289,7.1289,7.1289,7.1289,7.1289,7.1289,7.1289,7.1289,7.1289,7.1289,7.1289,5.9099,5.9099,5.9249,5.9757,5.9967,6.0266,6.0805,6.1433,6.1912,6.2061,6.254,6.2928,6.3078,6.3108,6.3108,6.3108,6.3108,6.3108,6.3108,6.3108,6.3108,6.3108,6.3108,6.3108,6.3108,6.3108,6.3108,6.3108,6.3108,6.3108,6.3108,6.3108,6.3108,6.3108,6.3108,6.3108,6.3108,6.3108,6.3108,6.3108,6.3108,6.3108,6.3108,6.3108,6.3108,6.3108,6.3108,6.3108,6.3108,6.3108,6.3108,6.3108,6.3108,6.3108,6.3108,6.3108,6.3108,6.3108,6.3108,6.3108,6.3108,6.3108,6.3108,6.3108,6.3108,6.3108,6.3108,6.3108,6.3108,6.3108,6.3108,6.3108,6.3108,6.3108,6.3108,6.3108,6.3108,6.3108,6.3478,6.4512,6.4651,6.506,6.6127,6.6522,6.7266,6.8626,6.9016,6.9798,7.1244,7.1289,7.1289,7.1289,7.1289,7.1289,7.1289,7.1289,7.1289,7.1289,7.1289,7.1289,7.1289,7.1289,7.1289,7.1289,7.1289,7.1289,7.1289,7.1289,7.1289,7.1289,7.1289,7.1289,7.1289,7.1289,7.1289,7.1289,5.9488,5.9548,5.9757,6.0446,6.0805,6.1134,6.1493,6.2121,6.254,6.254,6.2868,6.3108,6.3108,6.3108,6.3108,6.3108,6.3108,6.3108,6.3108,6.3108,6.3108,6.3108,6.3108,6.3108,6.3108,6.3108,6.3108,6.3108,6.3108,6.3108,6.3108,6.3108,6.3108,6.3108,6.3108,6.3108,6.3108,6.3108,6.3108,6.3108,6.3108,6.3108,6.3108,6.3108,6.3108,6.3108,6.3108,6.3108,6.3108,6.3108,6.3108,6.3108,6.3108,6.3108,6.3108,6.3108,6.3108,6.3108,6.3108,6.3108,6.3108,6.3108,6.3108,6.3108,6.3108,6.3108,6.3108,6.3108,6.3108,6.3108,6.3108,6.3108,6.3108,6.3108,6.3108,6.3108,6.3108,6.3108,6.3365,6.4097,6.473,6.5409,6.618,6.7368,6.8429,6.9169,6.9808,7.0505,7.1267,7.1289,7.1289,7.1289,7.1289,7.1289,7.1289,7.1289,7.1289,7.1289,7.1289,7.1289,7.1289,7.1289,7.1289,7.1289,7.1289,7.1289,7.1289,7.1289,7.1289,7.1289,7.1289,7.1289,7.1289,7.1289,7.1289,7.1289,6.0116,6.0236,6.0446,6.1134,6.1732,6.2121,6.2241,6.272,6.3108,6.3108,6.3108,6.3108,6.3108,6.3108,6.3108,6.3108,6.3108,6.3108,6.3108,6.3108,6.3108,6.3108,6.3108,6.3108,6.3108,6.3108,6.3108,6.3108,6.3108,6.3108,6.3108,6.3108,6.3108,6.3108,6.3108,6.3108,6.3108,6.3108,6.3108,6.3108,6.3108,6.3108,6.3108,6.3108,6.3108,6.3108,6.3108,6.3108,6.3108,6.3108,6.3108,6.3108,6.3108,6.3108,6.3108,6.3108,6.3108,6.3108,6.3108,6.3108,6.3108,6.3108,6.3108,6.3108,6.3108,6.3108,6.3108,6.3108,6.3108,6.3108,6.3108,6.3108,6.3108,6.3108,6.3108,6.3108,6.3108,6.3279,6.3478,6.3706,6.4895,6.5808,6.6021,6.8157,6.9537,6.9537,7.062,7.1289,7.1289,7.1289,7.1289,7.1289,7.1289,7.1289,7.1289,7.1289,7.1289,7.1289,7.1289,7.1289,7.1289,7.1289,7.1289,7.1289,7.1289,7.1289,7.1289,7.1289,7.1289,7.1289,7.1289,7.1289,7.1289,7.1289,7.1289,7.1289,6.0805,6.0954,6.1164,6.1822,6.2032,6.2271,6.2868,6.3048,6.3108,6.3108,6.3108,6.3108,6.3108,6.3108,6.3108,6.3108,6.3108,6.3108,6.3108,6.3108,6.3108,6.3108,6.3108,6.3108,6.3108,6.3108,6.3108,6.3108,6.3108,6.3108,6.3108,6.3108,6.3108,6.3108,6.3108,6.3108,6.3108,6.3108,6.3108,6.3108,6.3108,6.3108,6.3108,6.3108,6.3108,6.3108,6.3108,6.3108,6.3108,6.3108,6.3108,6.3108,6.3108,6.3108,6.3108,6.3108,6.3108,6.3108,6.3108,6.3108,6.3108,6.3108,6.3108,6.3108,6.3108,6.3108,6.3108,6.3108,6.3108,6.3108,6.3108,6.3108,6.3108,6.3108,6.3108,6.3108,6.3108,6.4069,6.5219,6.6417,6.7749,6.9048,7.0216,7.0722,7.0984,7.0984,7.1199,7.1289,7.1289,7.1289,7.1289,7.1289,7.1289,7.1289,7.1289,7.1289,7.1289,7.1289,7.1289,7.1289,7.1289,7.1289,7.1289,7.1289,7.1289,7.1289,7.1289,7.1289,7.1289,7.1289,7.1289,7.1289,7.1289,7.1289,7.1289,7.1289,6.1523,6.1642,6.1852,6.251,6.2659,6.2748,6.3048,6.3108,6.3108,6.3108,6.3108,6.3108,6.3108,6.3108,6.3108,6.3108,6.3108,6.3108,6.3108,6.3108,6.3108,6.3108,6.3108,6.3108,6.3108,6.3108,6.3108,6.3108,6.3108,6.3108,6.3108,6.3108,6.3108,6.3108,6.3108,6.3108,6.3108,6.3108,6.3108,6.3108,6.3108,6.3108,6.3108,6.3108,6.3108,6.3108,6.3108,6.3108,6.3108,6.3108,6.3108,6.3108,6.3108,6.3108,6.3108,6.3108,6.3108,6.3108,6.3108,6.3108,6.3108,6.3108,6.3108,6.3108,6.3108,6.3108,6.3108,6.3108,6.3108,6.3108,6.3108,6.3108,6.3337,6.404,6.4181,6.4429,6.5192,6.5835,6.6496,6.7113,6.8405,6.9466,7.009,7.086,7.1289,7.1289,7.1289,7.1289,7.1289,7.1289,7.1289,7.1289,7.1289,7.1289,7.1289,7.1289,7.1289,7.1289,7.1289,7.1289,7.1289,7.1289,7.1289,7.1289,7.1289,7.1289,7.1289,7.1289,7.1289,7.1289,7.1289,7.1289,7.1289,7.1289,7.1289,7.1289,6.2181,6.2331,6.248,6.3018,6.3108,6.3108,6.3108,6.3108,6.3108,6.3108,6.3108,6.3108,6.3108,6.3108,6.3108,6.3108,6.3108,6.3108,6.3108,6.3108,6.3108,6.3108,6.3108,6.3108,6.3108,6.3108,6.3108,6.3108,6.3108,6.3108,6.3108,6.3108,6.3108,6.3108,6.3108,6.3108,6.3108,6.3108,6.3108,6.3108,6.3108,6.3108,6.3108,6.3108,6.3108,6.3108,6.3108,6.3108,6.3108,6.3108,6.3108,6.3108,6.3108,6.3108,6.3108,6.3108,6.3108,6.3108,6.3108,6.3108,6.3108,6.3108,6.3108,6.3108,6.3108,6.3108,6.3108,6.3108,6.3108,6.3108,6.3108,6.3108,6.3451,6.4457,6.4895,6.549,6.6543,6.7241,6.7648,6.7648,6.8846,6.968,6.968,7.0676,7.1289,7.1289,7.1289,7.1289,7.1289,7.1289,7.1289,7.1289,7.1289,7.1289,7.1289,7.1289,7.1289,7.1289,7.1289,7.1289,7.1289,7.1289,7.1289,7.1289,7.1289,7.1289,7.1289,7.1289,7.1289,7.1289,7.1289,7.1289,7.1289,7.1289,7.1289,7.1289,6.2898,6.3048,6.3048,6.3108,6.3108,6.3108,6.3108,6.3108,6.3108,6.3108,6.3108,6.3108,6.3108,6.3108,6.3108,6.3108,6.3108,6.3108,6.3108,6.3108,6.3108,6.3108,6.3108,6.3108,6.3108,6.3108,6.3108,6.3108,6.3108,6.3108,6.3108,6.3108,6.3108,6.3108,6.3108,6.3108,6.3108,6.3108,6.3108,6.3108,6.3108,6.3108,6.3108,6.3108,6.3108,6.3108,6.3108,6.3108,6.3108,6.3108,6.3108,6.3108,6.3108,6.3108,6.3108,6.3108,6.3108,6.3108,6.3108,6.3108,6.3108,6.3108,6.3108,6.3108,6.3108,6.3108,6.3108,6.3108,6.3108,6.3108,6.3108,6.3108,6.3137,6.3222,6.4293,6.5138,6.5247,6.7445,6.904,6.904,7.0286,7.1143,7.1143,7.1244,7.1289,7.1289,7.1289,7.1289,7.1289,7.1289,7.1289,7.1289,7.1289,7.1289,7.1289,7.1289,7.1289,7.1289,7.1289,7.1289,7.1289,7.1289,7.1289,7.1289,7.1289,7.1289,7.1289,7.1289,7.1289,7.1289,7.1289,7.1289,7.1289,7.1289,7.1289,7.1289,6.3048,6.3108,6.3108,6.3108,6.3108,6.3108,6.3108,6.3108,6.3108,6.3108,6.3108,6.3108,6.3108,6.3108,6.3108,6.3108,6.3108,6.3108,6.3108,6.3108,6.3108,6.3108,6.3108,6.3108,6.3108,6.3108,6.3108,6.3108,6.3108,6.3108,6.3108,6.3108,6.3108,6.3108,6.3108,6.3108,6.3108,6.3108,6.3108,6.3108,6.3108,6.3108,6.3108,6.3108,6.3108,6.3108,6.3108,6.3108,6.3108,6.3108,6.3108,6.3108,6.3108,6.3108,6.3108,6.3108,6.3108,6.3108,6.3108,6.3108,6.3108,6.3108,6.3108,6.3108,6.3108,6.3108,6.3108,6.3108,6.3108,6.3108,6.3108,6.3761,6.4651,6.5517,6.6751,6.7924,6.883,6.9831,7.0505,7.0505,7.0984,7.1289,7.1289,7.1289,7.1289,7.1289,7.1289,7.1289,7.1289,7.1289,7.1289,7.1289,7.1289,7.1289,7.1289,7.1289,7.1289,7.1289,7.1289,7.1289,7.1289,7.1289,7.1289,7.1289,7.1289,7.1289,7.1289,7.1289,7.1289,7.1289,7.1289,7.1289,7.1289,7.1289,7.1289,7.1289,6.3108,6.3108,6.3108,6.3108,6.3108,6.3108,6.3108,6.3108,6.3108,6.3108,6.3108,6.3108,6.3108,6.3108,6.3108,6.3108,6.3108,6.3108,6.3108,6.3108,6.3108,6.3108,6.3108,6.3108,6.3108,6.3108,6.3108,6.3108,6.3108,6.3108,6.3108,6.3108,6.3108,6.3108,6.3108,6.3108,6.3108,6.3108,6.3108,6.3108,6.3108,6.3108,6.3108,6.3108,6.3108,6.3108,6.3108,6.3108,6.3108,6.3108,6.3108,6.3108,6.3108,6.3108,6.3108,6.3108,6.3108,6.3108,6.3108,6.3108,6.3108,6.3108,6.3108,6.3108,6.3108,6.3108,6.3108,6.3108,6.3108,6.3222,6.3649,6.4125,6.5087,6.6881,6.7949,6.9073,7.0459,7.103,7.1289,7.1289,7.1289,7.1289,7.1289,7.1289,7.1289,7.1289,7.1289,7.1289,7.1289,7.1289,7.1289,7.1289,7.1289,7.1289,7.1289,7.1289,7.1289,7.1289,7.1289,7.1289,7.1289,7.1289,7.1289,7.1289,7.1289,7.1289,7.1289,7.1289,7.1289,7.1289,7.1289,7.1289,7.1289,7.1289,7.1289,7.1289,6.3108,6.3108,6.3108,6.3108,6.3108,6.3108,6.3108,6.3108,6.3108,6.3108,6.3108,6.3108,6.3108,6.3108,6.3108,6.3108,6.3108,6.3108,6.3108,6.3108,6.3108,6.3108,6.3108,6.3108,6.3108,6.3108,6.3108,6.3108,6.3108,6.3108,6.3108,6.3108,6.3108,6.3108,6.3108,6.3108,6.3108,6.3108,6.3108,6.3108,6.3108,6.3137,6.3137,6.3137,6.3137,6.3137,6.3137,6.3137,6.3137,6.3137,6.3137,6.3137,6.3137,6.3108,6.3108,6.3108,6.3108,6.3108,6.3108,6.3108,6.3108,6.3108,6.3108,6.3108,6.3108,6.3108,6.3108,6.3108,6.3108,6.3507,6.4841,6.4015,6.4015,6.6725,6.719,6.7673,6.9016,7.0436,7.1289,7.1289,7.1289,7.1289,7.1289,7.1289,7.1289,7.1289,7.1289,7.1289,7.1289,7.1289,7.1289,7.1289,7.1289,7.1289,7.1289,7.1289,7.1289,7.1289,7.1289,7.1289,7.1289,7.1289,7.1289,7.1289,7.1289,7.1289,7.1289,7.1289,7.1289,7.1289,7.1289,7.1289,7.1289,7.1289,7.1289,7.1289,6.3108,6.3108,6.3108,6.3108,6.3108,6.3108,6.3108,6.3108,6.3108,6.3108,6.3108,6.3108,6.3108,6.3108,6.3108,6.3108,6.3108,6.3108,6.3108,6.3108,6.3108,6.3108,6.3108,6.3108,6.3108,6.3108,6.3108,6.3108,6.3108,6.3108,6.3108,6.3108,6.3108,6.3108,6.3108,6.3108,6.3108,6.3108,6.3649,6.4512,6.4512,6.5114,6.5968,6.5968,6.5968,6.5968,6.5968,6.5968,6.5968,6.5968,6.5968,6.5781,6.4813,6.4512,6.4318,6.3394,6.3108,6.3108,6.3108,6.3108,6.3108,6.3108,6.3108,6.3108,6.3108,6.3108,6.3108,6.3108,6.3108,6.3222,6.362,6.4153,6.5114,6.6906,6.7974,6.9097,7.0482,7.103,7.1289,7.1289,7.1289,7.1289,7.1289,7.1289,7.1289,7.1289,7.1289,7.1289,7.1289,7.1289,7.1289,7.1289,7.1289,7.1289,7.1289,7.1289,7.1289,7.1289,7.1289,7.1289,7.1289,7.1289,7.1289,7.1289,7.1289,7.1289,7.1289,7.1289,7.1289,7.1289,7.1289,7.1289,7.1289,7.1289,7.1289,7.1289,6.3108,6.3108,6.3108,6.3108,6.3108,6.3108,6.3108,6.3108,6.3108,6.3108,6.3108,6.3108,6.3108,6.3108,6.3108,6.3108,6.3108,6.3108,6.3108,6.3108,6.3108,6.3108,6.3108,6.3108,6.3108,6.3108,6.3108,6.3108,6.3108,6.3108,6.3108,6.3108,6.3108,6.3108,6.3108,6.3108,6.3137,6.3677,6.4346,6.5138,6.5701,6.6443,6.719,6.719,6.719,6.719,6.719,6.719,6.719,6.719,6.719,6.7035,6.6206,6.5941,6.5754,6.495,6.4734,6.4596,6.404,6.3902,6.3902,6.3902,6.3902,6.3902,6.3902,6.432,6.4734,6.4734,6.4734,6.4734,6.4734,6.5382,6.6359,6.7749,6.8675,6.968,7.1098,7.1289,7.1289,7.1289,7.1289,7.1289,7.1289,7.1289,7.1289,7.1289,7.1289,7.1289,7.1289,7.1289,7.1289,7.1289,7.1289,7.1289,7.1289,7.1289,7.1289,7.1289,7.1289,7.1289,7.1289,7.1289,7.1289,7.1289,7.1289,7.1289,7.1289,7.1289,7.1289,7.1289,7.1289,7.1289,7.1289,7.1289,7.1289,7.1289,6.3108,6.3108,6.3108,6.3108,6.3108,6.3108,6.3108,6.3108,6.3108,6.3108,6.3108,6.3108,6.3108,6.3108,6.3108,6.3108,6.3108,6.3108,6.3108,6.3108,6.3108,6.3108,6.3108,6.3108,6.3108,6.3108,6.3108,6.3108,6.3108,6.3108,6.3108,6.3108,6.3108,6.3108,6.3108,6.3108,6.3194,6.454,6.5083,6.5219,6.6751,6.7368,6.7394,6.7496,6.7579,6.7579,6.7579,6.7579,6.7579,6.7579,6.7579,6.7521,6.7394,6.7368,6.7343,6.7215,6.719,6.6906,6.562,6.5301,6.5301,6.5301,6.5382,6.5436,6.5328,6.6286,6.719,6.719,6.719,6.719,6.719,6.719,6.7622,6.8967,6.9217,6.968,7.1098,7.1289,7.1289,7.1289,7.1289,7.1289,7.1289,7.1289,7.1289,7.1289,7.1289,7.1289,7.1289,7.1289,7.1289,7.1289,7.1289,7.1289,7.1289,7.1289,7.1289,7.1289,7.1289,7.1289,7.1289,7.1289,7.1289,7.1289,7.1289,7.1289,7.1289,7.1289,7.1289,7.1289,7.1289,7.1289,7.1289,7.1289,7.1289,7.1289,6.3108,6.3108,6.3108,6.3108,6.3108,6.3108,6.3108,6.3108,6.3108,6.3108,6.3108,6.3108,6.3108,6.3108,6.3108,6.3108,6.3108,6.3108,6.3108,6.3108,6.3108,6.3108,6.3108,6.3108,6.3108,6.3108,6.3108,6.3108,6.3108,6.3108,6.3108,6.3108,6.3108,6.3108,6.3108,6.3108,6.3194,6.454,6.5083,6.5328,6.7774,6.8773,6.887,6.9973,7.0412,7.0412,7.0412,7.0412,7.0412,7.0412,7.0412,7.0216,6.9121,6.8773,6.8577,6.7496,6.719,6.7113,6.6829,6.6725,6.6725,6.6725,6.7521,6.8024,6.6984,6.6958,6.719,6.719,6.719,6.719,6.719,6.719,6.7622,6.8967,6.9217,6.968,7.1098,7.1289,7.1289,7.1289,7.1289,7.1289,7.1289,7.1289,7.1289,7.1289,7.1289,7.1289,7.1289,7.1289,7.1289,7.1289,7.1289,7.1289,7.1289,7.1289,7.1289,7.1289,7.1289,7.1289,7.1289,7.1289,7.1289,7.1289,7.1289,7.1289,7.1289,7.1289,7.1289,7.1289,7.1289,7.1289,7.1289,7.1289,7.1289,7.1289,6.3108,6.3108,6.3108,6.3108,6.3108,6.3108,6.3108,6.3108,6.3108,6.3108,6.3108,6.3108,6.3108,6.3108,6.3108,6.3108,6.3108,6.3108,6.3108,6.3108,6.3108,6.3108,6.3108,6.3108,6.3108,6.3108,6.3108,6.3108,6.3108,6.3108,6.3108,6.3108,6.3108,6.3108,6.3108,6.3108,6.3194,6.454,6.549,6.6286,6.838,6.9609,7.0286,7.103,7.1289,7.1289,7.1289,7.1289,7.1289,7.1289,7.1289,7.1176,7.0436,7.0216,7.0043,6.937,6.9178,6.9,6.8355,6.8124,6.8124,6.8124,6.8675,6.9024,6.8298,6.865,6.9178,6.9178,6.9178,6.8951,6.8281,6.8675,6.9145,6.9217,6.9751,7.0482,7.1222,7.1289,7.1289,7.1289,7.1289,7.1289,7.1289,7.1289,7.1289,7.1289,7.1289,7.1289,7.1289,7.1289,7.1289,7.1289,7.1289,7.1289,7.1289,7.1289,7.1289,7.1289,7.1289,7.1289,7.1289,7.1289,7.1289,7.1289,7.1289,7.1289,7.1289,7.1289,7.1289,7.1289,7.1289,7.1289,7.1289,7.1289,7.1289,7.1289,6.3108,6.3108,6.3108,6.3108,6.3108,6.3108,6.3108,6.3108,6.3108,6.3108,6.3108,6.3108,6.3108,6.3108,6.3108,6.3108,6.3108,6.3108,6.3108,6.3108,6.3108,6.3108,6.3108,6.3108,6.3108,6.3108,6.3108,6.3108,6.3108,6.3108,6.3108,6.3108,6.3108,6.3108,6.3108,6.3108,6.3194,6.454,6.5754,6.6958,6.8577,6.9902,7.0984,7.1222,7.1289,7.1289,7.1289,7.1289,7.1289,7.1289,7.1289,7.1289,7.1289,7.1289,7.1289,7.1289,7.1289,7.1052,6.9879,6.9561,6.9561,6.9561,6.9561,6.9561,6.9561,7.0482,7.1289,7.1289,7.1289,7.0928,6.9751,7.0505,7.0939,6.9751,7.0551,7.1289,7.1289,7.1289,7.1289,7.1289,7.1289,7.1289,7.1289,7.1289,7.1289,7.1289,7.1289,7.1289,7.1289,7.1289,7.1289,7.1289,7.1289,7.1289,7.1289,7.1289,7.1289,7.1289,7.1289,7.1289,7.1289,7.1289,7.1289,7.1289,7.1289,7.1289,7.1289,7.1289,7.1289,7.1289,7.1289,7.1289,7.1289,7.1289,7.1289,7.1289,6.3108,6.3108,6.3108,6.3108,6.3108,6.3108,6.3108,6.3108,6.3108,6.3108,6.3108,6.3108,6.3108,6.3108,6.3108,6.3108,6.3108,6.3108,6.3108,6.3108,6.3108,6.3108,6.3108,6.3108,6.3108,6.3108,6.3108,6.3108,6.3108,6.3108,6.3108,6.3108,6.3108,6.3108,6.3108,6.3108,6.3194,6.454,6.5192,6.5594,6.8149,6.9313,6.9633,7.0837,7.1289,7.1289,7.1289,7.1289,7.1289,7.1289,7.1289,7.1289,7.1289,7.1289,7.1289,7.1289,7.1289,7.1267,7.1075,7.103,7.103,7.103,7.103,7.103,7.103,7.1143,7.1289,7.1289,7.1289,7.1244,7.1052,7.1176,7.1244,7.1052,7.1199,7.1289,7.1289,7.1289,7.1289,7.1289,7.1289,7.1289,7.1289,7.1289,7.1289,7.1289,7.1289,7.1289,7.1289,7.1289,7.1289,7.1289,7.1289,7.1289,7.1289,7.1289,7.1289,7.1289,7.1289,7.1289,7.1289,7.1289,7.1289,7.1289,7.1289,7.1289,7.1289,7.1289,7.1289,7.1289,7.1289,7.1289,7.1289,7.1289,7.1289,7.1289,6.3108,6.3108,6.3108,6.3108,6.3108,6.3108,6.3108,6.3108,6.3108,6.3108,6.3108,6.3108,6.3108,6.3108,6.3108,6.3108,6.3108,6.3108,6.3108,6.3108,6.3108,6.3108,6.3108,6.3108,6.3108,6.3108,6.3108,6.3108,6.3108,6.3108,6.3108,6.3108,6.3108,6.3108,6.3108,6.3108,6.3137,6.3732,6.4868,6.6391,6.7597,6.9,7.0459,7.1052,7.1289,7.1289,7.1289,7.1289,7.1289,7.1289,7.1289,7.1289,7.1289,7.1289,7.1289,7.1289,7.1289,7.1289,7.1289,7.1289,7.1289,7.1289,7.1289,7.1289,7.1289,7.1289,7.1289,7.1289,7.1289,7.1289,7.1289,7.1289,7.1289,7.1289,7.1289,7.1289,7.1289,7.1289,7.1289,7.1289,7.1289,7.1289,7.1289,7.1289,7.1289,7.1289,7.1289,7.1289,7.1289,7.1289,7.1289,7.1289,7.1289,7.1289,7.1289,7.1289,7.1289,7.1289,7.1289,7.1289,7.1289,7.1289,7.1289,7.1289,7.1289,7.1289,7.1289,7.1289,7.1289,7.1289,7.1289,7.1289,7.1289,7.1289,7.1289,7.1289]}]]